[[{"header":{"parameterUnit":"m.s-1","parameterCategory":1,"la1":30.6,"la2":28.766,"lo1":-90.7593,"lo2":-88.6598,"dy":0.0162,"dx":0.0183,"nx":116,"ny":114,"refTime":"2023-06-28T06:00:00:Z","depth":0,"parameterNumber":2,"parameterNumberName":"U-component_of_WINDS"},"data":[0.0,0.0,0.0,0.0,0.0,0.0,0.0,0.0,0.0,0.0,0.0,0.0,0.0,0.0,0.0,0.0,0.0,0.0,0.0,0.0,0.0,0.0,0.0,0.0,0.0,0.0,0.0,0.0,0.0,0.0,0.0,0.0,0.0,0.0,0.0,0.0,0.0,0.0,0.0,0.0,0.0,0.0,0.0,0.0,0.0,0.0,0.0,0.0,0.0,0.0,0.0,0.0,0.0,0.0,0.0,0.0,0.0,0.0,0.0,0.0,0.0,0.0,0.0,0.0,0.0,0.0,0.0,0.0,0.0,0.0,0.0,0.0,0.0,0.0,0.0,0.0,0.0,0.0,0.0,0.0,0.0,0.0,0.0,0.0,0.0,0.0,0.0,0.0,0.0,0.0,0.0,0.0,0.0,0.0,0.0,0.0,0.0,0.0,0.0,0.0,0.0,0.0,0.0,0.0,0.0,0.0,0.0,0.0,0.0,0.0,0.0,0.0,0.0,0.0,0.0,0.0,0.0,0.0,0.0,0.0,0.0,0.0,0.0,0.0,0.0,0.0,0.0,0.0,0.0,0.0,0.0,0.0,0.0,0.0,0.0,0.0,0.0,0.0,0.0,0.0,0.0,0.0,0.0,0.0,0.0,0.0,0.0,0.0,0.0,0.0,0.0,0.0,0.0,0.0,0.0,0.0,0.0,0.0,0.0,0.0,0.0,0.0,0.0,0.0,0.0,0.0,0.0,0.0,0.0,0.0,0.0,0.0,0.0,0.0,0.0,0.0,0.0,0.0,0.0,0.0,0.0,0.0,0.0,0.0,0.0,0.0,0.0,0.0,0.0,0.0,0.0,0.0,0.0,0.0,0.0,0.0,0.0,0.0,0.0,0.0,0.0,0.0,0.0,0.0,0.0,0.0,0.0,0.0,0.0,0.0,0.0,0.0,0.0,0.0,0.0,0.0,0.0,0.0,0.0,0.0,0.0,0.0,0.0,0.0,0.0,0.0,0.0,0.0,0.0,0.0,0.0,0.0,0.0,0.0,0.0,0.0,0.0,0.0,0.0,0.0,0.0,0.0,0.0,0.0,0.0,0.0,0.0,0.0,0.0,0.0,0.0,0.0,0.0,0.0,0.0,0.0,0.0,0.0,0.0,0.0,0.0,0.0,0.0,0.0,0.0,0.0,0.0,0.0,0.0,0.0,0.0,0.0,0.0,0.0,0.0,0.0,0.0,0.0,0.0,0.0,0.0,0.0,0.0,0.0,0.0,0.0,0.0,0.0,0.0,0.0,0.0,0.0,0.0,0.0,0.0,0.0,0.0,0.0,0.0,0.0,0.0,0.0,0.0,0.0,0.0,0.0,0.0,0.0,0.0,0.0,0.0,0.0,0.0,0.0,0.0,0.0,0.0,0.0,0.0,0.0,0.0,0.0,0.0,0.0,0.0,0.0,0.0,0.0,0.0,0.0,0.0,0.0,0.0,0.0,0.0,0.0,0.0,0.0,0.0,0.0,0.0,0.0,0.0,0.0,0.0,0.0,0.0,0.0,0.0,0.0,0.0,0.0,0.0,0.0,0.0,0.0,0.0,0.0,0.0,0.0,0.0,0.0,0.0,0.0,0.0,0.0,0.0,0.0,0.0,0.0,0.0,0.0,0.0,0.0,0.0,0.0,0.0,0.0,0.0,0.0,0.0,0.0,0.0,0.0,0.0,0.0,0.0,0.0,0.0,0.0,0.0,0.0,0.0,0.0,0.0,0.0,0.0,0.0,0.0,0.0,0.0,0.0,0.0,0.0,0.0,0.0,0.0,0.0,0.0,0.0,0.0,0.0,0.0,0.0,0.0,0.0,0.0,0.0,0.0,0.0,0.0,0.0,0.0,0.0,0.0,0.0,0.0,0.0,0.0,0.0,0.0,0.0,0.0,0.0,0.0,0.0,0.0,0.0,0.0,0.0,0.0,0.0,0.0,0.0,0.0,0.0,0.0,0.0,0.0,0.0,0.0,0.0,0.0,0.0,0.0,0.0,0.0,0.0,0.0,0.0,0.0,0.0,0.0,0.0,0.0,0.0,0.0,0.0,0.0,0.0,0.0,0.0,0.0,0.0,0.0,0.0,0.0,0.0,0.0,0.0,0.0,0.0,0.0,0.0,0.0,0.0,0.0,0.0,0.0,0.0,0.0,0.0,0.0,0.0,0.0,0.0,0.0,0.0,0.0,0.0,0.0,0.0,0.0,0.0,0.0,0.0,0.0,0.0,0.0,0.0,0.0,0.0,0.0,0.0,0.0,0.0,0.0,0.0,0.0,0.0,0.0,0.0,0.0,0.0,0.0,0.0,0.0,0.0,0.0,0.0,0.0,0.0,0.0,0.0,0.0,0.0,0.0,0.0,0.0,0.0,0.0,0.0,0.0,0.0,0.0,0.0,0.0,0.0,0.0,0.0,0.0,0.0,0.0,0.0,0.0,0.0,0.0,0.0,0.0,0.0,0.0,0.0,0.0,0.0,0.0,0.0,0.0,0.0,0.0,0.0,0.0,0.0,0.0,0.0,0.0,0.0,0.0,0.0,0.0,0.0,0.0,0.0,0.0,0.0,0.0,0.0,0.0,0.0,0.0,0.0,0.0,0.0,0.0,0.0,0.0,0.0,0.0,0.0,0.0,0.0,0.0,0.0,0.0,0.0,0.0,0.0,0.0,0.0,0.0,0.0,0.0,0.0,0.0,0.0,0.0,0.0,0.0,0.0,0.0,0.0,0.0,0.0,0.0,0.0,0.0,0.0,0.0,0.0,0.0,0.0,0.0,0.0,0.0,0.0,0.0,0.0,0.0,0.0,0.0,0.0,0.0,0.0,0.0,0.0,0.0,0.0,0.0,0.0,0.0,0.0,0.0,0.0,0.0,0.0,0.0,0.0,0.0,0.0,0.0,0.0,0.0,0.0,0.0,0.0,0.0,0.0,0.0,0.0,0.0,0.0,0.0,0.0,0.0,0.0,0.0,0.0,0.0,0.0,0.0,0.0,0.0,0.0,0.0,0.0,0.0,0.0,0.0,0.0,0.0,0.0,0.0,0.0,0.0,0.0,0.0,0.0,0.0,0.0,0.0,0.0,0.0,0.0,0.0,0.0,0.0,0.0,0.0,0.0,0.0,0.0,0.0,0.0,0.0,0.0,0.0,0.0,0.0,0.0,0.0,0.0,0.0,0.0,0.0,0.0,0.0,0.0,0.0,0.0,0.0,0.0,0.0,0.0,0.0,0.0,0.0,0.0,0.0,0.0,0.0,0.0,0.0,0.0,0.0,0.0,0.0,0.0,0.0,0.0,0.0,0.0,0.0,0.0,0.0,0.0,0.0,0.0,0.0,0.0,0.0,0.0,0.0,0.0,0.0,0.0,0.0,0.0,0.0,0.0,0.0,0.0,0.0,0.0,0.0,0.0,0.0,0.0,0.0,0.0,0.0,0.0,0.0,0.0,0.0,0.0,0.0,0.0,0.0,0.0,0.0,0.0,0.0,0.0,0.0,0.0,0.0,0.0,0.0,0.0,0.0,0.0,0.0,0.0,0.0,0.0,0.0,0.0,0.0,0.0,0.0,0.0,0.0,0.0,0.0,0.0,0.0,0.0,0.0,0.0,0.0,0.0,0.0,0.0,0.0,0.0,0.0,0.0,0.0,0.0,0.0,0.0,0.0,0.0,0.0,0.0,0.0,0.0,0.0,0.0,0.0,0.0,0.0,0.0,0.0,0.0,0.0,0.0,0.0,0.0,0.0,0.0,0.0,0.0,0.0,0.0,0.0,0.0,0.0,0.0,0.0,0.0,0.0,0.0,0.0,0.0,0.0,0.0,0.0,0.0,0.0,0.0,0.0,0.0,0.0,0.0,0.0,0.0,0.0,0.0,0.0,0.0,0.0,0.0,0.0,0.0,0.0,0.0,0.0,0.0,0.0,0.0,0.0,0.0,0.0,0.0,0.0,0.0,0.0,0.0,0.0,0.0,0.0,0.0,0.0,0.0,0.0,0.0,0.0,0.0,0.0,0.0,0.0,0.0,0.0,0.0,0.0,0.0,0.0,0.0,0.0,0.0,0.0,0.0,0.0,0.0,0.0,0.0,0.0,0.0,0.0,0.0,0.0,0.0,0.0,0.0,0.0,0.0,0.0,0.0,0.0,0.0,0.0,0.0,0.0,0.0,0.0,0.0,0.0,0.0,0.0,0.0,0.0,0.0,0.0,0.0,0.0,0.0,0.0,0.0,0.0,0.0,0.0,0.0,0.0,0.0,0.0,0.0,0.0,0.0,0.0,0.0,0.0,0.0,0.0,0.0,0.0,0.0,0.0,0.0,0.0,0.0,0.0,0.0,0.0,0.0,0.0,0.0,0.0,0.0,0.0,0.0,0.0,0.0,0.0,0.0,0.0,0.0,0.0,0.0,0.0,0.0,0.0,0.0,0.0,0.0,0.0,0.0,0.0,0.0,0.0,0.0,0.0,0.0,0.0,0.0,0.0,0.0,0.0,0.0,0.0,0.0,0.0,0.0,0.0,0.0,0.0,0.0,0.0,0.0,0.0,0.0,0.0,0.0,0.0,0.0,0.0,0.0,0.0,0.0,0.0,0.0,0.0,0.0,0.0,0.0,0.0,0.0,0.0,0.0,0.0,0.0,0.0,0.0,0.0,0.0,0.0,0.0,0.0,0.0,0.0,0.0,0.0,0.0,0.0,0.0,0.0,0.0,0.0,0.0,0.0,0.0,0.0,0.0,0.0,0.0,0.0,0.0,0.0,0.0,0.0,0.0,0.0,0.0,0.0,0.0,0.0,0.0,0.0,0.0,0.0,0.0,0.0,0.0,0.0,0.0,0.0,0.0,0.0,0.0,0.0,0.0,0.0,0.0,0.0,0.0,0.0,0.0,0.0,0.0,0.0,0.0,0.0,0.0,0.0,0.0,0.0,0.0,0.0,0.0,0.0,0.0,0.0,0.0,0.0,0.0,0.0,0.0,0.0,0.0,0.0,0.0,0.0,0.0,0.0,0.0,0.0,0.0,0.0,0.0,0.0,0.0,0.0,0.0,0.0,0.0,0.0,0.0,0.0,0.0,0.0,0.0,0.0,0.0,0.0,0.0,0.0,0.0,0.0,0.0,0.0,0.0,0.0,0.0,0.0,0.0,0.0,0.0,0.0,0.0,0.0,0.0,0.0,0.0,0.0,0.0,0.0,0.0,0.0,0.0,0.0,0.0,0.0,0.0,0.0,0.0,0.0,0.0,0.0,0.0,0.0,0.0,0.0,0.0,0.0,0.0,0.0,0.0,0.0,0.0,0.0,0.0,0.0,0.0,0.0,0.0,0.0,0.0,0.0,0.0,0.0,0.0,0.0,0.0,0.0,0.0,0.0,0.0,0.0,0.0,0.0,0.0,0.0,0.0,0.0,0.0,0.0,0.0,0.0,0.0,0.0,0.0,0.0,0.0,0.0,0.0,0.0,0.0,0.0,0.0,0.0,0.0,0.0,0.0,0.0,0.0,0.0,0.0,0.0,0.0,0.0,0.0,0.0,0.0,0.0,0.0,0.0,0.0,0.0,0.0,0.0,0.0,0.0,0.0,0.0,0.0,0.0,0.0,0.0,0.0,0.0,0.0,0.0,0.0,0.0,0.0,0.0,0.0,0.0,0.0,0.0,0.0,0.0,0.0,0.0,0.0,0.0,0.0,0.0,0.0,0.0,0.0,0.0,0.0,0.0,0.0,0.0,0.0,0.0,0.0,0.0,0.0,0.0,0.0,0.0,0.0,0.0,0.0,0.0,0.0,0.0,0.0,0.0,0.0,0.0,0.0,0.0,0.0,0.0,0.0,0.0,0.0,0.0,0.0,0.0,0.0,0.0,0.0,0.0,0.0,0.0,0.0,0.0,0.0,0.0,0.0,0.0,0.0,0.0,0.0,0.0,0.0,0.0,0.0,0.0,0.0,0.0,0.0,0.0,0.0,0.0,0.0,0.0,0.0,0.0,0.0,0.0,0.0,0.0,0.0,0.0,0.0,0.0,0.0,0.0,0.0,0.0,0.0,0.0,0.0,0.0,0.0,0.0,0.0,0.0,0.0,0.0,0.0,0.0,0.0,0.0,0.0,-2.7068,0.0,0.0,0.0,0.0,0.0,0.0,0.0,0.0,0.0,0.0,0.0,0.0,0.0,0.0,0.0,0.0,0.0,0.0,0.0,0.0,0.0,0.0,0.0,0.0,0.0,0.0,0.0,0.0,0.0,0.0,0.0,0.0,0.0,0.0,0.0,0.0,0.0,0.0,0.0,0.0,0.0,0.0,0.0,0.0,0.0,0.0,0.0,0.0,0.0,0.0,0.0,0.0,0.0,0.0,0.0,0.0,0.0,0.0,0.0,0.0,0.0,0.0,0.0,0.0,0.0,0.0,0.0,0.0,0.0,0.0,0.0,0.0,0.0,0.0,0.0,0.0,0.0,0.0,0.0,0.0,0.0,0.0,0.0,0.0,0.0,0.0,0.0,0.0,0.0,0.0,0.0,0.0,0.0,0.0,0.0,0.0,0.0,0.0,0.0,0.0,0.0,0.0,0.0,0.0,0.0,0.0,0.0,0.0,0.0,0.0,0.0,0.0,0.0,0.0,0.0,0.0,-2.8297,0.0,0.0,0.0,0.0,0.0,0.0,0.0,0.0,0.0,0.0,0.0,0.0,0.0,0.0,0.0,0.0,0.0,0.0,0.0,0.0,0.0,0.0,0.0,0.0,0.0,0.0,0.0,0.0,0.0,0.0,0.0,0.0,0.0,0.0,0.0,0.0,0.0,0.0,0.0,0.0,0.0,0.0,0.0,0.0,0.0,0.0,0.0,0.0,0.0,0.0,0.0,0.0,0.0,0.0,0.0,0.0,0.0,0.0,0.0,0.0,0.0,0.0,0.0,0.0,0.0,0.0,0.0,0.0,0.0,0.0,0.0,0.0,0.0,0.0,0.0,0.0,0.0,0.0,0.0,0.0,0.0,0.0,0.0,0.0,0.0,0.0,0.0,0.0,0.0,0.0,0.0,0.0,0.0,0.0,0.0,0.0,0.0,0.0,0.0,0.0,0.0,0.0,0.0,0.0,0.0,0.0,0.0,0.0,-4.1579,-4.2121,-4.34,-4.1633,-4.0307,-3.9221,-3.6131,-3.353,-3.1307,0.0,0.0,0.0,0.0,0.0,0.0,0.0,0.0,0.0,0.0,0.0,0.0,0.0,0.0,0.0,0.0,0.0,0.0,0.0,0.0,0.0,0.0,0.0,0.0,0.0,0.0,0.0,0.0,0.0,0.0,0.0,0.0,0.0,0.0,0.0,0.0,0.0,0.0,0.0,-3.4191,-3.5004,-3.4711,-3.3264,0.0,0.0,0.0,0.0,0.0,0.0,0.0,0.0,0.0,0.0,0.0,0.0,0.0,0.0,0.0,0.0,0.0,0.0,0.0,0.0,0.0,0.0,0.0,0.0,0.0,0.0,0.0,0.0,0.0,0.0,0.0,0.0,0.0,0.0,0.0,0.0,0.0,0.0,0.0,0.0,0.0,0.0,0.0,0.0,-2.8497,-2.7731,0.0,0.0,0.0,0.0,0.0,0.0,0.0,0.0,0.0,0.0,0.0,0.0,0.0,0.0,-4.1085,-4.4127,-4.6247,-4.7435,-4.8776,-4.9922,-5.0923,-4.9009,-4.768,-4.6838,-4.4318,0.0,-3.3438,-3.1507,0.0,0.0,0.0,0.0,0.0,0.0,0.0,0.0,0.0,0.0,0.0,0.0,0.0,0.0,0.0,0.0,0.0,0.0,0.0,0.0,0.0,0.0,0.0,0.0,0.0,0.0,0.0,0.0,0.0,0.0,0.0,0.0,0.0,0.0,0.0,0.0,-3.3107,-3.7094,-4.022,-4.0829,-4.0772,-3.9984,-3.7224,-3.1935,-2.5059,-2.3951,0.0,0.0,0.0,0.0,0.0,0.0,0.0,0.0,0.0,0.0,0.0,0.0,0.0,0.0,0.0,0.0,0.0,0.0,0.0,0.0,0.0,0.0,0.0,0.0,0.0,0.0,0.0,0.0,0.0,0.0,0.0,0.0,0.0,0.0,0.0,0.0,0.0,0.0,0.0,-3.0721,-3.1669,-2.9178,-2.9481,-2.8894,0.0,0.0,0.0,0.0,0.0,0.0,0.0,0.0,0.0,-4.2437,-4.4345,-4.5721,-4.6621,-4.9412,-5.1485,-5.2857,-5.3211,-5.3815,-5.458,-5.33,-5.1918,-5.047,-4.8644,-4.4593,-3.9089,-3.5836,-3.2669,-2.9659,0.0,0.0,0.0,0.0,-2.0067,-1.8877,0.0,0.0,0.0,0.0,0.0,0.0,0.0,0.0,0.0,0.0,0.0,0.0,0.0,0.0,0.0,0.0,0.0,0.0,0.0,0.0,0.0,0.0,0.0,0.0,0.0,0.0,0.0,0.0,-3.7006,-4.0576,-4.4729,-4.5527,-4.5346,-4.4357,-4.3899,-3.8223,-2.9001,-2.7851,-2.5464,0.0,0.0,0.0,0.0,0.0,0.0,0.0,0.0,0.0,0.0,0.0,0.0,0.0,0.0,0.0,0.0,0.0,0.0,0.0,0.0,0.0,0.0,0.0,0.0,0.0,0.0,0.0,0.0,0.0,0.0,0.0,0.0,0.0,0.0,0.0,0.0,0.0,0.0,-3.3271,-3.4473,-3.0395,-3.2449,-3.262,0.0,0.0,0.0,0.0,0.0,0.0,-4.2006,-4.3144,-4.4975,-4.7795,-4.9851,-5.1304,-5.221,-5.4258,-5.5919,-5.7186,-5.6563,-5.6564,-5.7083,-5.6063,-5.4598,-5.2661,-5.075,-4.7327,-4.2954,-3.8704,-3.4398,-3.0256,-2.7988,-2.5299,-2.2616,-2.1942,-2.0916,-1.9871,0.0,0.0,0.0,0.0,0.0,0.0,0.0,0.0,0.0,0.0,0.0,0.0,0.0,0.0,0.0,0.0,0.0,0.0,0.0,0.0,0.0,0.0,0.0,0.0,0.0,0.0,0.0,-3.4569,-4.1589,-4.5497,-4.6432,-4.8469,-4.8496,-4.6793,-4.5698,-4.1181,-3.436,-3.3613,-3.0165,-2.5002,0.0,0.0,0.0,0.0,0.0,0.0,0.0,0.0,0.0,0.0,0.0,0.0,0.0,0.0,0.0,0.0,0.0,0.0,0.0,0.0,0.0,0.0,0.0,0.0,0.0,0.0,0.0,0.0,0.0,0.0,0.0,0.0,0.0,0.0,0.0,0.0,0.0,0.0,0.0,-3.0797,-3.6077,0.0,0.0,0.0,0.0,-3.6904,-3.8757,-4.1895,-4.6611,-4.8475,-5.0919,-5.4313,-5.5952,-5.6982,-5.7406,-5.8412,-5.9256,-5.9934,-5.9274,-5.8988,-5.8934,-5.7406,-5.5772,-5.3917,-5.0506,-4.6608,-4.2224,-3.8321,-3.4639,-3.102,-2.6684,-2.4529,-2.3589,-2.1684,-2.0786,-2.0481,0.0,0.0,0.0,0.0,0.0,0.0,0.0,0.0,0.0,0.0,0.0,0.0,0.0,0.0,0.0,0.0,0.0,0.0,0.0,0.0,0.0,0.0,0.0,0.0,0.0,0.0,-3.4691,-4.1053,-4.5103,-4.7997,-4.9724,-5.061,-5.036,-4.9174,-4.7826,-4.496,-4.0955,-3.7629,-3.4178,-3.0656,-2.7504,-2.4699,0.0,0.0,0.0,0.0,0.0,0.0,0.0,0.0,0.0,0.0,0.0,0.0,0.0,0.0,0.0,0.0,0.0,0.0,0.0,0.0,0.0,0.0,0.0,0.0,0.0,0.0,0.0,0.0,0.0,0.0,0.0,0.0,0.0,0.0,0.0,0.0,0.0,-3.8299,-4.1594,0.0,0.0,-3.8784,-4.0127,-4.1523,-4.4562,-4.8043,-5.2017,-5.3663,-5.5593,-5.7974,-5.9063,-5.9683,-6.001,-6.1017,-6.1615,-6.1818,-6.1087,-6.0158,-5.9019,-5.8474,-5.662,-5.3691,-5.0476,-4.634,-4.1519,-3.5939,-3.2206,-2.9643,-2.6704,-2.4459,-2.2637,-2.1408,-2.0644,-2.0216,0.0,0.0,0.0,0.0,0.0,0.0,0.0,0.0,0.0,0.0,0.0,0.0,0.0,0.0,0.0,0.0,0.0,0.0,0.0,0.0,0.0,0.0,0.0,0.0,0.0,-3.3143,-3.8402,-4.5046,-4.7292,-4.9313,-5.1118,-5.1135,-5.0671,-4.9656,-4.8317,-4.6821,-4.5089,-4.1121,-3.798,-3.5382,-3.2086,-2.8729,-2.5474,0.0,0.0,0.0,0.0,0.0,0.0,0.0,0.0,0.0,0.0,0.0,0.0,0.0,0.0,0.0,0.0,0.0,0.0,0.0,0.0,0.0,0.0,0.0,0.0,0.0,0.0,0.0,0.0,0.0,0.0,0.0,0.0,0.0,0.0,0.0,-4.3874,-4.3194,-4.6307,-4.7211,-4.3747,-4.4173,-4.5312,-4.6877,-4.9844,-5.2947,-5.6165,-5.7201,-5.8571,-6.0463,-6.0838,-6.1102,-6.1459,-6.2284,-6.2604,-6.2401,-6.1809,-6.0683,-5.9039,-5.8933,-5.6981,-5.3486,-4.967,-4.5422,-4.0591,-3.4258,-3.0046,-2.7375,-2.5412,-2.3608,-2.206,-2.1216,-2.0685,-2.0324,0.0,0.0,0.0,0.0,0.0,0.0,0.0,0.0,0.0,0.0,0.0,0.0,0.0,0.0,0.0,0.0,0.0,0.0,0.0,0.0,0.0,0.0,0.0,0.0,-3.2383,-3.6317,-4.0869,-4.6068,-4.8218,-4.9646,-5.0355,-5.0152,-4.9451,-4.8211,-4.7122,-4.6607,-4.6501,-4.4148,-4.1636,-3.9043,-3.6017,-3.3051,-3.0128,0.0,0.0,0.0,0.0,0.0,0.0,0.0,0.0,0.0,0.0,0.0,0.0,0.0,0.0,0.0,0.0,0.0,0.0,0.0,0.0,0.0,0.0,0.0,0.0,0.0,0.0,0.0,0.0,0.0,0.0,0.0,0.0,0.0,-3.7397,-4.396,-4.765,-4.503,-5.0191,-5.2548,-4.8932,-5.0027,-5.1535,-5.299,-5.4367,-5.6201,-5.8747,-5.889,-5.9831,-6.1842,-6.1365,-6.1367,-6.1976,-6.2414,-6.2298,-6.1655,-6.1475,-6.0559,-5.9065,-5.8753,-5.6762,-5.3345,-4.8131,-4.367,-3.9609,-3.3559,-2.8539,-2.4563,-2.2939,-2.2132,-2.1847,-2.11,-2.082,-2.082,0.0,0.0,0.0,0.0,0.0,0.0,0.0,0.0,0.0,0.0,0.0,0.0,0.0,0.0,0.0,0.0,0.0,0.0,0.0,0.0,0.0,0.0,0.0,0.0,-3.7542,-4.126,-4.521,-4.9541,-4.9976,-5.0884,-5.2087,-5.0578,-4.9855,-4.9781,-4.7992,-4.7362,-4.7595,-4.6411,-4.6078,-4.5952,-4.0896,-3.7928,-3.6216,0.0,0.0,0.0,0.0,0.0,0.0,0.0,0.0,0.0,0.0,0.0,0.0,0.0,0.0,0.0,0.0,0.0,0.0,0.0,0.0,0.0,0.0,0.0,0.0,0.0,0.0,0.0,0.0,0.0,0.0,0.0,0.0,-4.2479,-4.4293,-4.8471,-5.2009,-5.38,-5.7267,-5.8766,-5.6923,-5.6876,-5.6992,-5.708,-5.7681,-5.8089,-5.8149,-5.8605,-5.9067,-5.9661,-6.03,-6.1136,-6.2163,-6.2637,-6.2915,-6.2898,-6.1655,-6.0165,-5.8521,-5.8436,-5.6137,-5.2015,-4.7472,-4.3301,-3.9168,-3.1966,-2.7768,-2.5678,-2.3253,-2.132,-1.986,-1.9275,-1.9282,-1.9576,0.0,0.0,0.0,0.0,0.0,0.0,0.0,0.0,0.0,0.0,0.0,0.0,0.0,0.0,0.0,0.0,0.0,0.0,0.0,0.0,0.0,0.0,0.0,-3.6068,-4.1505,-4.5174,-4.8315,-5.0915,-5.0748,-5.1059,-5.1748,-4.9887,-4.9028,-4.8978,-4.7621,-4.7277,-4.7631,-4.7607,-4.8434,-4.9505,-4.6304,-4.3628,-4.1332,-3.8994,-3.6839,-3.4828,-3.3093,-3.269,-3.2513,-2.9537,0.0,0.0,0.0,0.0,0.0,0.0,0.0,0.0,0.0,0.0,0.0,0.0,0.0,0.0,0.0,0.0,0.0,0.0,0.0,0.0,0.0,0.0,0.0,0.0,-4.235,-4.7535,-5.0999,-5.2733,-5.4742,-5.7709,-5.9393,-6.0508,-6.0898,-6.0284,-5.9798,-5.9803,-5.9678,-5.9239,-5.8559,-5.7997,-5.7998,-5.855,-5.9346,-6.0352,-6.1474,-6.2286,-6.2705,-6.2667,-6.1349,-5.9821,-5.8206,-5.8117,-5.6144,0.0,-4.6924,-4.3009,-3.9804,-3.2147,-2.8116,0.0,0.0,0.0,0.0,0.0,-1.9706,-2.0098,0.0,0.0,0.0,0.0,0.0,0.0,0.0,0.0,0.0,0.0,0.0,0.0,0.0,0.0,0.0,0.0,0.0,0.0,0.0,0.0,0.0,-3.1202,-3.5806,-4.0297,-4.4786,-4.8308,-5.0371,-5.1048,-5.0976,-5.0794,-5.0532,-4.8839,-4.7825,-4.7372,-4.6897,-4.6935,-4.7317,-4.8253,-4.9523,-5.091,-5.1497,-4.945,-4.5847,-4.3595,-4.0715,-3.7783,-3.707,-3.5958,-3.4749,-3.4211,0.0,0.0,0.0,0.0,0.0,0.0,0.0,0.0,0.0,0.0,0.0,0.0,0.0,0.0,0.0,0.0,0.0,0.0,0.0,0.0,0.0,0.0,0.0,0.0,-4.6182,-5.1639,-5.6825,-5.6558,-5.6502,-5.8387,-5.8791,-5.9756,-6.2023,-6.1353,-6.0947,-6.1413,-6.0583,-5.9696,-5.8993,0.0,0.0,0.0,0.0,-5.9277,-6.0464,-6.1761,-6.2192,-6.1838,-6.0985,-5.9779,-5.827,-5.8002,-5.6148,-5.2748,-4.6283,-4.2227,-3.9781,-3.2907,-2.9067,-2.7032,-2.3076,-2.1522,-2.142,-2.1224,-2.1302,-2.1692,0.0,0.0,0.0,0.0,0.0,0.0,0.0,0.0,0.0,0.0,0.0,0.0,0.0,0.0,0.0,0.0,0.0,0.0,0.0,0.0,-3.0366,-3.4734,-3.945,-4.4059,-4.8541,-5.0262,-5.1358,-5.1857,-5.1856,-5.1742,-5.1493,-4.9742,-4.9223,-4.9617,-4.8125,-4.7906,-4.8705,-4.9728,-5.1078,-5.2623,-5.3802,-5.2974,-5.0765,-4.8269,-4.6953,-4.6123,-4.386,-4.381,-4.4179,-3.9958,-3.9328,-3.9479,-3.4744,0.0,0.0,0.0,0.0,0.0,0.0,0.0,0.0,0.0,0.0,0.0,0.0,0.0,0.0,0.0,0.0,0.0,0.0,0.0,0.0,-4.774,-5.21,-5.5869,-5.8732,-5.8658,-5.8604,-5.9401,-6.0861,-6.198,-6.2317,-6.2085,-6.2039,-6.2309,-6.0543,-5.8719,-5.7077,-5.616,0.0,-5.5193,-5.7083,-5.8815,-6.0431,-6.2054,-6.2857,-6.282,0.0,0.0,-5.9374,-5.8722,-5.404,-4.6256,-4.4541,-3.9699,-3.2874,-3.0903,-2.8839,-2.6622,-2.415,-2.2994,-2.2593,-2.2793,-2.2994,-2.3294,0.0,0.0,0.0,0.0,0.0,0.0,0.0,0.0,0.0,0.0,0.0,0.0,0.0,0.0,0.0,0.0,0.0,0.0,0.0,-2.8851,-3.335,-3.8303,-4.2908,-4.682,-5.0008,-5.1402,-5.2043,-5.2061,-5.2165,-5.1879,-5.1188,-5.024,-4.9611,-4.9269,-4.899,-4.8976,-4.9338,-5.0699,-5.196,-5.3255,-5.4914,-5.5094,-5.4116,-5.2038,-5.0745,-4.9817,-4.8072,-4.7514,-4.7203,-4.4589,-4.3965,-4.3691,-4.0209,-3.6404,-3.2725,0.0,0.0,0.0,0.0,0.0,0.0,0.0,0.0,0.0,0.0,0.0,0.0,0.0,0.0,-3.684,0.0,0.0,-4.7255,-5.0347,-5.4652,-5.8085,-5.9467,-5.9466,-5.9582,-6.0256,-6.0209,-6.054,-6.1767,-6.1575,-6.1432,-6.1429,-6.0331,-5.8719,-5.641,-5.5247,-5.4196,-5.3279,-5.5081,-5.7034,-5.9088,-6.0433,-6.1713,-6.2756,-6.1701,-6.0633,-5.9584,-5.8944,-5.4306,-4.6717,-4.5044,-4.0179,-3.3229,-3.1639,-2.9984,-2.8326,-2.7474,-2.5759,-2.3863,-2.4365,-2.466,-2.4954,0.0,0.0,0.0,0.0,0.0,0.0,0.0,0.0,0.0,0.0,0.0,0.0,0.0,0.0,0.0,0.0,0.0,0.0,0.0,-3.0053,-3.5388,-4.1002,-4.5432,-4.8613,-5.0459,-5.2,-5.2553,-5.1968,-5.2339,-5.1977,-5.0904,-5.072,-5.0017,-4.8965,-4.9696,-4.9978,-5.0027,-5.1428,-5.2578,-5.3605,-5.5576,-5.6327,-5.6184,-5.4902,-5.3337,-5.1691,-5.0718,-4.8842,-4.6913,-4.7419,-4.6674,-4.5384,-4.4466,-4.1796,-3.8182,-3.3964,-3.1086,0.0,0.0,0.0,0.0,0.0,0.0,0.0,0.0,0.0,-3.5526,-3.9083,-3.9951,-4.0938,-4.381,-4.7237,-5.0421,-5.2696,-5.6476,-5.932,-5.9888,-5.9756,-5.9928,-6.0671,-5.8862,-5.8292,-6.0226,-6.0121,-5.9884,-5.9819,-5.9388,-5.818,-5.5793,-5.4222,-5.292,-5.182,-5.3269,-5.5002,-5.7021,-5.8402,-5.9841,-6.1319,-6.0632,-5.9854,-5.9083,-5.8527,-5.4485,-4.7767,-4.3893,-3.9741,-3.5559,-3.3309,-3.1716,-3.0664,-3.0932,-2.8962,-2.5885,-2.6204,-2.6512,-2.6703,0.0,0.0,0.0,0.0,0.0,0.0,0.0,0.0,0.0,0.0,0.0,0.0,0.0,0.0,0.0,0.0,0.0,0.0,-2.605,-3.1479,-3.6749,-4.1587,-4.5668,-4.8661,-5.0441,-5.2306,-5.2808,-5.1907,-5.2942,-5.2948,-5.1952,-5.1603,-5.1366,-5.1191,-5.0474,-5.0629,-5.1437,-5.226,-5.3241,-5.4434,-5.6205,-5.6693,-5.6379,-5.6317,-5.5221,-5.3483,-5.1831,-4.8192,-4.4472,-4.6754,-4.5424,-4.3198,-4.5275,-4.3562,-4.0096,-3.6438,0.0,-2.8626,-2.5136,-2.5035,-2.6463,-2.8807,-3.0192,-3.282,0.0,0.0,-4.2614,-4.7231,-4.8724,-5.0002,-5.2531,-5.3821,-5.5603,-5.8858,-5.971,-6.0199,-6.0871,-6.0259,-5.9798,-5.9834,-5.8538,-5.7561,-5.7347,-5.7352,-5.7582,-5.7961,-5.6677,-5.537,-5.4119,-5.2797,-5.1836,-5.1149,-5.2445,-5.3543,-5.4339,-5.6975,-5.8019,-5.7521,-5.8887,-5.8896,-5.7699,-5.699,-5.1982,-4.3509,-3.627,-3.4097,-3.5666,-3.4787,-3.372,-3.2599,-3.2857,-3.1553,-2.9532,-2.898,-2.8899,-2.9002,0.0,0.0,0.0,0.0,0.0,0.0,0.0,0.0,0.0,0.0,0.0,0.0,0.0,0.0,0.0,0.0,0.0,0.0,-2.5751,-3.1093,-3.6646,-4.219,-4.4547,-4.7193,-5.0454,-5.0964,-5.1555,-5.2302,-5.2758,-5.2952,-5.2821,-5.3091,-5.2717,-5.1835,-5.2243,-5.1971,-5.131,-5.3289,-5.3983,-5.3996,-5.6637,-5.713,-5.6232,-5.5867,-5.378,-5.0786,-4.8888,-4.6241,0.0,0.0,-4.2695,-4.1963,-4.4081,-4.238,-3.9105,-3.6582,-3.3473,0.0,-3.023,-2.9573,0.0,0.0,-3.6205,-3.8012,-4.3613,-4.5483,-4.703,-5.0478,-5.1846,-5.3067,-5.5038,-5.5913,-5.711,0.0,-6.0076,-6.0385,-6.0599,-5.978,-5.8684,-5.7334,-5.6241,-5.5897,-5.6632,-5.6339,-5.6105,-5.6148,-5.5494,-5.4393,-5.2959,-5.1774,-5.0657,-4.965,-5.0627,-5.1853,-5.3444,-5.5,-5.6037,-5.6441,-5.6988,-5.6768,-5.5906,-5.5116,-5.1236,-4.4702,-3.7198,-3.5232,-3.7175,-3.5666,-3.4472,-3.3467,-3.3091,-3.2152,-3.1026,-3.0531,-3.0181,-2.9852,0.0,0.0,0.0,0.0,0.0,0.0,0.0,0.0,0.0,0.0,0.0,0.0,0.0,0.0,0.0,0.0,0.0,0.0,0.0,-2.9559,-3.4943,-4.0797,-4.2714,0.0,-4.9151,-4.9784,-5.0772,-5.2181,-5.2728,-5.3088,-5.3269,-5.3857,-5.3467,-5.2315,-5.31,-5.2749,-5.1794,-5.3825,-5.4443,-5.4287,-5.6977,-5.7191,-5.5851,-5.4827,-5.1683,-4.7601,-4.5874,-4.3309,0.0,0.0,-3.904,-3.8884,-4.0935,-3.9992,-3.7697,-3.5486,-3.2745,-3.0923,-3.3053,0.0,0.0,-3.9755,-4.1598,-4.3024,-4.7261,-4.9009,-5.048,-5.2921,-5.3537,-5.4159,-5.5971,-5.6314,0.0,-5.9043,-5.9797,-6.0096,-6.0095,-5.9356,-5.7886,-5.5459,-5.4406,-5.4313,-5.5378,-5.4983,-5.4559,-5.4343,-5.4096,-5.3305,-5.1847,-5.0835,-4.9677,-4.8537,-4.9041,-5.0163,-5.186,-5.269,-5.3591,-5.4449,-5.4794,-5.4561,-5.3754,-5.2669,-5.0048,-4.6,-3.9985,-3.7975,-3.8705,-3.6695,-3.5224,-3.4236,-3.353,-3.2612,-3.1661,-3.1613,-3.1169,-3.0464,0.0,0.0,0.0,0.0,0.0,0.0,0.0,0.0,0.0,0.0,0.0,0.0,0.0,0.0,0.0,0.0,0.0,0.0,0.0,-2.6778,-3.135,-3.6468,-4.0318,-4.3489,-4.59,-4.9248,-5.1027,-5.1138,-5.3106,-5.3765,-5.3198,-5.3423,-5.3341,-5.292,-5.2343,-5.263,-5.3495,-5.3488,-5.4393,-5.6019,-5.7164,-5.6706,-5.5145,-5.3415,-4.9585,-4.4989,-4.4013,0.0,0.0,0.0,-3.4365,-3.2736,-3.5394,-3.6699,0.0,-3.3139,-2.962,0.0,0.0,0.0,-3.5734,-4.1641,-4.4809,-4.7568,-5.1582,-5.2514,-5.3145,-5.55,-5.4591,-5.4094,-5.634,-5.5532,-5.5532,-5.8764,-5.9364,-5.9438,-5.9512,-5.9215,-5.7872,-5.4989,-5.3851,-5.3149,0.0,-5.2791,-5.2776,-5.2418,-5.2014,-5.154,-5.0908,-4.9916,-4.9047,-4.8286,-4.8167,-4.8292,-4.8857,-5.0058,-5.0574,-5.0328,-5.2255,-5.2537,-5.1234,-4.9435,-4.774,-4.5929,-4.3048,-4.1115,-3.989,-3.8021,-3.6308,-3.4992,-3.4703,-3.3445,-3.1749,-3.245,-3.2189,-3.1412,0.0,0.0,0.0,0.0,0.0,0.0,0.0,0.0,0.0,0.0,0.0,0.0,0.0,0.0,0.0,0.0,0.0,0.0,0.0,-2.4941,-2.8982,-3.287,-3.6397,-3.9601,-4.2531,-4.4724,-4.6691,-4.8439,-5.0154,-5.126,-5.1806,-5.2549,-5.2499,-5.1817,-5.1892,-5.1672,-5.1418,-5.3484,-5.4334,-5.4439,-5.5516,-5.4484,-5.1912,-4.8145,-4.3746,-3.916,0.0,0.0,0.0,0.0,-3.1733,-3.1446,-3.3549,0.0,0.0,-3.1368,-3.1006,-3.1881,0.0,0.0,-4.2908,-4.713,-5.0394,-5.287,-5.4205,-5.5339,-5.5687,-5.4223,-5.2406,-5.1016,-5.0808,-4.9579,-5.0158,-5.4843,-5.6813,-5.8401,-6.0305,-6.068,-5.9395,-5.5649,-5.4564,0.0,0.0,0.0,0.0,-5.2249,-5.1483,-5.0823,-5.0631,-4.9677,-4.8883,-4.8286,-4.7973,-4.8224,-4.93,-4.9963,-5.0162,-4.9876,-4.9967,-4.9624,-4.8832,-4.7984,-4.6899,-4.5706,-4.3402,-4.1817,-4.077,-3.8275,-3.6346,-3.4979,-3.4568,-3.3335,-3.1749,-3.245,-3.2276,-3.15,0.0,0.0,0.0,0.0,0.0,0.0,0.0,0.0,0.0,0.0,0.0,0.0,0.0,0.0,0.0,0.0,0.0,0.0,0.0,0.0,-2.5058,-2.8292,-3.1077,-3.386,-3.665,-3.8385,-4.0213,-4.2111,-4.447,-4.624,-4.7438,-4.8863,-4.9455,-4.9318,-4.9334,-4.9014,-4.8577,-5.0259,-5.0616,-5.014,-5.1106,-5.0015,-4.7384,-4.3604,-3.9624,0.0,0.0,0.0,0.0,0.0,0.0,0.0,0.0,-3.0846,-3.0287,-3.1204,-3.2416,-3.4638,-3.9857,-4.3878,-4.7484,-5.1433,-5.4191,-5.5859,-5.5486,-5.5969,-5.5401,-5.1593,-4.9231,-4.7427,-4.6112,-4.4982,-4.597,-5.125,-5.3623,-5.5975,-5.9317,-6.0273,-5.9572,-5.6798,-5.568,0.0,0.0,0.0,0.0,-5.2038,-5.142,-5.0839,-5.0445,-4.9421,-4.8567,-4.7964,-4.7478,-4.7845,-4.9,-4.9328,-4.9604,-4.9813,-4.8845,-4.8163,-4.7704,-4.7134,-4.6137,-4.4764,-4.3113,-4.168,-4.0412,-3.8174,-3.6517,-3.5318,-3.4664,-3.359,-3.2438,-3.2438,-3.2176,-3.1553,0.0,0.0,0.0,0.0,0.0,0.0,0.0,0.0,0.0,0.0,0.0,0.0,0.0,0.0,0.0,0.0,0.0,0.0,0.0,0.0,0.0,-2.2865,-2.4845,-2.6775,-2.8699,-3.0881,-3.2304,-3.2918,-3.6703,-3.9163,-4.0414,-4.2528,-4.4105,-4.5199,-4.4429,-4.4403,-4.491,-4.4067,-4.3683,-4.3693,-4.4511,-4.3752,-4.1989,-3.9976,0.0,0.0,0.0,0.0,0.0,0.0,0.0,0.0,0.0,-2.9143,-3.0214,-3.3031,-3.4234,-3.617,-4.3115,-4.6769,-4.9759,-5.4495,-5.6295,-5.6635,-5.5619,-5.4516,-5.2422,-4.8017,-4.5247,-4.3346,0.0,0.0,-4.2965,-4.8172,-5.0237,-5.2693,-5.6933,-5.8312,-5.8719,0.0,0.0,0.0,0.0,0.0,0.0,-5.1845,0.0,-5.1262,-5.0397,-4.9213,-4.8202,-4.7294,-4.6821,-4.703,-4.7904,-4.8255,-4.8871,-4.9743,-4.8647,-4.7968,-4.7571,-4.686,-4.5394,-4.3325,-4.2379,-4.0917,-3.9076,-3.7839,-3.6794,-3.591,-3.5114,-3.4301,-3.3458,-3.2413,-3.1965,-3.1532,0.0,0.0,0.0,0.0,0.0,0.0,0.0,0.0,0.0,0.0,0.0,0.0,0.0,0.0,0.0,0.0,0.0,0.0,0.0,0.0,0.0,0.0,0.0,0.0,0.0,0.0,0.0,0.0,0.0,-3.4914,-3.4502,-3.6113,-3.6516,-3.5882,-3.5099,-3.5258,-3.622,-3.7848,-3.9049,-4.0092,0.0,-4.1283,-3.9431,0.0,0.0,0.0,0.0,0.0,0.0,0.0,0.0,0.0,0.0,-3.5846,-3.6842,-4.1229,-4.3095,-4.4935,-5.041,-5.3683,-5.5973,-5.773,-5.8276,-5.7796,-5.5551,-5.2788,-4.9466,-4.5134,-4.0429,-3.7137,0.0,0.0,0.0,-4.5621,-5.006,0.0,-5.8798,-6.1093,0.0,0.0,0.0,-5.8192,-5.6242,-5.5478,0.0,0.0,-5.1755,-5.0445,-5.0009,-4.879,-4.7764,-4.7019,-4.6379,-4.6591,-4.7664,-4.7884,-4.829,-4.8981,-4.7765,-4.6929,-4.6426,-4.6214,-4.5167,-4.3484,-4.2463,-4.1173,-3.9713,-3.8315,-3.7028,-3.599,-3.5965,-3.4538,-3.2413,-3.2661,-3.1622,-2.9992,0.0,0.0,0.0,0.0,0.0,0.0,0.0,0.0,0.0,0.0,0.0,0.0,0.0,0.0,0.0,0.0,0.0,0.0,0.0,0.0,0.0,0.0,0.0,0.0,0.0,0.0,0.0,0.0,0.0,0.0,0.0,-3.0585,-3.1243,-3.0474,-3.0234,-3.0413,-3.0983,-3.219,0.0,0.0,0.0,0.0,0.0,0.0,0.0,0.0,0.0,0.0,0.0,0.0,0.0,-3.7852,-4.0809,-4.1927,-4.3083,-4.7816,0.0,-5.0699,-5.5301,-5.7733,-5.9155,-5.9807,-5.9345,-5.7616,-5.3497,-5.0342,-4.6523,-4.0242,-3.5993,0.0,0.0,0.0,0.0,0.0,0.0,0.0,-5.8295,-6.1319,-6.2657,0.0,-6.1605,0.0,-5.834,-5.7557,-5.6478,0.0,-5.2473,-5.079,-4.9836,-4.8164,-4.6959,-4.6299,-4.5947,-4.6356,-4.7734,-4.7539,-4.7814,-4.8413,-4.7203,-4.6442,-4.5985,-4.5697,-4.4752,-4.3242,0.0,-4.0679,-3.9422,-3.7853,-3.6822,-3.6191,-3.6058,-3.4964,-3.3407,-3.2546,-3.1405,-2.9933,0.0,0.0,0.0,0.0,0.0,0.0,0.0,0.0,0.0,0.0,0.0,0.0,0.0,0.0,0.0,0.0,0.0,0.0,0.0,0.0,0.0,0.0,0.0,0.0,0.0,0.0,0.0,0.0,0.0,0.0,0.0,0.0,0.0,0.0,0.0,0.0,0.0,0.0,0.0,0.0,0.0,0.0,0.0,0.0,0.0,0.0,0.0,0.0,0.0,0.0,-4.1006,-4.2658,-4.6299,-4.8002,-4.9484,-5.3718,-5.4591,-5.499,-5.8826,-6.0122,-6.0501,-6.0932,-5.9503,-5.6417,-5.0651,-4.7353,-4.315,-3.4952,0.0,-3.1053,-3.0882,0.0,-3.5289,-4.192,0.0,-5.0879,-5.7078,-6.0416,-6.2503,-6.328,-6.3585,-6.2832,-6.0608,-5.9488,-5.785,-5.5375,-5.3444,-5.1556,-4.9756,-4.7538,-4.606,-4.5398,-4.5504,-4.6284,-4.7734,-4.7204,-4.7247,-4.789,-4.67,-4.6001,-4.5785,-4.5184,-4.4172,-4.2788,0.0,0.0,-3.8744,-3.7023,-3.6312,-3.6232,-3.5467,-3.5046,-3.4541,-3.193,-3.0833,-3.0212,0.0,0.0,0.0,0.0,0.0,0.0,0.0,0.0,0.0,0.0,0.0,0.0,0.0,0.0,0.0,0.0,0.0,0.0,0.0,0.0,0.0,0.0,0.0,0.0,0.0,0.0,0.0,0.0,0.0,0.0,0.0,0.0,0.0,0.0,0.0,0.0,0.0,0.0,0.0,0.0,0.0,0.0,0.0,0.0,0.0,0.0,0.0,0.0,0.0,0.0,-4.4822,-4.8127,-5.2994,-5.5573,-5.7392,-6.0554,-6.0896,-6.0649,-6.2382,-6.2364,-6.1678,-6.0974,-5.7893,-5.3793,-4.9108,-4.367,0.0,0.0,0.0,-2.846,-3.0255,-3.2054,0.0,-4.3373,0.0,0.0,0.0,0.0,-6.2636,0.0,0.0,0.0,0.0,0.0,0.0,0.0,0.0,0.0,-4.9463,-4.704,-4.5502,-4.4847,-4.5475,-4.6195,-4.7076,-4.6613,-4.6508,-4.681,-4.5661,-4.5008,-4.4858,-4.4312,-4.3486,-4.2404,-4.0945,0.0,-3.8744,-3.6851,-3.6045,-3.5951,-3.4511,-3.3212,-3.2005,-3.0366,-2.8896,-2.7547,0.0,0.0,0.0,0.0,0.0,0.0,0.0,0.0,0.0,0.0,0.0,0.0,0.0,0.0,0.0,0.0,0.0,0.0,0.0,0.0,0.0,0.0,0.0,0.0,0.0,0.0,0.0,0.0,0.0,0.0,0.0,0.0,0.0,0.0,0.0,0.0,0.0,0.0,0.0,0.0,0.0,0.0,0.0,0.0,0.0,0.0,0.0,0.0,0.0,0.0,-4.3694,-4.8463,-5.5417,-5.8745,-6.0181,-6.0498,-6.2089,-6.3395,-6.188,-6.2705,-6.3597,-6.2047,-5.8165,-5.305,-4.6794,0.0,0.0,0.0,0.0,-2.7321,-2.9735,0.0,0.0,0.0,0.0,0.0,0.0,0.0,0.0,0.0,0.0,0.0,0.0,0.0,0.0,0.0,0.0,0.0,-4.8773,-4.6287,-4.4865,-4.4583,-4.5384,-4.6195,-4.6916,-4.6199,-4.6108,-4.6429,-4.5079,-4.4435,-4.4419,-4.3864,-4.3135,-4.2237,-4.0792,0.0,-3.8274,-3.6757,-3.5559,-3.4498,-3.3661,-3.2513,-3.1168,-2.9362,-2.8175,-2.7294,0.0,0.0,0.0,0.0,0.0,0.0,0.0,0.0,0.0,0.0,0.0,0.0,0.0,0.0,0.0,0.0,0.0,0.0,0.0,0.0,0.0,0.0,0.0,0.0,0.0,0.0,0.0,0.0,0.0,0.0,0.0,0.0,0.0,0.0,0.0,0.0,0.0,0.0,0.0,0.0,0.0,0.0,0.0,0.0,0.0,0.0,0.0,0.0,0.0,0.0,-4.0994,-4.591,-5.3366,-5.7421,-5.9281,-5.878,-6.1459,-6.4125,-6.2076,-6.3689,-6.5459,-6.3264,-5.8702,-5.2693,-4.4931,-3.9672,0.0,0.0,-2.6653,-2.6971,-2.9435,0.0,0.0,0.0,0.0,0.0,0.0,0.0,0.0,0.0,0.0,0.0,0.0,0.0,0.0,0.0,0.0,0.0,-4.758,-4.5531,-4.4537,-4.4583,-4.5461,-4.627,-4.6916,-4.6115,-4.5864,-4.6092,-4.461,-4.3895,-4.405,-4.3329,-4.2659,-4.2097,-4.0359,0.0,0.0,-3.6464,-3.4945,-3.3492,-3.3066,-3.2091,-3.0791,-2.8661,-2.7711,-2.7305,0.0,0.0,0.0,0.0,0.0,0.0,0.0,0.0,0.0,0.0,0.0,0.0,0.0,0.0,0.0,0.0,0.0,0.0,0.0,0.0,0.0,0.0,0.0,0.0,0.0,0.0,0.0,0.0,0.0,0.0,0.0,0.0,0.0,0.0,0.0,0.0,0.0,0.0,0.0,0.0,0.0,0.0,0.0,0.0,0.0,0.0,0.0,0.0,0.0,0.0,0.0,-4.0765,-4.4608,-4.9171,-5.3984,-5.8444,0.0,0.0,-6.6847,-6.7616,-6.6546,-6.4111,-5.8388,-5.1577,-4.4673,0.0,0.0,-2.8273,-2.6905,-2.7282,-2.9428,-2.9266,0.0,0.0,0.0,0.0,0.0,0.0,0.0,0.0,0.0,0.0,0.0,0.0,0.0,0.0,0.0,0.0,0.0,-4.4983,-4.4864,-4.5003,-4.5958,-4.6609,-4.6916,-4.6297,-4.5879,-4.5671,-4.4118,-4.3409,-4.3329,-4.2348,-4.1771,-4.1616,-3.9187,0.0,0.0,-3.5522,-3.445,-3.4134,-3.2907,-3.1665,-3.0279,-2.8243,-2.685,-2.592,0.0,0.0,0.0,0.0,0.0,0.0,0.0,0.0,0.0,0.0,0.0,0.0,0.0,0.0,0.0,0.0,0.0,0.0,0.0,0.0,0.0,0.0,0.0,0.0,0.0,0.0,0.0,0.0,0.0,0.0,0.0,0.0,0.0,0.0,0.0,0.0,0.0,0.0,0.0,0.0,0.0,0.0,0.0,0.0,0.0,0.0,0.0,0.0,0.0,0.0,0.0,0.0,-3.5707,-3.8059,0.0,0.0,-5.4126,-6.0154,-5.9822,-6.452,-6.8717,-6.5411,-5.9578,-5.2621,-4.5007,0.0,-3.2737,-2.7691,-2.6369,-2.6588,-2.8186,-2.8192,-2.9382,0.0,0.0,0.0,0.0,0.0,0.0,0.0,0.0,0.0,0.0,0.0,0.0,0.0,0.0,0.0,0.0,-4.5981,-4.5734,-4.5747,-4.6711,-4.7055,-4.6696,-4.6117,-4.5438,-4.4758,-4.3683,-4.2915,-4.2496,-4.1937,-4.1353,-4.0546,-3.8913,0.0,0.0,-3.5148,-3.3455,-3.1728,-3.1021,-2.9681,-2.8025,-2.7194,-2.6235,-2.54,0.0,0.0,0.0,0.0,0.0,0.0,0.0,0.0,0.0,0.0,0.0,0.0,0.0,0.0,0.0,0.0,0.0,0.0,0.0,0.0,0.0,0.0,0.0,0.0,0.0,0.0,0.0,0.0,0.0,0.0,0.0,0.0,0.0,0.0,0.0,0.0,0.0,0.0,0.0,0.0,0.0,0.0,0.0,0.0,0.0,0.0,0.0,0.0,0.0,0.0,0.0,0.0,0.0,0.0,0.0,0.0,-4.7356,-5.4829,-5.5356,-6.1493,-6.7321,-6.5404,-5.9601,-5.2331,0.0,0.0,-3.1619,-2.7316,-2.605,-2.6101,-2.7395,-2.7588,-2.8288,0.0,0.0,0.0,0.0,0.0,0.0,0.0,0.0,0.0,0.0,0.0,0.0,0.0,0.0,0.0,0.0,-4.7459,-4.6827,-4.6372,-4.7332,-4.7371,-4.6441,-4.5777,-4.5122,-4.4302,-4.3195,-4.2401,-4.1908,-4.132,-4.0492,-3.9417,0.0,0.0,0.0,-3.4546,-3.2822,-3.0598,-3.0226,-2.8674,-2.6837,-2.6417,-2.5601,-2.4776,0.0,0.0,0.0,0.0,0.0,0.0,0.0,0.0,0.0,0.0,0.0,0.0,0.0,0.0,0.0,0.0,0.0,0.0,0.0,0.0,0.0,0.0,0.0,0.0,0.0,0.0,0.0,0.0,0.0,0.0,0.0,0.0,0.0,0.0,0.0,0.0,0.0,0.0,0.0,0.0,0.0,0.0,0.0,0.0,0.0,0.0,0.0,0.0,0.0,0.0,0.0,0.0,0.0,0.0,0.0,0.0,-4.1297,-4.5618,-5.6726,-6.0075,-6.1013,-6.3466,-5.7697,-4.9756,0.0,0.0,-2.9815,-2.7216,-2.6139,-2.6098,-2.7442,-2.7559,-2.7975,-2.9715,0.0,0.0,0.0,0.0,0.0,0.0,0.0,0.0,0.0,0.0,0.0,0.0,0.0,0.0,0.0,-4.9047,-4.826,-4.6674,-4.7851,-4.7727,-4.591,-4.5323,-4.4735,-4.4302,-4.2509,-4.1748,-4.1673,-4.0224,-3.9084,0.0,0.0,0.0,0.0,-3.3553,-3.2711,-3.1889,-3.0866,-2.9365,-2.7532,-2.6069,-2.4746,-2.373,0.0,0.0,0.0,0.0,0.0,0.0,0.0,0.0,0.0,0.0,0.0,0.0,0.0,0.0,0.0,0.0,0.0,0.0,0.0,0.0,0.0,0.0,0.0,0.0,0.0,0.0,0.0,0.0,0.0,0.0,0.0,0.0,0.0,0.0,0.0,0.0,0.0,0.0,0.0,0.0,0.0,0.0,0.0,0.0,0.0,0.0,0.0,0.0,0.0,0.0,0.0,0.0,0.0,0.0,0.0,0.0,0.0,0.0,-4.6268,-5.0796,-5.4224,-5.3107,-4.9046,-4.3994,-3.8695,0.0,-2.9711,-2.6659,-2.5758,-2.5762,-2.6584,-2.6665,-2.7206,-2.9075,-2.958,0.0,0.0,0.0,0.0,0.0,0.0,0.0,0.0,0.0,0.0,0.0,0.0,0.0,0.0,-4.9379,-4.8559,-4.7293,-4.7835,-4.7296,-4.5532,-4.516,-4.4493,-4.3373,-4.2394,-4.1338,-4.0391,-3.9436,0.0,0.0,0.0,0.0,0.0,-3.1695,-2.9973,-2.8214,-2.7446,-2.6246,-2.4993,-2.4816,-2.4137,-2.3371,0.0,0.0,0.0,0.0,0.0,0.0,0.0,0.0,0.0,0.0,0.0,0.0,0.0,0.0,0.0,0.0,0.0,0.0,0.0,0.0,0.0,0.0,0.0,0.0,0.0,0.0,0.0,0.0,0.0,0.0,0.0,0.0,0.0,0.0,0.0,0.0,0.0,0.0,0.0,0.0,0.0,0.0,-2.7857,0.0,0.0,0.0,0.0,0.0,0.0,0.0,0.0,0.0,0.0,0.0,0.0,0.0,-3.3518,0.0,0.0,-4.3866,-4.6983,-4.6638,-4.3544,0.0,0.0,0.0,-2.8262,-2.6147,-2.5422,-2.5353,-2.5973,-2.6275,-2.6866,-2.8164,0.0,0.0,0.0,0.0,0.0,0.0,0.0,0.0,0.0,0.0,0.0,0.0,0.0,0.0,0.0,0.0,-4.862,-4.7088,-4.751,-4.6825,-4.4923,-4.4415,-4.3611,-4.2639,-4.1405,-4.0373,-3.9409,-3.842,0.0,0.0,0.0,0.0,0.0,-3.0472,-2.8833,-2.6662,-2.6288,-2.5098,-2.3765,-2.3757,-2.3304,-2.2792,0.0,0.0,0.0,0.0,0.0,0.0,0.0,0.0,0.0,0.0,0.0,0.0,0.0,0.0,0.0,0.0,0.0,0.0,0.0,0.0,0.0,0.0,0.0,0.0,0.0,0.0,0.0,0.0,-1.6985,-1.7363,-1.7983,0.0,0.0,0.0,0.0,0.0,0.0,0.0,0.0,0.0,0.0,0.0,0.0,0.0,0.0,0.0,0.0,0.0,0.0,0.0,0.0,0.0,0.0,0.0,0.0,0.0,0.0,0.0,0.0,-3.8773,0.0,0.0,0.0,0.0,0.0,0.0,0.0,-2.5684,-2.5185,-2.4986,-2.5608,-2.6334,-2.686,-2.7226,0.0,0.0,0.0,0.0,0.0,0.0,0.0,0.0,0.0,0.0,0.0,0.0,0.0,0.0,0.0,0.0,-4.8402,-4.6171,-4.6609,-4.6021,-4.4297,-4.3136,-4.2419,-4.1967,-3.9749,-3.8644,-3.8475,-3.703,0.0,0.0,0.0,0.0,0.0,-2.977,-2.876,-2.6853,-2.6799,-2.555,-2.3701,-2.3,-2.2423,-2.2097,0.0,0.0,0.0,0.0,0.0,0.0,0.0,0.0,0.0,0.0,0.0,0.0,0.0,0.0,0.0,0.0,0.0,0.0,0.0,0.0,0.0,0.0,0.0,0.0,0.0,0.0,0.0,-1.7409,-1.826,-1.8709,-1.8812,-1.959,0.0,0.0,0.0,0.0,0.0,0.0,0.0,0.0,0.0,0.0,0.0,0.0,0.0,0.0,-2.8164,-2.8376,0.0,0.0,0.0,0.0,0.0,0.0,0.0,0.0,-2.9697,-2.9631,-3.1556,0.0,-3.1684,-3.1872,-3.0861,-2.9515,0.0,0.0,0.0,0.0,0.0,-2.5086,-2.6078,-2.6375,-2.6809,0.0,0.0,0.0,0.0,0.0,0.0,0.0,0.0,0.0,0.0,0.0,0.0,0.0,0.0,0.0,0.0,0.0,-4.7324,-4.5512,-4.4144,-4.3684,-4.4065,-4.2455,-4.1295,-4.057,-3.8297,-3.6872,-3.6058,-3.4464,0.0,0.0,0.0,0.0,-2.7855,-2.8071,-2.7223,-2.577,-2.5422,-2.4781,-2.3921,-2.3095,-2.2615,-2.2353,0.0,0.0,0.0,0.0,0.0,0.0,0.0,0.0,0.0,0.0,0.0,0.0,0.0,0.0,0.0,0.0,0.0,0.0,0.0,0.0,0.0,0.0,0.0,0.0,0.0,0.0,0.0,0.0,0.0,-1.9375,0.0,0.0,0.0,0.0,0.0,0.0,0.0,0.0,0.0,0.0,-2.588,0.0,0.0,0.0,0.0,0.0,-2.7699,-2.7655,0.0,-2.7485,-2.7982,-2.8674,0.0,0.0,0.0,0.0,-2.93,-2.8852,-2.9094,-2.9008,-2.8699,-2.7982,-2.7552,-2.7166,-2.6487,0.0,0.0,0.0,0.0,-2.5133,-2.5984,0.0,0.0,0.0,0.0,0.0,0.0,0.0,0.0,0.0,0.0,0.0,0.0,0.0,0.0,0.0,0.0,0.0,0.0,0.0,-4.6161,-4.3838,-4.2515,-4.2304,-4.3062,-4.1174,-3.9946,-3.9197,-3.7373,-3.5785,-3.4468,-3.2984,-3.1796,0.0,0.0,0.0,-2.7345,-2.7346,-2.6653,-2.5711,-2.5243,-2.4648,-2.3877,-2.3309,-2.2969,-2.2706,0.0,0.0,0.0,0.0,0.0,0.0,0.0,0.0,0.0,0.0,0.0,0.0,0.0,0.0,0.0,0.0,0.0,0.0,0.0,0.0,0.0,0.0,0.0,0.0,0.0,0.0,0.0,0.0,0.0,0.0,0.0,0.0,0.0,0.0,0.0,0.0,0.0,0.0,0.0,0.0,-2.6412,0.0,0.0,0.0,0.0,0.0,0.0,0.0,0.0,-2.6849,-2.7179,-2.7514,-2.7791,0.0,0.0,0.0,0.0,0.0,-2.8474,-2.8432,-2.8246,-2.7795,-2.7417,-2.7021,-2.6487,0.0,0.0,0.0,0.0,0.0,0.0,0.0,0.0,0.0,0.0,0.0,0.0,0.0,0.0,0.0,0.0,0.0,0.0,0.0,0.0,0.0,0.0,0.0,0.0,0.0,0.0,-4.1644,-4.0914,-4.0785,-4.1055,-3.9521,-3.8346,-3.7718,-3.6099,-3.4472,-3.2907,-3.1843,-3.0627,0.0,0.0,0.0,-2.7217,-2.6975,-2.6539,-2.613,-2.5768,-2.502,-2.409,-2.3841,-2.358,-2.3309,0.0,0.0,0.0,0.0,0.0,0.0,0.0,0.0,0.0,0.0,0.0,0.0,0.0,0.0,0.0,0.0,0.0,0.0,0.0,0.0,0.0,0.0,0.0,0.0,0.0,0.0,0.0,0.0,0.0,0.0,-2.1228,-2.172,-2.136,0.0,0.0,0.0,-2.1015,-2.1583,-2.2764,-2.4321,-2.4978,0.0,0.0,0.0,0.0,0.0,0.0,0.0,0.0,-2.531,-2.642,-2.7903,-2.647,0.0,0.0,0.0,0.0,0.0,-2.8304,-2.8327,-2.8191,-2.8071,-2.7777,-2.7352,-2.6774,0.0,0.0,0.0,0.0,0.0,0.0,0.0,0.0,0.0,0.0,0.0,0.0,0.0,0.0,0.0,0.0,0.0,0.0,0.0,0.0,0.0,0.0,0.0,0.0,0.0,0.0,-3.9627,-3.7834,-3.6894,-3.6892,-3.7444,-3.7101,-3.579,-3.3392,-3.1717,-3.0589,-2.9201,-2.8452,0.0,0.0,-2.5986,-2.591,-2.6401,-2.6512,-2.6434,-2.6351,-2.6113,-2.5768,-2.4935,-2.4509,-2.4327,0.0,0.0,0.0,0.0,0.0,0.0,0.0,0.0,0.0,0.0,0.0,0.0,0.0,0.0,0.0,0.0,0.0,0.0,0.0,0.0,0.0,0.0,0.0,0.0,0.0,0.0,0.0,0.0,0.0,-2.0252,-2.0822,-2.1284,-2.1263,-2.0898,0.0,0.0,-2.1714,-2.2073,-2.3006,-2.4347,0.0,0.0,0.0,0.0,0.0,0.0,0.0,0.0,0.0,0.0,-2.5361,-2.6205,-2.5709,0.0,0.0,0.0,0.0,0.0,-2.7543,-2.7637,-2.7817,-2.8675,-2.8146,-2.7379,-2.7318,0.0,0.0,0.0,0.0,0.0,0.0,0.0,0.0,0.0,0.0,0.0,0.0,0.0,0.0,0.0,0.0,0.0,0.0,0.0,0.0,0.0,0.0,0.0,0.0,0.0,0.0,0.0,-3.5861,-3.4931,-3.4796,-3.4838,-3.4486,-3.3741,-3.2073,-3.0636,-2.9225,-2.813,-2.7447,-2.7103,0.0,-2.6063,-2.6456,-2.6302,-2.6456,-2.6857,-2.6207,-2.6124,-2.6185,-2.5863,-2.5768,-2.583,0.0,0.0,0.0,0.0,0.0,0.0,0.0,0.0,0.0,0.0,0.0,0.0,0.0,0.0,0.0,0.0,0.0,0.0,0.0,0.0,0.0,0.0,0.0,0.0,0.0,0.0,0.0,-1.9369,-1.9973,-2.0387,-2.0543,-2.0985,-2.1295,0.0,0.0,0.0,-2.2338,-2.2668,-2.3266,-2.4083,0.0,0.0,0.0,0.0,0.0,0.0,0.0,0.0,0.0,0.0,0.0,0.0,0.0,0.0,0.0,-2.6107,-2.6082,-2.5979,-2.6641,-2.6931,-2.7335,-2.8596,-2.808,-2.7528,-2.8537,0.0,0.0,0.0,0.0,0.0,0.0,0.0,0.0,0.0,0.0,0.0,0.0,0.0,0.0,0.0,0.0,0.0,0.0,0.0,0.0,0.0,0.0,0.0,0.0,0.0,0.0,0.0,-3.4089,-3.3306,-3.3074,-3.228,-3.1861,-3.1885,-3.1029,-2.9816,-2.8268,-2.7508,-2.6886,-2.6445,-2.6052,-2.6302,-2.6857,-2.6146,-2.6302,-2.6787,-2.5968,-2.5884,-2.6279,-2.661,-2.6917,-2.7232,0.0,0.0,0.0,0.0,0.0,0.0,0.0,0.0,0.0,0.0,0.0,0.0,0.0,0.0,0.0,0.0,0.0,0.0,0.0,0.0,0.0,0.0,0.0,0.0,0.0,-1.8481,-1.8869,-2.0112,-1.9987,-2.0368,-2.123,-2.194,-2.2116,-2.1781,0.0,0.0,-2.2405,-2.2685,-2.2936,-2.3207,-2.3454,0.0,0.0,0.0,0.0,0.0,0.0,0.0,0.0,0.0,0.0,0.0,0.0,0.0,-2.5363,-2.6103,-2.5679,-2.5144,-2.5799,-2.6443,-2.6916,-2.6919,-2.7145,0.0,-3.1061,-3.0432,0.0,0.0,0.0,0.0,0.0,0.0,0.0,0.0,0.0,0.0,0.0,0.0,0.0,0.0,0.0,0.0,0.0,0.0,0.0,0.0,0.0,0.0,0.0,0.0,0.0,0.0,0.0,-3.1578,-3.1083,-2.9949,-2.9858,-3.0691,-2.9618,-2.848,-2.7324,-2.6738,-2.6561,-2.6445,-2.6052,-2.5895,-2.5979,-2.5895,-2.5895,-2.5979,-2.5895,-2.6135,-2.6528,-2.7185,-2.7834,-2.8383,0.0,0.0,0.0,0.0,0.0,0.0,0.0,0.0,0.0,0.0,0.0,0.0,0.0,0.0,0.0,0.0,0.0,0.0,0.0,0.0,0.0,0.0,0.0,-1.7932,-1.8463,-1.8841,-1.9696,-2.1011,-2.0682,-2.0719,-2.1119,-2.1615,0.0,0.0,0.0,0.0,-2.2366,-2.2542,-2.2738,-2.2919,-2.2995,-2.3052,0.0,0.0,0.0,0.0,0.0,0.0,0.0,0.0,-2.4487,-2.4614,0.0,0.0,-2.4444,-2.4668,-2.4406,-2.4175,-2.4908,-2.6136,-2.728,-2.7494,-2.8122,0.0,0.0,0.0,0.0,0.0,0.0,0.0,0.0,0.0,0.0,0.0,0.0,0.0,0.0,0.0,0.0,0.0,0.0,0.0,0.0,0.0,0.0,0.0,0.0,0.0,0.0,0.0,0.0,0.0,-3.1216,-3.0547,-3.0237,-2.9241,-2.8742,-2.8659,-2.8116,-2.7451,-2.6775,-2.629,-2.6135,-2.6135,-2.5979,-2.5895,-2.5895,-2.5895,-2.5895,-2.5979,-2.6456,-2.6869,-2.7267,-2.8155,-2.8803,-2.9378,0.0,0.0,0.0,0.0,0.0,0.0,0.0,0.0,0.0,0.0,0.0,0.0,0.0,0.0,0.0,0.0,0.0,0.0,0.0,0.0,0.0,0.0,0.0,-1.7876,-1.8837,-1.9309,-1.9999,-2.0952,-2.1004,-2.1055,-2.1134,0.0,0.0,0.0,0.0,0.0,0.0,0.0,-2.2373,-2.2721,-2.2505,-2.2412,0.0,0.0,0.0,0.0,0.0,0.0,0.0,0.0,0.0,0.0,0.0,0.0,0.0,0.0,-2.3965,-2.3886,-2.4437,-2.5752,-2.7151,0.0,0.0,0.0,0.0,0.0,0.0,0.0,0.0,0.0,0.0,0.0,0.0,0.0,0.0,0.0,0.0,0.0,0.0,0.0,0.0,0.0,0.0,0.0,0.0,0.0,0.0,0.0,0.0,0.0,0.0,0.0,-3.042,-2.9677,-2.9378,-2.8749,-2.8007,-2.7185,-2.7021,-2.6693,-2.629,-2.6063,-2.5895,-2.5895,-2.5895,-2.5895,-2.5895,-2.5895,-2.5895,-2.5979,-2.6857,-2.7348,-2.7672,-2.8803,-2.9521,-3.0088,0.0,0.0,0.0,0.0,0.0,0.0,0.0,0.0,0.0,0.0,0.0,0.0,0.0,0.0,0.0,0.0,0.0,0.0,0.0,0.0,0.0,0.0,0.0,-1.7894,-2.0243,-1.9905,-1.9688,-1.9704,-2.0782,-2.134,-2.1417,0.0,0.0,0.0,0.0,0.0,0.0,0.0,-2.1771,-2.2537,-2.1884,-2.2173,-2.2915,0.0,0.0,0.0,0.0,0.0,0.0,0.0,-2.3939,0.0,0.0,0.0,0.0,0.0,-2.4659,-2.4421,-2.4573,-2.5285,-2.6419,0.0,0.0,0.0,0.0,0.0,0.0,0.0,0.0,0.0,0.0,0.0,0.0,0.0,0.0,0.0,0.0,0.0,0.0,0.0,0.0,0.0,0.0,0.0,0.0,0.0,0.0,0.0,0.0,0.0,0.0,0.0,-2.9664,-2.9094,-2.8462,-2.8327,-2.7603,-2.6517,-2.6268,-2.6113,-2.5895,-2.5895,-2.5895,-2.5895,-2.5895,-2.5895,-2.5895,-2.5895,-2.5895,-2.5979,-2.6857,-2.7348,-2.7684,-2.8949,-2.9819,-3.0444,0.0,0.0,0.0,0.0,0.0,0.0,0.0,0.0,0.0,0.0,0.0,0.0,0.0,0.0,0.0,0.0,0.0,0.0,0.0,0.0,0.0,0.0,0.0,0.0,0.0,0.0,-1.9796,-2.0461,-2.1023,-2.1277,0.0,0.0,0.0,-2.1133,0.0,0.0,0.0,0.0,0.0,-2.1867,-2.1524,-2.1686,-2.2126,0.0,0.0,0.0,0.0,0.0,0.0,0.0,0.0,0.0,0.0,0.0,0.0,-2.4037,-2.3947,-2.3944,-2.4069,-2.5401,0.0,0.0,0.0,0.0,0.0,0.0,0.0,0.0,0.0,0.0,0.0,0.0,0.0,0.0,0.0,0.0,0.0,0.0,0.0,0.0,0.0,0.0,0.0,0.0,0.0,0.0,0.0,0.0,0.0,0.0,0.0,0.0,-2.8895,-2.8486,-2.7834,-2.7267,-2.6764,-2.6268,-2.5431,-2.5214,-2.5644,-2.5644,-2.5559,-2.538,-2.5644,-2.5644,-2.5728,-2.5812,-2.5895,-2.5979,-2.6857,-2.7418,-2.7891,-2.9328,-3.0126,-3.0685,0.0,0.0,0.0,0.0,0.0,0.0,0.0,0.0,0.0,0.0,0.0,0.0,0.0,0.0,0.0,0.0,0.0,0.0,0.0,0.0,0.0,0.0,0.0,0.0,0.0,-1.9414,-2.0122,0.0,0.0,0.0,0.0,0.0,0.0,-2.1123,0.0,-2.0761,0.0,0.0,-2.0441,-2.1447,-2.1063,-2.1454,-2.2206,0.0,0.0,0.0,0.0,0.0,0.0,0.0,0.0,0.0,0.0,0.0,0.0,-2.3549,-2.3415,-2.3481,-2.4083,0.0,0.0,0.0,0.0,0.0,0.0,0.0,0.0,0.0,0.0,0.0,0.0,0.0,0.0,0.0,0.0,0.0,0.0,0.0,0.0,0.0,0.0,0.0,0.0,0.0,0.0,0.0,0.0,0.0,0.0,0.0,0.0,0.0,-2.8099,-2.7603,-2.7021,-2.6337,-2.5926,-2.5768,-2.4612,-2.4395,-2.5029,-2.4909,-2.5016,-2.52,-2.538,-2.5464,-2.5464,-2.5728,-2.5812,-2.5874,-2.656,-2.7117,-2.7652,-2.9148,-3.0022,-3.0598,0.0,0.0,0.0,0.0,0.0,0.0,0.0,0.0,0.0,0.0,0.0,0.0,0.0,0.0,0.0,0.0,0.0,0.0,0.0,0.0,0.0,0.0,0.0,0.0,0.0,0.0,0.0,0.0,0.0,0.0,0.0,0.0,-2.0548,-2.1413,0.0,-2.095,0.0,0.0,-2.0142,-2.1156,-2.0525,-2.1342,-2.2807,-2.2054,0.0,0.0,0.0,0.0,0.0,0.0,0.0,0.0,0.0,0.0,-2.3182,-2.3161,-2.3035,-2.315,0.0,0.0,0.0,0.0,0.0,0.0,0.0,0.0,0.0,0.0,0.0,0.0,0.0,0.0,0.0,0.0,0.0,0.0,0.0,0.0,0.0,0.0,0.0,0.0,0.0,0.0,0.0,0.0,0.0,0.0,0.0,0.0,0.0,0.0,-2.7151,-2.6498,-2.597,-2.5306,-2.4988,0.0,-2.3853,-2.3604,-2.4043,-2.3826,-2.4253,-2.5072,-2.5115,-2.5136,-2.5136,-2.5454,-2.5538,-2.5619,-2.6129,-2.663,-2.7132,-2.8649,-2.9571,-3.0249,0.0,0.0,0.0,0.0,0.0,0.0,0.0,0.0,0.0,0.0,0.0,0.0,0.0,0.0,0.0,0.0,0.0,0.0,0.0,0.0,0.0,0.0,0.0,0.0,0.0,0.0,0.0,0.0,0.0,0.0,0.0,0.0,0.0,-2.0175,0.0,-1.9276,0.0,0.0,-1.8892,-2.0424,-2.0229,-2.1191,-2.2721,-2.2565,-2.2599,0.0,0.0,0.0,0.0,0.0,0.0,0.0,-2.3665,-2.3682,-2.3623,-2.3041,-2.2864,-2.3044,0.0,-2.4831,0.0,0.0,0.0,0.0,0.0,0.0,0.0,0.0,0.0,0.0,0.0,0.0,0.0,0.0,0.0,0.0,0.0,0.0,0.0,0.0,0.0,0.0,0.0,0.0,0.0,0.0,0.0,0.0,0.0,0.0,0.0,-2.5543,-2.5306,-2.4977,-2.4325,-2.3826,-2.3664,0.0,-2.2664,-2.2493,-2.293,-2.3387,-2.3682,-2.3903,-2.4272,-2.443,-2.4461,-2.5241,-2.5333,-2.5049,-2.5994,-2.6422,-2.6647,-2.8725,-2.9706,-3.0322,0.0,0.0,0.0,0.0,0.0,0.0,0.0,0.0,0.0,0.0,0.0,0.0,0.0,0.0,0.0,0.0,0.0,0.0,0.0,0.0,0.0,0.0,0.0,0.0,0.0,0.0,0.0,0.0,0.0,0.0,0.0,0.0,0.0,-2.0321,0.0,-1.9113,0.0,0.0,-1.9043,-2.0128,-2.0433,-2.1403,-2.2685,-2.2632,-2.2685,-2.279,-2.2668,0.0,0.0,0.0,0.0,0.0,0.0,0.0,-2.2864,-2.2473,-2.2102,-2.2036,0.0,0.0,0.0,0.0,0.0,0.0,0.0,0.0,0.0,0.0,0.0,0.0,0.0,0.0,0.0,0.0,0.0,0.0,0.0,0.0,0.0,0.0,0.0,0.0,0.0,0.0,0.0,0.0,0.0,0.0,0.0,-2.6294,-2.5615,-2.4837,-2.4533,-2.4126,-2.3636,-2.3026,-2.2866,-2.3072,-2.2017,-2.1756,-2.2078,-2.2827,-2.307,-2.2884,-2.3512,-2.371,-2.3813,-2.4456,-2.4566,-2.439,-2.5329,-2.5784,-2.6103,-2.7923,-2.9014,-2.9732,0.0,0.0,0.0,0.0,0.0,0.0,0.0,0.0,0.0,0.0,0.0,0.0,0.0,0.0,0.0,0.0,0.0,0.0,0.0,0.0,0.0,0.0,0.0,0.0,0.0,0.0,0.0,0.0,0.0,0.0,0.0,0.0,0.0,-2.0938,0.0,0.0,0.0,0.0,0.0,-2.0018,-2.0689,-2.1637,-2.2605,-2.247,-2.2429,-2.2337,-2.2129,-2.1654,-2.1036,-2.0688,0.0,0.0,0.0,0.0,-2.1628,-2.1731,-2.1275,-2.0991,0.0,0.0,0.0,0.0,0.0,0.0,0.0,0.0,0.0,0.0,0.0,0.0,0.0,0.0,0.0,0.0,0.0,0.0,0.0,0.0,0.0,0.0,0.0,0.0,0.0,0.0,0.0,0.0,0.0,0.0,-2.6024,-2.5669,-2.5054,-2.4194,-2.3727,-2.3334,-2.3024,-2.2257,-2.2101,-2.239,-2.1403,-2.105,-2.1222,-2.2135,-2.2349,-2.2172,-2.2793,-2.307,-2.3161,-2.3636,-2.3775,-2.3896,-2.463,-2.5164,-2.5621,-2.6993,-2.8042,-2.8905,0.0,0.0,0.0,0.0,0.0,0.0,0.0,0.0,0.0,0.0,0.0,0.0,0.0,0.0,0.0,0.0,0.0,0.0,-1.5845,0.0,0.0,-1.8898,0.0,0.0,0.0,0.0,0.0,0.0,0.0,0.0,0.0,0.0,0.0,-2.1162,0.0,0.0,0.0,0.0,0.0,-1.9817,-2.0533,-2.1407,-2.2276,-2.2248,-2.1898,-2.1349,-2.1149,-2.0582,-1.9894,-1.9652,-1.9525,0.0,0.0,0.0,-2.0481,-2.1098,-2.115,-2.1147,0.0,0.0,0.0,0.0,0.0,0.0,0.0,0.0,0.0,0.0,0.0,0.0,0.0,0.0,0.0,0.0,0.0,0.0,0.0,0.0,0.0,0.0,0.0,0.0,0.0,0.0,0.0,0.0,0.0,0.0,-2.4798,-2.453,-2.3559,-2.1854,-2.2067,-2.1848,-2.1083,-2.0803,-2.0586,-2.0439,-2.0171,-1.9965,-2.0058,-2.0785,-2.1353,-2.1845,-2.2387,-2.2662,-2.293,-2.3578,-2.3899,-2.4051,-2.4646,-2.5078,-2.5468,-2.6843,-2.7659,-2.8164,0.0,0.0,0.0,0.0,0.0,0.0,0.0,0.0,0.0,0.0,0.0,0.0,0.0,0.0,0.0,-1.5047,-1.5708,-1.636,-1.7002,-1.7714,-1.8293,-1.8736,-1.8874,0.0,0.0,0.0,0.0,0.0,0.0,0.0,0.0,-1.9291,-1.9934,0.0,0.0,0.0,0.0,0.0,0.0,0.0,-2.0936,-2.1532,-2.1882,-2.1478,-2.1111,-2.0777,-2.0213,-1.9503,-1.8825,-1.8627,-1.8419,-1.8374,-1.9092,0.0,0.0,0.0,0.0,0.0,0.0,0.0,0.0,0.0,0.0,0.0,0.0,0.0,0.0,0.0,0.0,0.0,0.0,0.0,0.0,0.0,0.0,0.0,0.0,0.0,0.0,0.0,0.0,0.0,0.0,0.0,0.0,0.0,0.0,-2.5099,-2.4366,-2.3898,-2.2993,-2.1651,-2.1767,-2.1555,-2.0868,-2.0655,-2.0441,-2.0278,-1.99,-1.992,-2.0319,-2.0648,-2.0906,-2.1295,-2.1987,-2.2192,-2.2038,-2.2778,-2.2957,-2.2906,-2.3959,-2.4578,-2.4997,-2.6231,-2.7132,-2.7761,0.0,0.0,0.0,0.0,0.0,0.0,0.0,0.0,0.0,0.0,0.0,0.0,0.0,0.0,0.0,0.0,-1.6101,-1.6824,-1.776,-1.7882,-1.8095,-1.8478,-1.8567,-1.8276,0.0,0.0,0.0,0.0,0.0,0.0,-1.9369,-1.9131,-2.0057,0.0,-2.0839,0.0,0.0,0.0,0.0,0.0,0.0,0.0,0.0,0.0,-2.0623,-2.0352,-1.9682,-1.8933,-1.821,-1.8003,-1.7775,-1.771,-1.8469,-1.8887,0.0,0.0,0.0,0.0,0.0,0.0,0.0,0.0,0.0,0.0,0.0,0.0,0.0,0.0,0.0,0.0,0.0,0.0,0.0,0.0,0.0,0.0,0.0,0.0,0.0,0.0,0.0,0.0,0.0,0.0,0.0,0.0,0.0,-2.4469,-2.3907,-2.3467,-2.275,-2.1677,-2.1731,-2.1402,-2.0557,-2.0234,-2.0086,-2.0031,-1.9834,-2.0065,-2.0669,-2.0695,-2.0786,-2.0928,-2.1555,-2.1629,-2.1447,-2.2023,-2.224,-2.2148,-2.3351,-2.4053,-2.4578,-2.5388,-2.6208,-2.6866,0.0,0.0,0.0,0.0,0.0,0.0,0.0,0.0,0.0,0.0,0.0,0.0,0.0,-1.5969,-1.583,-1.631,-1.6375,-1.6664,-1.7201,-1.7543,-1.7801,-1.7922,-1.8123,0.0,-1.667,0.0,0.0,0.0,0.0,0.0,-1.8874,-1.9759,-2.0533,-2.1108,-2.028,-1.9733,-1.9431,0.0,0.0,0.0,0.0,0.0,0.0,0.0,0.0,0.0,0.0,0.0,-1.8269,-1.8145,-1.7941,-1.7887,-1.8515,-1.8638,-1.8718,0.0,0.0,0.0,0.0,0.0,0.0,0.0,0.0,0.0,0.0,0.0,0.0,0.0,0.0,0.0,0.0,0.0,0.0,0.0,0.0,0.0,0.0,0.0,0.0,0.0,0.0,0.0,0.0,0.0,0.0,0.0,0.0,-2.3435,-2.3079,-2.3143,-2.2624,-2.1273,-2.1644,-2.1048,-1.9338,-1.8625,-1.8552,-1.8967,-1.9503,-2.0083,-2.0596,-2.0731,-2.1006,-2.1241,-2.115,-2.1154,-2.1344,-2.1673,-2.2148,-2.2685,-2.3103,-2.3652,-2.4337,-2.4362,-2.466,-2.4946,0.0,0.0,0.0,0.0,0.0,0.0,0.0,0.0,0.0,0.0,0.0,0.0,0.0,-1.5842,-1.5893,-1.6106,-1.6443,-1.677,-1.7186,-1.7447,-1.7625,-1.776,-1.7975,-1.7441,-1.6127,-1.6195,0.0,0.0,0.0,-1.5761,-1.6648,-1.7483,-1.8167,-1.875,-1.9901,-2.0352,-2.0274,-2.0316,0.0,0.0,0.0,0.0,0.0,0.0,0.0,0.0,0.0,0.0,0.0,-1.7269,-1.7274,-1.767,-1.8016,-1.7834,-1.7621,0.0,0.0,0.0,0.0,0.0,0.0,0.0,0.0,0.0,0.0,0.0,0.0,0.0,0.0,0.0,0.0,0.0,0.0,0.0,0.0,0.0,0.0,0.0,0.0,0.0,0.0,0.0,0.0,0.0,0.0,0.0,0.0,0.0,-2.3147,-2.1885,-2.1113,-2.0816,-2.0669,-2.0223,-1.9437,-1.8517,-1.8338,-1.8732,-1.8187,-1.833,-1.9201,-1.9264,-1.9715,-2.0544,-2.0564,-2.0941,-2.152,-2.1979,-2.2116,-2.2122,-2.2787,-2.332,-2.3615,-2.3957,-2.4365,-2.4638,0.0,0.0,0.0,0.0,0.0,0.0,0.0,0.0,0.0,0.0,0.0,0.0,0.0,0.0,-1.578,-1.6001,-1.6349,-1.668,-1.7018,-1.724,-1.7406,-1.761,-1.7747,-1.7236,-1.6053,-1.5989,0.0,0.0,0.0,0.0,0.0,-1.6233,-1.6886,-1.7338,-1.9027,-1.9927,0.0,0.0,0.0,-1.9606,0.0,0.0,-1.9839,0.0,0.0,0.0,0.0,0.0,0.0,0.0,0.0,0.0,0.0,0.0,0.0,0.0,0.0,0.0,0.0,0.0,0.0,0.0,0.0,0.0,0.0,0.0,0.0,0.0,0.0,0.0,0.0,0.0,0.0,0.0,0.0,0.0,0.0,0.0,0.0,0.0,0.0,0.0,0.0,0.0,0.0,0.0,0.0,0.0,-2.2209,-2.0857,-2.0149,-2.0228,-1.95,-1.9089,-1.9028,-1.8002,-1.777,-1.8425,-1.7626,-1.7651,-1.8522,-1.839,-1.8841,-1.9668,-1.9918,-2.0432,-2.1217,-2.1719,-2.1604,-2.1231,-2.1918,-2.2418,-2.2724,-2.3077,-2.3524,-2.3963,0.0,0.0,0.0,0.0,0.0,0.0,0.0,0.0,0.0,0.0,0.0,0.0,0.0,0.0,0.0,-1.592,-1.6076,-1.6293,-1.6612,-1.6837,-1.7073,-1.7363,-1.735,-1.706,-1.6494,-1.5799,-1.521,0.0,0.0,0.0,0.0,0.0,-1.697,0.0,-1.7689,-1.8291,-1.8936,0.0,-1.9627,-1.8584,0.0,-1.9574,-1.9427,0.0,0.0,0.0,-1.82,-1.79,0.0,0.0,0.0,0.0,0.0,0.0,0.0,0.0,0.0,0.0,0.0,0.0,0.0,0.0,0.0,0.0,0.0,0.0,0.0,0.0,0.0,0.0,0.0,0.0,0.0,0.0,0.0,0.0,0.0,0.0,0.0,0.0,0.0,0.0,0.0,0.0,0.0,0.0,0.0,-2.0462,-2.0333,-2.015,-1.9867,-1.9364,-1.8373,-1.7835,-1.7959,-1.6863,-1.6863,-1.7948,-1.7948,-1.8211,-1.8715,-1.838,-1.8451,-1.8797,-1.9074,-1.9584,-2.0366,-2.0743,-2.057,-2.017,-2.0495,-2.0993,-2.1558,-2.1558,-2.2031,-2.269,0.0,0.0,0.0,0.0,0.0,0.0,0.0,0.0,0.0,0.0,0.0,0.0,0.0,-1.4743,-1.4642,-1.4504,-1.4775,-1.5107,-1.5393,-1.5753,-1.6233,-1.6723,-1.6395,-1.5911,-1.5337,-1.4814,-1.4287,0.0,0.0,0.0,0.0,0.0,0.0,0.0,-1.725,-1.772,-1.7868,-1.8565,0.0,0.0,-1.8631,-1.8522,0.0,0.0,0.0,0.0,0.0,-1.681,0.0,0.0,-1.6971,-1.7829,0.0,0.0,0.0,0.0,0.0,0.0,-1.7342,0.0,0.0,0.0,0.0,0.0,0.0,0.0,0.0,0.0,0.0,0.0,0.0,0.0,0.0,0.0,0.0,0.0,0.0,0.0,0.0,0.0,0.0,0.0,0.0,0.0,0.0,0.0,-2.0139,-1.9824,-2.0161,-1.9628,-1.8942,-1.8093,-1.7833,-1.7557,-1.7398,-1.6705,-1.6488,-1.6774,-1.6325,-1.6394,-1.683,-1.6839,-1.7294,-1.8118,-1.8283,-1.8441,-1.8773,-2.0147,-2.0602,-2.0495,-2.0553,-2.0935,-2.1464,-2.1464,-2.191,-2.2494,0.0,0.0,0.0,0.0,0.0,0.0,0.0,0.0,0.0,0.0,0.0,0.0,0.0,0.0,-1.4079,-1.3945,-1.4317,-1.466,-1.4955,-1.5355,-1.5844,-1.6337,-1.6123,-1.5799,-1.5458,-1.4989,-1.4538,-1.4138,0.0,0.0,0.0,0.0,0.0,0.0,0.0,0.0,0.0,0.0,0.0,0.0,-1.8104,0.0,0.0,-1.7267,-1.686,0.0,0.0,0.0,-1.6696,-1.5743,-1.6378,0.0,0.0,0.0,0.0,0.0,0.0,0.0,0.0,0.0,0.0,0.0,0.0,0.0,0.0,-1.7613,0.0,0.0,0.0,0.0,0.0,0.0,0.0,0.0,0.0,0.0,0.0,0.0,0.0,0.0,0.0,0.0,0.0,0.0,0.0,-2.0085,-1.9299,-1.8988,-1.9187,-1.8787,-1.8183,-1.7242,-1.7211,-1.7083,-1.6821,-1.6255,-1.6026,-1.6301,-1.569,-1.5547,-1.5781,-1.5868,-1.6262,-1.6819,-1.717,-1.7273,-1.741,-1.8669,-1.9159,-1.917,-1.917,-1.9483,-2.0029,-2.019,-2.0644,-2.116,0.0,0.0,0.0,0.0,0.0,0.0,0.0,0.0,0.0,0.0,0.0,0.0,0.0,0.0,0.0,0.0,-1.4171,-1.4495,-1.4801,-1.5147,-1.5536,-1.5928,-1.596,-1.596,-1.5971,-1.547,-1.5135,-1.4976,0.0,0.0,0.0,0.0,0.0,0.0,0.0,0.0,0.0,0.0,0.0,-1.7321,-1.7542,-1.8009,0.0,0.0,-1.667,0.0,-1.4939,-1.511,-1.6167,-1.5393,-1.6031,0.0,0.0,0.0,0.0,0.0,-1.5763,0.0,0.0,0.0,0.0,0.0,0.0,0.0,-1.6658,-1.6678,0.0,0.0,0.0,0.0,0.0,0.0,0.0,0.0,0.0,0.0,0.0,0.0,0.0,0.0,0.0,0.0,0.0,-1.9997,-1.9739,-1.9208,-1.8586,-1.8134,-1.8008,-1.7969,-1.7568,-1.6694,-1.6626,-1.6495,-1.6208,-1.5633,-1.569,-1.6197,-1.5633,-1.541,-1.541,-1.541,-1.541,-1.541,-1.5968,-1.6197,-1.6255,-1.6754,-1.709,-1.7202,-1.7202,-1.7553,-1.8035,-1.8561,-1.8982,-1.9441,-1.0524,0.0,0.0,0.0,0.0,0.0,0.0,0.0,0.0,0.0,0.0,0.0,0.0,0.0,0.0,0.0,-1.2864,-1.2947,-1.3236,-1.3575,-1.399,-1.4511,-1.4182,-1.4094,-1.4334,-1.3674,-1.3448,-1.3689,0.0,0.0,0.0,0.0,0.0,0.0,0.0,0.0,0.0,0.0,0.0,-1.5593,-1.6238,0.0,-1.7283,-1.5635,-1.5132,-1.5215,-1.4277,-1.4599,-1.5512,0.0,-1.6515,-1.7045,0.0,0.0,0.0,0.0,0.0,0.0,0.0,0.0,0.0,0.0,0.0,0.0,-1.587,-1.5924,-1.5995,0.0,0.0,0.0,0.0,0.0,0.0,0.0,0.0,0.0,0.0,0.0,0.0,0.0,0.0,0.0,0.0,-1.8803,-1.8359,-1.8269,-1.7988,-1.7852,-1.8008,-1.7686,-1.72,-1.6558,-1.6315,-1.5947,-1.5439,-1.542,-1.5468,-1.5575,-1.5468,-1.541,-1.541,-1.541,-1.541,-1.541,-1.5526,-1.5575,-1.5575,-1.569,-1.6301,-1.7202,-1.7202,-1.7553,-1.8035,-1.8561,-1.8982,-1.9441,-1.0662,0.0,0.0,0.0,0.0,0.0,0.0,0.0,0.0,0.0,0.0,0.0,0.0,0.0,0.0,0.0,0.0,-1.3315,0.0,-1.3911,-1.4148,-1.4261,-1.4094,-1.4071,-1.4227,-1.3837,-1.3714,-1.3971,0.0,0.0,0.0,0.0,0.0,0.0,0.0,0.0,0.0,0.0,-1.4689,-1.5075,-1.5647,0.0,-1.6374,-1.5648,-1.5258,-1.5102,-1.4925,-1.5285,-1.5951,-1.6719,-1.6911,0.0,0.0,-1.5629,-1.4909,0.0,-1.4769,-1.4247,0.0,0.0,0.0,-1.4983,0.0,0.0,0.0,-1.5417,-1.5544,0.0,0.0,0.0,0.0,0.0,0.0,0.0,0.0,0.0,0.0,0.0,0.0,0.0,0.0,0.0,0.0,-1.8317,-1.7879,-1.7466,-1.7542,-1.7571,-1.7446,-1.7427,-1.7129,-1.6348,-1.6244,-1.5831,-1.5098,-1.5254,-1.5313,-1.5313,-1.5362,-1.541,-1.541,-1.541,-1.541,-1.541,-1.541,-1.541,-1.541,-1.541,-1.5748,-1.6312,-1.6312,-1.6446,-1.6784,-1.745,-1.7843,-1.8133,-1.0784,0.0,0.0,0.0,0.0,0.0,0.0,0.0,0.0,0.0,0.0,0.0,0.0,0.0,0.0,0.0,0.0,0.0,0.0,0.0,-1.4489,-1.4161,-1.4193,-1.425,-1.4244,-1.4064,-1.4054,-1.4244,0.0,0.0,0.0,0.0,0.0,0.0,0.0,0.0,0.0,0.0,0.0,-1.4649,0.0,-1.5382,-1.5731,-1.6004,-1.5878,-1.5614,-1.5911,-1.6258,-1.6778,-1.7308,0.0,-1.6758,-1.6618,-1.5873,0.0,0.0,0.0,0.0,0.0,0.0,0.0,0.0,0.0,-1.4154,0.0,0.0,0.0,-1.5067,0.0,0.0,0.0,0.0,0.0,0.0,0.0,0.0,0.0,0.0,0.0,0.0,0.0,0.0,0.0,-1.79,-1.7565,-1.6911,-1.7091,-1.712,-1.694,-1.7083,-1.6826,-1.6147,-1.604,-1.5633,-1.498,-1.5088,-1.5156,-1.5156,-1.5313,-1.5362,-1.5362,-1.541,-1.541,-1.5362,-1.5362,-1.5362,-1.5303,-1.5303,-1.5303,-1.5362,-1.5362,-1.541,-1.5518,-1.6406,-1.6665,-1.6792,-1.0608,-1.0493,0.0,0.0,0.0,0.0,0.0,0.0,0.0,0.0,0.0,0.0,0.0,0.0,0.0,0.0,0.0,0.0,-1.3639,0.0,0.0,-1.3152,-1.2949,-1.2929,-1.3113,-1.2679,-1.2679,-1.3075,0.0,0.0,0.0,0.0,0.0,0.0,-1.3276,0.0,0.0,0.0,-1.2848,0.0,-1.3522,-1.456,0.0,-1.6035,-1.6118,-1.6208,-1.653,-1.6929,-1.7248,0.0,-1.7299,-1.7642,0.0,-1.5813,0.0,0.0,0.0,0.0,0.0,0.0,0.0,0.0,-1.3276,0.0,0.0,0.0,-1.4057,-1.4403,0.0,0.0,0.0,0.0,0.0,0.0,0.0,0.0,0.0,0.0,0.0,0.0,0.0,0.0,0.0,0.0,-1.674,-1.6646,-1.6356,-1.6384,-1.6845,-1.6182,-1.5864,-1.6019,-1.544,-1.5006,-1.4715,-1.4911,-1.5029,-1.5029,-1.5147,-1.5215,-1.5205,-1.5362,-1.5362,-1.5215,-1.5215,-1.5147,-1.5029,-1.5029,-1.5029,-1.5088,-1.5303,-1.541,-1.5518,-1.6406,-1.6665,-1.6792,-1.0424,-1.0574,0.0,0.0,0.0,0.0,0.0,0.0,0.0,0.0,0.0,0.0,0.0,0.0,0.0,0.0,0.0,-1.3539,0.0,0.0,0.0,-1.3387,-1.3422,0.0,-1.3318,-1.2906,-1.28,-1.2972,-1.2723,0.0,0.0,0.0,0.0,0.0,-1.254,0.0,-1.2594,0.0,0.0,0.0,0.0,0.0,0.0,-1.5799,-1.6632,-1.7252,-1.7129,-1.7383,-1.7686,0.0,-1.7466,0.0,0.0,0.0,0.0,0.0,0.0,0.0,0.0,0.0,0.0,0.0,0.0,0.0,0.0,0.0,-1.3563,0.0,0.0,0.0,0.0,0.0,0.0,0.0,0.0,0.0,0.0,0.0,0.0,0.0,0.0,0.0,0.0,0.0,0.0,0.0,0.0,-1.598,-1.5832,-1.5961,-1.5836,-1.5578,-1.567,-1.551,-1.4967,-1.5088,-1.5087,-1.4843,-1.5029,-1.5098,-1.5098,-1.5137,-1.5137,-1.5098,-1.5098,-1.5029,-1.497,-1.497,-1.497,-1.5048,-1.5405,-1.5492,-1.5597,-1.6459,-1.6775,-1.6862,-0.9951,0.0,0.0,0.0,0.0,0.0,0.0,0.0,0.0,0.0,0.0,0.0,-1.2206,-1.213,0.0,0.0,0.0,-1.412,0.0,0.0,-1.409,0.0,0.0,0.0,0.0,-1.2968,-1.2832,-1.2819,-1.2492,0.0,0.0,0.0,0.0,0.0,0.0,-1.2016,-1.1912,0.0,0.0,-1.2236,-1.2787,-1.3421,-1.4138,-1.5414,-1.6514,-1.7335,-1.7043,-1.7263,-1.7725,-1.7725,-1.7512,0.0,-1.7529,0.0,0.0,0.0,0.0,0.0,-1.3893,0.0,0.0,0.0,0.0,0.0,0.0,0.0,0.0,0.0,0.0,0.0,0.0,0.0,0.0,0.0,0.0,0.0,0.0,0.0,0.0,0.0,0.0,0.0,0.0,0.0,0.0,0.0,-1.5728,-1.5625,-1.5233,-1.5663,-1.5687,-1.5208,-1.5584,-1.5548,-1.4925,-1.504,-1.4952,-1.4666,-1.4843,-1.4911,-1.4911,-1.5084,-1.5141,-1.5091,-1.5083,-1.5004,-1.4902,-1.4902,-1.475,-1.4662,-1.5109,-1.5302,-1.5457,-1.644,-1.6769,-1.6902,-0.9029,-0.9478,0.0,0.0,0.0,0.0,0.0,0.0,0.0,0.0,0.0,0.0,0.0,0.0,0.0,0.0,0.0,-1.5065,-1.5188,0.0,-1.3817,0.0,0.0,-1.2586,0.0,-1.2241,-1.2291,-1.2334,-1.2363,0.0,0.0,0.0,0.0,0.0,0.0,-1.1905,-1.1439,-1.1471,-1.1349,-1.1166,-1.1312,-1.2385,-1.3992,0.0,-1.542,-1.5745,-1.5728,0.0,0.0,-1.6932,-1.7413,0.0,0.0,0.0,0.0,0.0,0.0,0.0,0.0,0.0,0.0,-1.3892,0.0,0.0,0.0,0.0,-1.2076,0.0,0.0,0.0,0.0,0.0,0.0,-1.3025,0.0,0.0,0.0,0.0,0.0,0.0,0.0,0.0,0.0,0.0,0.0,-1.5639,-1.5437,-1.5393,-1.5472,-1.5229,-1.5081,-1.5231,-1.4863,-1.4625,-1.4541,-1.4533,-1.4532,-1.4506,-1.4666,-1.4715,-1.4725,-1.5317,-1.5444,-1.5287,-1.5369,-1.5115,-1.4586,-1.4599,-1.4187,-1.364,-1.4324,-1.4607,-1.4789,-1.627,-1.6769,-1.6902,0.0,0.0,0.0,0.0,0.0,0.0,0.0,-0.9658,0.0,0.0,0.0,0.0,0.0,0.0,-1.3114,0.0,0.0,-1.4956,-1.5313,-1.502,0.0,0.0,0.0,-1.3908,0.0,0.0,-1.2857,-1.243,-1.2076,0.0,0.0,0.0,0.0,0.0,0.0,-1.1075,0.0,0.0,0.0,0.0,0.0,-1.2321,-1.2817,0.0,0.0,-1.5675,-1.5675,-1.5877,0.0,-1.6097,-1.6237,-1.6401,-1.6142,-1.5806,-1.5561,-1.5603,-1.5321,0.0,0.0,0.0,-1.4772,-1.3638,0.0,0.0,0.0,0.0,0.0,0.0,0.0,0.0,0.0,0.0,-1.2929,-1.291,-1.3035,0.0,0.0,0.0,0.0,0.0,0.0,0.0,0.0,0.0,0.0,-1.5637,-1.5218,-1.4921,0.0,-1.485,-1.4641,-1.4185,-1.4459,-1.4543,-1.4227,-1.4219,-1.4091,-1.3821,-1.4136,-1.4259,-1.4268,-1.4736,-1.4921,-1.4866,-1.4867,-1.4785,-1.4608,-1.4607,-1.4447,-1.426,-1.4821,-1.4855,-1.4675,-1.5481,-1.5925,-1.6147,-0.7892,0.0,0.0,0.0,0.0,0.0,0.0,0.0,0.0,0.0,-0.9595,0.0,-1.2661,0.0,-1.3311,0.0,-1.5567,-1.5227,-1.5346,-1.505,0.0,-1.4065,-1.432,0.0,0.0,0.0,-1.2772,-1.209,-1.1752,-1.1592,0.0,0.0,0.0,0.0,0.0,0.0,0.0,0.0,-1.003,0.0,0.0,-1.1892,0.0,0.0,-1.4072,-1.4654,0.0,-1.5037,-1.5321,-1.5251,-1.5392,-1.5675,-1.5525,-1.5295,-1.5137,-1.5355,-1.5274,-1.4962,-1.4552,-1.4754,0.0,-1.3715,-1.3276,0.0,-1.2769,0.0,0.0,0.0,0.0,0.0,0.0,0.0,0.0,-1.2082,-1.2235,-1.2464,0.0,-1.3024,0.0,0.0,0.0,0.0,0.0,0.0,-1.5089,-1.5486,-1.5165,-1.4799,0.0,0.0,-1.4414,-1.3615,-1.4056,-1.4202,-1.3903,-1.3903,-1.3772,-1.3511,-1.3697,-1.3808,-1.3834,-1.4354,-1.4584,-1.4601,-1.474,-1.4782,-1.4597,-1.4597,-1.4438,-1.4173,-1.4519,-1.4594,-1.4476,-1.5341,-1.5857,-1.6148,0.0,0.0,0.0,0.0,-0.8463,0.0,0.0,0.0,-0.8897,0.0,-0.9232,-1.01,-1.22,-1.2815,-1.3841,-1.5906,-1.613,0.0,-1.5127,-1.4678,0.0,0.0,-1.3404,-1.311,-1.2265,0.0,0.0,0.0,0.0,0.0,0.0,0.0,0.0,0.0,-1.0255,0.0,-0.9195,-0.9359,-0.9532,-0.978,-1.0648,-1.1082,-1.1224,-1.1757,-1.2296,-1.2749,-1.3078,-1.376,-1.4466,-1.4266,-1.4832,-1.5534,-1.5188,-1.5284,-1.5371,-1.5196,-1.5371,-1.5348,-1.4279,-1.4314,-1.4522,-1.3897,0.0,0.0,0.0,0.0,-1.1872,0.0,0.0,0.0,0.0,0.0,0.0,-1.073,-1.0973,-1.146,-1.2004,0.0,0.0,0.0,0.0,0.0,0.0,-1.4652,-1.4778,-1.5051,-1.5152,0.0,0.0,0.0,-1.4323,-1.3629,-1.3545,-1.3533,-1.3578,-1.3578,-1.3522,-1.3476,-1.351,-1.3535,-1.3553,-1.4286,-1.4618,-1.4595,-1.4969,-1.5006,-1.4709,-1.464,-1.4112,-1.3419,-1.3661,-1.3869,-1.4164,-1.5715,-1.6362,-1.6539,-0.6338,-0.6447,-0.672,0.0,-0.7534,-0.7849,0.0,0.0,0.0,0.0,-0.922,-1.005,-1.1734,-1.1829,-1.2464,-1.4068,-1.4781,0.0,0.0,0.0,0.0,-1.3542,-1.3199,-1.3144,-1.3241,-1.2469,0.0,-1.1582,0.0,0.0,-1.0667,0.0,0.0,0.0,0.0,0.0,-0.924,-0.9032,-0.92,-0.9704,-1.0599,-1.0909,0.0,0.0,-1.1948,-1.2096,-1.2704,-1.3112,-1.3324,-1.3258,-1.3404,-1.3652,-1.374,-1.3982,-1.4281,-1.4559,-1.4878,-1.4942,-1.4048,-1.3882,-1.3738,-1.2879,-1.2508,-1.2349,0.0,0.0,0.0,0.0,0.0,0.0,0.0,0.0,0.0,0.0,0.0,0.0,0.0,0.0,0.0,-1.2148,0.0,0.0,-1.419,-1.408,-1.4104,-1.4468,-1.4249,0.0,0.0,0.0,0.0,-1.3335,-1.3124,-1.3034,-1.3012,-1.3148,-1.3228,-1.321,-1.3729,-1.3972,-1.3988,-1.4372,-1.4574,-1.4582,-1.4704,-1.4728,-1.4648,-1.453,-1.4324,-1.4104,-1.404,-1.3918,-1.3894,-1.4965,-1.4565,-1.3519,-0.5603,0.0,0.0,-0.6306,0.0,0.0,-0.789,0.0,0.0,-0.8964,-0.92,0.0,-1.1432,-1.155,-1.1993,-1.3281,-1.3751,0.0,0.0,0.0,0.0,-1.258,-1.2596,-1.2612,-1.2669,-1.2151,0.0,-1.0975,0.0,0.0,-0.9779,0.0,0.0,0.0,0.0,-0.864,0.0,-0.8861,-0.912,-0.9481,-1.0232,0.0,0.0,-1.1283,-1.166,-1.1999,-1.2483,-1.2746,-1.29,-1.282,-1.282,-1.2928,-1.2872,-1.3134,-1.3474,-1.3536,-1.3849,-1.4072,-1.3269,-1.3198,-1.3121,-1.2479,-1.2274,-1.2311,-1.2311,-1.2239,-1.2296,0.0,0.0,0.0,0.0,0.0,0.0,0.0,0.0,0.0,0.0,0.0,0.0,0.0,-1.1563,0.0,-1.3226,-1.315,-1.3167,-1.3613,0.0,0.0,0.0,0.0,0.0,-1.274,-1.2656,-1.2624,-1.2679,-1.2846,-1.2925,-1.287,-1.3365,-1.3565,-1.3449,-1.395,-1.418,-1.4196,-1.4506,-1.4569,-1.4553,-1.4119,-1.3848,-1.3702,-1.3174,-1.2759,-1.2454,-1.3466,-1.3427,-1.2782,0.0,0.0,0.0,0.0,0.0,0.0,0.0,-0.7975,0.0,-0.9132,0.0,-0.9888,-1.1081,-1.1332,-1.1783,-1.2647,0.0,-1.2533,-1.1733,-1.1731,-1.161,-1.1213,-1.1624,-1.1746,-1.1319,-1.1519,0.0,0.0,0.0,0.0,0.0,0.0,0.0,0.0,0.0,0.0,0.0,-0.8833,-0.9186,0.0,-0.9863,-1.0462,-1.0904,-1.0981,-1.152,-1.2251,-1.2285,-1.2526,-1.2826,-1.2599,-1.2673,-1.2753,-1.2425,-1.2689,-1.292,-1.2513,-1.2739,-1.3026,-1.2452,-1.2492,-1.2625,-1.2365,-1.2305,-1.2305,-1.2305,-1.2305,-1.2311,-1.2351,-1.2352,-1.2223,0.0,0.0,0.0,0.0,0.0,0.0,0.0,0.0,0.0,0.0,0.0,0.0,0.0,-1.1969,-1.2093,0.0,0.0,0.0,0.0,0.0,0.0,-1.2161,-1.2366,0.0,-1.2482,0.0,-1.2822,-1.2687,-1.3025,-1.3067,-1.2905,-1.3445,-1.3675,-1.3613,-1.4159,-1.4378,-1.4322,-1.3603,-1.3142,-1.2753,-1.1853,-1.1094,-1.067,-1.1688,-1.2326,-1.28,0.0,0.0,0.0,0.0,0.0,-0.6065,-0.8027,-0.8033,-0.8159,-0.9232,-0.9602,0.0,-1.0001,-1.0151,-1.023,-1.0276,-1.0886,0.0,0.0,0.0,0.0,-1.037,-1.0091,-1.0264,-1.0712,-1.0346,-0.9779,0.0,-0.8838,-0.8457,-0.7882,0.0,0.0,0.0,0.0,0.0,-0.8337,-0.9029,0.0,-0.9869,-1.0536,-1.091,-1.1056,-1.154,-1.1857,-1.1977,-1.2218,-1.2378,-1.2378,-1.2378,-1.2378,-1.2419,-1.2667,-1.2782,-1.2815,-1.2761,-1.2822,-1.2829,-1.2398,-1.2338,-1.2365,-1.2318,-1.2305,-1.2305,-1.2305,-1.2305,-1.2371,-1.2694,-1.2466,-1.2421,-1.2806,0.0,0.0,0.0,0.0,0.0,0.0,0.0,0.0,0.0,0.0,0.0,0.0,0.0,0.0,0.0,0.0,0.0,0.0,0.0,0.0,0.0,-1.2895,0.0,0.0,0.0,-1.3623,-1.3087,-1.39,-1.4275,-1.421,-1.4065,-1.387,-1.3661,-1.3522,-1.3378,-1.3185,-1.2837,-1.2625,-1.2325,-1.1318,-1.0829,-1.0684,-1.0238,-1.0045,-1.0125,0.0,0.0,0.0,0.0,0.0,0.0,0.0,-0.7848,0.0,-0.9542,-0.9674,-0.969,-0.9608,-0.9751,-0.9681,-0.9502,-0.9883,-0.9841,-0.9088,-0.937,-0.9494,-0.9393,-0.9356,0.0,-0.9882,-0.9574,-0.9177,-0.8639,-0.8394,-0.7986,-0.7428,0.0,0.0,0.0,0.0,-0.7995,0.0,0.0,0.0,-1.0072,-1.0745,-1.1082,-1.1263,-1.1703,-1.1964,-1.2111,-1.2251,-1.2305,-1.2305,-1.2305,-1.2405,-1.2532,-1.2518,-1.2732,-1.2926,-1.2605,-1.2625,-1.2755,-1.2385,-1.2305,-1.2305,-1.2305,-1.2305,-1.2305,-1.2305,-1.2039,-1.1992,-1.2437,-1.2136,-1.1821,-1.182,-1.1257,0.0,0.0,0.0,0.0,0.0,0.0,0.0,0.0,0.0,0.0,0.0,0.0,0.0,0.0,0.0,0.0,0.0,0.0,0.0,0.0,0.0,0.0,0.0,0.0,0.0,-1.3218,-1.3613,-1.387,-1.4013,-1.3876,-1.3731,-1.3567,-1.3457,-1.3171,-1.2791,-1.2071,-1.1497,-1.1095,-1.0735,-1.0572,-1.0619,-1.0085,-0.9806,-0.9702,0.0,-0.4651,0.0,0.0,-0.5287,0.0,0.0,-0.767,-0.8607,-0.9713,-0.9726,-0.9626,-0.9689,-0.9616,-0.951,-0.9368,-0.9283,-0.9104,-0.8693,-0.8637,-0.8528,-0.8319,-0.8647,-0.8792,-0.8702,-0.8916,-0.8684,0.0,-0.7928,-0.7635,0.0,0.0,0.0,0.0,0.0,0.0,0.0,0.0,-0.9854,-1.0114,-1.0593,-1.0918,-1.1057,-1.1559,-1.188,-1.2077,-1.2224,-1.2305,-1.2305,-1.2305,-1.2498,-1.2768,-1.2398,-1.2672,-1.3006,-1.2465,-1.2472,-1.2681,-1.2365,-1.2305,-1.2238,-1.2149,-1.2048,-1.2016,-1.1851,-1.1456,-1.1194,-1.167,-1.1462,-1.0977,-1.0421,-1.0076,0.0,0.0,0.0,0.0,0.0,0.0,0.0,0.0,0.0,0.0,0.0,0.0,0.0,0.0,0.0,0.0,0.0,0.0,0.0,0.0,0.0,-1.1662,-1.1885,0.0,-1.2251,0.0,-1.3016,-1.3191,-1.3277,-1.3429,-1.3365,-1.3199,-1.3197,-1.2985,-1.2522,-1.1591,-1.0894,-1.0495,-1.0429,-1.0543,-1.061,-1.0331,-1.0037,-0.9878,0.0,0.0,0.0,0.0,0.0,0.0,0.0,-0.7831,-0.8546,-0.968,-0.9707,-0.9737,-0.988,-0.9571,-0.9372,-0.9356,-0.9056,-0.8697,-0.8324,-0.817,-0.7854,-0.7362,-0.7624,-0.7623,-0.7146,-0.8067,-0.7944,0.0,0.0,-0.7239,-0.6222,-0.6149,0.0,0.0,0.0,0.0,0.0,-0.8967,-0.94,-1.0179,-1.0272,-1.0014,-0.9757,-1.0819,-1.1168,-1.1335,-1.2003,-1.2305,-1.2305,-1.2305,-1.2498,-1.2768,-1.2398,-1.2525,-1.2802,-1.2398,-1.2318,-1.2338,-1.2311,-1.2305,-1.2136,-1.163,-1.1356,-1.1097,-1.0484,-1.0226,-1.0073,-1.0126,-1.0308,-1.0151,-0.9335,-0.955,-0.9633,0.0,0.0,0.0,0.0,0.0,0.0,0.0,0.0,0.0,0.0,0.0,0.0,0.0,0.0,0.0,0.0,0.0,0.0,-1.051,0.0,-1.1971,-1.1108,-1.2224,-1.2438,-1.1818,-1.2956,-1.313,-1.2581,-1.3233,-1.3071,-1.2248,-1.2256,-1.2037,-1.1835,-1.1733,-1.1686,-1.1609,-1.1028,-1.0823,-1.084,-1.035,-1.0065,-0.9942,0.0,0.0,0.0,0.0,0.0,0.0,0.0,-0.7819,-0.839,-0.8921,-0.9218,-0.9358,-0.9388,-0.9079,-0.8837,-0.8729,-0.8413,-0.8143,-0.7884,-0.7724,-0.7529,-0.7205,-0.724,-0.7156,-0.6942,-0.7116,-0.7028,0.0,0.0,-0.6375,-0.6179,-0.5738,0.0,0.0,0.0,-0.7803,-0.8359,-0.8743,-0.9155,-0.9486,-0.9706,-0.968,-0.9556,-1.0025,-1.0302,-1.0404,-1.0625,-1.0745,-1.087,-1.087,-1.1734,-1.2768,-1.2398,-1.2505,-1.2761,-1.2392,-1.2305,-1.2157,-1.1706,-1.1671,-1.1593,-1.085,-1.065,-1.049,-1.0327,-0.9807,-0.9529,-1.0053,-0.9915,-0.9547,-0.9104,-0.8783,-0.8558,0.0,0.0,0.0,0.0,0.0,0.0,0.0,0.0,0.0,0.0,0.0,0.0,0.0,0.0,0.0,0.0,0.0,0.0,-1.0074,0.0,-1.1419,-1.1387,-1.1343,-1.166,-1.2233,-1.229,-1.2397,-1.2528,-1.2713,-1.2592,-1.223,-1.1891,-1.1716,-1.1616,-1.1512,-1.1509,-1.1526,-1.1455,-1.1367,-1.1188,-1.0871,-1.0523,-1.0288,-0.6236,0.0,-0.6423,0.0,-0.678,-0.713,-0.713,-0.7736,-0.8264,-0.8251,-0.8532,-0.8802,-0.9004,-0.8713,-0.8467,-0.8348,-0.7994,-0.7711,-0.7455,-0.73,-0.7097,-0.6832,-0.6754,0.0,-0.6503,-0.6445,-0.6434,-0.6403,-0.6065,0.0,-0.6226,0.0,0.0,0.0,-0.6954,-0.7535,-0.7731,-0.8301,-0.8629,-0.8754,-0.8851,-0.8757,-0.8665,-0.8892,-0.9108,-0.9221,-0.9357,-0.952,-0.9644,-0.9644,-1.0628,-1.1809,-1.1919,-1.1973,-1.2063,-1.1938,-1.1774,-1.1496,-1.0901,-1.0818,-1.0751,-0.9951,-0.9782,-0.9771,-0.96,-0.9034,-0.8818,-0.9356,-0.9018,-0.8559,-0.8555,-0.8024,-0.7699,-0.7979,0.0,0.0,0.0,0.0,0.0,0.0,-0.8495,-0.8342,-0.8242,0.0,0.0,0.0,0.0,0.0,0.0,0.0,0.0,0.0,0.0,0.0,0.0,-1.0615,-1.0931,-1.2117,-1.1811,-1.1855,-1.2206,-1.226,-1.2248,-1.2291,-1.1939,-1.1781,-1.1788,-1.1582,-1.1588,-1.1633,-1.168,-1.1611,-1.1498,-1.1214,-1.0887,-1.064,-0.7677,-0.7417,-0.713,-0.713,-0.713,-0.713,-0.713,-0.7645,-0.8041,-0.8038,-0.8041,-0.8237,-0.873,-0.8534,-0.834,-0.8337,-0.7886,-0.7447,-0.7123,-0.6887,-0.6514,0.0,0.0,-0.611,-0.5603,-0.6244,-0.6399,-0.603,0.0,0.0,-0.6023,0.0,-0.6097,-0.6093,-0.6233,-0.6889,-0.7763,-0.7507,-0.7719,-0.804,-0.7581,-0.7118,-0.6682,-0.7372,-0.7655,-0.7726,-0.8554,-0.8908,-0.9108,-0.9108,-0.9188,-0.9528,-1.0732,-1.0749,-1.0429,-1.0958,-1.0576,-0.9943,-0.9798,-0.9787,-0.9657,-0.9011,-0.8888,-0.8669,-0.7694,-0.7608,-0.7608,-0.7364,-0.7234,-0.7167,-0.7417,-0.7226,-0.7296,-0.7897,0.0,0.0,0.0,0.0,0.0,0.0,-0.7968,-0.7917,-0.7917,0.0,0.0,0.0,0.0,0.0,0.0,0.0,0.0,-0.9432,-0.991,0.0,-0.9911,-1.0301,-1.065,-1.1055,-1.1703,-1.18,-1.1423,-1.173,-1.2024,-1.2305,-1.2298,-1.2298,-1.2244,-1.217,-1.2062,-1.2068,-1.1682,-1.1534,-1.1498,-1.1214,-1.1111,-1.1111,-0.6988,-0.7267,-0.7362,-0.7458,-0.7572,-0.7671,-0.7671,-0.7908,-0.8038,-0.8038,-0.8038,-0.8038,-0.8233,-0.7966,-0.7785,0.0,-0.7361,-0.7031,0.0,-0.6722,-0.6352,-0.582,-0.5919,-0.5899,-0.5735,-0.5971,-0.6124,-0.6186,0.0,0.0,0.0,-0.6063,-0.627,-0.627,-0.6414,-0.6662,-0.7007,-0.7028,-0.7143,-0.7234,-0.7124,-0.6961,-0.6832,-0.6771,-0.6805,-0.6952,-0.6991,-0.7157,-0.7237,-0.7237,-0.7363,-0.7592,-0.862,-0.9215,-0.9616,-0.9846,-0.9674,-0.9387,-0.877,-0.8839,-0.8837,-0.8073,-0.7899,-0.7974,-0.7759,-0.7786,-0.7718,-0.7409,-0.7323,-0.7267,-0.7207,-0.7055,-0.7045,-0.7334,-0.7354,0.0,0.0,0.0,0.0,0.0,-0.7559,-0.7455,0.0,-0.762,0.0,0.0,0.0,0.0,0.0,0.0,0.0,0.0,-1.0444,0.0,-1.0927,-1.0781,-1.0925,-1.1289,-1.1485,-1.1648,-1.173,-1.1824,-1.2031,-1.2305,-1.2305,-1.2231,-1.2083,-1.2032,-1.1846,-1.164,-1.1686,-1.1611,-1.1522,-1.1431,-1.1401,-1.1401,-0.6671,-0.7064,-0.7286,-0.7375,-0.7628,-0.7858,-0.7858,-0.7604,-0.754,-0.7842,-0.754,-0.754,-0.7842,-0.7681,0.0,-0.76,-0.7187,-0.6888,-0.6793,-0.6539,-0.624,-0.5901,-0.5783,-0.5722,-0.5722,0.0,0.0,-0.6173,-0.5999,-0.587,-0.587,-0.6183,-0.6338,-0.6338,-0.6412,-0.649,-0.6486,-0.6637,-0.6637,-0.6633,-0.6572,-0.6547,-0.6511,-0.6198,-0.614,-0.6194,-0.6007,-0.6015,-0.6079,-0.6079,-0.6183,-0.6383,-0.6956,-0.752,-0.8138,-0.8666,-0.8613,-0.825,-0.779,-0.774,-0.7764,-0.7263,-0.7272,-0.7469,-0.7635,-0.7588,-0.7447,-0.7161,-0.7159,-0.7069,-0.6903,-0.6745,-0.6758,-0.6885,-0.6943,-0.7122,-0.7402,0.0,0.0,0.0,0.0,0.0,0.0,-0.7078,0.0,0.0,0.0,0.0,0.0,0.0,0.0,-0.9019,-0.9922,0.0,-1.0782,-1.0724,-1.1039,-1.159,-1.1703,-1.185,-1.2031,-1.2031,-1.2131,-1.2305,-1.2231,-1.215,-1.2003,-1.1855,-1.1632,-1.144,-1.1572,-1.1605,-1.1534,-1.1534,-1.1594,-1.157,-0.6639,-0.674,0.0,0.0,-0.7235,0.0,-0.7417,-0.6932,-0.6711,-0.7518,-0.6921,-0.6722,-0.7518,-0.7574,-0.75,-0.7584,0.0,0.0,0.0,-0.6529,-0.6217,-0.6054,-0.5772,-0.562,-0.562,-0.5749,-0.5891,-0.6047,-0.619,-0.6338,-0.6338,-0.6338,-0.6338,-0.6338,-0.6338,-0.6338,-0.6338,-0.6338,-0.6338,-0.6247,-0.6105,-0.6037,-0.5996,-0.5711,-0.5599,-0.5569,-0.5416,-0.5454,-0.5576,-0.5576,-0.5671,-0.5786,-0.5786,-0.5891,-0.6264,-0.7551,-0.7464,-0.6821,-0.6745,-0.6795,-0.6753,-0.6733,-0.6864,-0.7087,-0.7247,-0.7114,-0.6943,-0.6943,-0.6814,-0.6658,-0.6515,-0.6363,-0.6338,-0.6563,-0.6688,-0.6831,-0.6954,0.0,0.0,0.0,0.0,0.0,0.0,-0.663,-0.6546,0.0,0.0,0.0,0.0,0.0,-0.7861,-0.7805,-0.8609,-0.9285,-0.9775,-1.0328,-1.1069,-1.1904,-1.2171,-1.2305,-1.2231,-1.2224,-1.215,-1.2077,-1.1929,-1.1855,-1.1855,-1.1558,-1.1409,-1.136,-1.1419,-1.1385,-1.1403,-1.1397,-1.1473,-1.1609,0.0,0.0,-0.6444,-0.6538,-0.6868,-0.708,-0.708,-0.7009,-0.7127,-0.734,-0.6737,-0.656,-0.7254,-0.6786,-0.6605,-0.7069,-0.7042,-0.7044,-0.6936,-0.6719,-0.6481,-0.6217,-0.6023,-0.5925,-0.5925,-0.5959,-0.6051,-0.6207,-0.6244,-0.6338,-0.6338,-0.6338,-0.6338,-0.6338,-0.6338,-0.6338,-0.6338,-0.6338,-0.6338,-0.6257,-0.622,-0.6135,-0.601,-0.5823,-0.5684,-0.5569,-0.5416,-0.5452,-0.5416,-0.5416,-0.5515,-0.564,-0.564,-0.5739,-0.5957,-0.6332,-0.6467,-0.6419,-0.6457,-0.6472,-0.6561,-0.6519,-0.6785,-0.6997,-0.7145,-0.7088,-0.7092,-0.7092,-0.6881,-0.6688,-0.6654,-0.6434,-0.6338,-0.6338,-0.6366,-0.6283,-0.5828,-0.6068,0.0,0.0,-0.5997,-0.6262,-0.6432,-0.6381,-0.6282,0.0,0.0,0.0,0.0,-0.6615,-0.7224,-0.7812,-0.847,-0.9043,-0.9312,-1.0096,-1.1049,-1.2204,-1.2271,-1.2003,-1.1409,-1.1248,-1.0795,-1.0271,-1.0645,-1.0801,-1.0663,-1.1186,-1.1335,-1.1135,-1.0716,-1.0611,-1.0685,-1.0038,-0.9751,-0.97,-0.5825,-0.5918,-0.6031,-0.6096,-0.6432,-0.6659,-0.6659,-0.642,-0.6458,-0.685,-0.6233,-0.6151,-0.6957,-0.6315,-0.5966,-0.6456,-0.6811,-0.701,-0.6932,-0.6661,-0.6427,-0.6268,-0.6044,-0.5959,-0.6027,-0.603,-0.6105,-0.6338,-0.6338,-0.6338,-0.6338,-0.6338,-0.6338,-0.6338,-0.6338,-0.6338,-0.6338,-0.6338,-0.6338,-0.6338,-0.6338,-0.6169,-0.6013,-0.5861,-0.5715,-0.5569,-0.5416,-0.5428,-0.5428,-0.5428,-0.5416,-0.5488,-0.5488,-0.5586,-0.5722,-0.5803,-0.5983,-0.6169,-0.624,-0.6318,-0.6376,-0.6376,-0.6603,-0.6844,-0.6922,-0.7044,-0.7122,-0.7058,-0.6861,-0.6678,-0.661,-0.6413,-0.6338,-0.6338,-0.6069,-0.5774,-0.5469,-0.5591,0.0,-0.5447,-0.5855,-0.6156,-0.6321,-0.6338,-0.627,-0.6176,0.0,0.0,-0.6141,-0.6384,-0.6754,-0.7127,-0.7838,-0.8415,-0.8668,-0.9553,-1.049,-1.1362,-1.116,-1.0859,-1.0515,-1.0246,-0.9895,-0.9448,-0.9744,-0.975,-0.9685,-1.0056,-1.0132,-1.0003,-0.9782,-0.9785,-0.9807,-0.9242,-0.9062,-0.9055,-0.5733,-0.5733,-0.5733,-0.5733,-0.5998,-0.625,-0.625,-0.5776,-0.5649,-0.6315,-0.5858,-0.5766,-0.6508,-0.5863,-0.5433,-0.5499,-0.6002,-0.6386,-0.649,-0.6121,-0.598,-0.6136,-0.5871,-0.5782,-0.6061,-0.6064,-0.6129,-0.6338,-0.6338,-0.6338,-0.6338,-0.6338,-0.6338,-0.6338,-0.6338,-0.6338,-0.6338,-0.6338,-0.6338,-0.6338,-0.6338,-0.6156,-0.5979,-0.585,-0.5698,-0.5538,-0.541,-0.5428,-0.5428,-0.5428,-0.5428,-0.5428,-0.5428,-0.545,-0.5559,-0.5583,-0.5769,-0.6003,-0.6176,-0.6244,-0.6345,-0.6288,-0.6498,-0.6705,-0.6729,-0.6946,-0.7105,-0.6987,-0.682,-0.6661,-0.6529,-0.6373,-0.6254,-0.623,-0.5787,-0.5391,-0.5278,0.0,-0.54,-0.5378,-0.5924,-0.6338,-0.6338,-0.6338,-0.6271,-0.6291,-0.6318,-0.6357,0.0,-0.651,-0.6444,-0.6289,-0.7049,-0.7647,-0.808,-0.8917,-0.9637,-1.0099,-0.974,-0.9591,-0.961,-0.9274,-0.9022,-0.8917,-0.8846,-0.877,-0.877,-0.8699,-0.8703,-0.8718,-0.8815,-0.8899,-0.8848,-0.8523,-0.8551,-0.8594,-0.5733,-0.5733,-0.5733,-0.5733,-0.5749,-0.5765,-0.5771,-0.5964,-0.5981,-0.582,-0.6093,-0.6118,-0.5924,-0.5146,-0.4408,-0.3961,-0.3886,-0.4071,-0.4579,-0.447,-0.4673,-0.5319,-0.5179,-0.5499,-0.6224,-0.6224,-0.6237,-0.6338,-0.6338,-0.6338,-0.6338,-0.6338,-0.6338,-0.6338,-0.6338,-0.6338,-0.6338,-0.6338,-0.6338,-0.6338,-0.6338,-0.6091,-0.5833,-0.581,-0.5633,-0.5459,-0.5435,-0.5428,-0.5428,-0.5428,-0.5428,-0.5428,-0.5428,-0.5446,-0.5423,-0.5552,-0.5623,-0.5718,-0.5989,-0.6162,-0.6288,-0.641,-0.6569,-0.6732,-0.6865,-0.7021,-0.7132,-0.7112,-0.6892,-0.6695,-0.6668,-0.6444,-0.6143,-0.5711,-0.5579,-0.5322,-0.481,0.0,-0.5436,-0.5391,-0.5924,-0.6338,-0.6338,-0.6338,-0.6312,-0.643,-0.6496,-0.65,-0.6471,-0.6531,-0.6448,-0.6304,-0.6574,-0.7055,-0.7859,-0.8161,-0.8789,-0.9615,-0.9579,-0.9194,-0.8528,-0.8335,-0.7766,-0.7022,-0.7557,-0.771,-0.7787,-0.8399,-0.8703,-0.8627,-0.797,-0.7844,-0.7815,-0.6951,-0.6488,-0.6418,-0.5735,-0.5738,-0.5741,-0.5741,-0.5741,-0.5744,-0.5662,-0.4935,-0.4393,-0.4222,-0.4349,-0.4428,-0.4244,-0.3829,-0.3551,-0.3642,-0.252,-0.2318,-0.3262,-0.4053,-0.4928,-0.5726,-0.5743,-0.5867,-0.6261,-0.6338,-0.6338,-0.6338,-0.6338,-0.6338,-0.6338,-0.6338,-0.6338,-0.6338,-0.6338,-0.6338,-0.6338,-0.6338,-0.6213,-0.6135,-0.6135,-0.5956,-0.5688,-0.5688,-0.5603,-0.5474,-0.5459,-0.5413,-0.5471,-0.5456,-0.5428,-0.5428,-0.5428,-0.5428,-0.5442,-0.5447,-0.5579,-0.5752,-0.5969,-0.6081,-0.6173,-0.6322,-0.6468,-0.6597,-0.6668,-0.6797,-0.6902,-0.6902,-0.6729,-0.6576,-0.6576,-0.6403,-0.6133,-0.5607,-0.5448,0.0,0.0,-0.4836,-0.5079,-0.415,-0.5394,-0.6103,-0.5631,-0.6025,-0.6318,-0.6461,-0.6403,-0.6427,-0.6586,-0.6519,-0.6441,-0.6376,-0.6366,-0.6634,-0.7176,-0.7344,-0.7711,-0.8367,-0.8184,-0.7868,-0.7639,-0.7292,-0.6861,-0.649,-0.6718,-0.6872,-0.6872,-0.7253,-0.7407,-0.733,-0.6865,-0.6677,-0.6659,-0.5959,-0.5644,-0.5574,-0.5695,-0.5636,-0.566,-0.566,-0.5297,-0.5208,-0.567,-0.4493,-0.3229,-0.2331,-0.2232,-0.2209,-0.2257,-0.2248,-0.2571,-0.3539,-0.1813,-0.122,-0.252,-0.381,-0.5007,-0.5867,-0.618,-0.6261,-0.618,-0.6261,-0.6338,-0.6338,-0.6338,-0.6338,-0.6338,-0.6338,-0.6338,-0.6338,-0.6338,-0.6338,-0.6338,-0.6338,-0.6193,-0.6078,-0.6044,-0.5874,-0.564,-0.564,-0.5596,-0.5528,-0.5443,-0.5467,-0.5518,-0.5403,-0.5428,-0.5428,-0.5428,-0.5428,-0.5428,-0.5428,-0.5521,-0.5739,-0.5925,-0.6003,-0.6057,-0.6176,-0.6339,-0.6471,-0.6471,-0.659,-0.6702,-0.6702,-0.658,-0.6471,-0.6231,-0.6116,-0.5742,-0.5,0.0,0.0,0.0,-0.4198,-0.4408,-0.3257,-0.4667,-0.5473,-0.4768,-0.5473,-0.6081,-0.6221,-0.6294,-0.6424,-0.6685,-0.6556,-0.6378,-0.6341,-0.6315,-0.6338,-0.6563,-0.6609,-0.6827,-0.7226,-0.6894,-0.6817,-0.6966,-0.6527,-0.6325,-0.6338,-0.6338,-0.6338,-0.6261,-0.6257,-0.618,-0.618,-0.5944,-0.5864,-0.5786,-0.5398,-0.5321,-0.5257,-0.5491,-0.5588,-0.567,-0.567,-0.4218,-0.368,-0.541,-0.5592,-0.423,-0.0719,-0.0177,-0.0174,-0.0174,-0.0256,-0.1097,-0.3376,-0.1816,-0.122,-0.252,-0.3021,-0.3682,-0.4766,-0.5786,-0.618,-0.5941,-0.618,-0.6338,-0.6338,-0.6338,-0.6338,-0.6338,-0.6338,-0.6338,-0.6338,-0.6338,-0.6338,-0.6338,-0.6338,-0.6254,-0.623,-0.6088,-0.5932,-0.5786,-0.5786,-0.5616,-0.5463,-0.5528,-0.5491,-0.5442,-0.5432,-0.5428,-0.5428,-0.5428,-0.5428,-0.5428,-0.5428,-0.5446,-0.5457,-0.5742,-0.5922,-0.6034,-0.6044,-0.6261,-0.6471,-0.6471,-0.659,-0.6702,-0.6702,-0.658,-0.6231,-0.5428,-0.5165,-0.4655,-0.341,0.0,0.0,-0.3078,-0.3081,-0.3338,-0.3724,-0.3902,-0.3988,-0.3908,-0.4613,-0.5132,-0.5259,-0.6061,-0.6529,-0.6692,-0.6397,-0.6175,-0.596,-0.6183,-0.6338,-0.6338,-0.6349,-0.6428,-0.6572,-0.6624,-0.6614,-0.6572,-0.6614,-0.6519,-0.6338,-0.6338,-0.6338,-0.6261,-0.6022,-0.5941,-0.5941,-0.5712,-0.5637,-0.5559,-0.5398,-0.5321,-0.5246,-0.4146,-0.2972,-0.2904,-0.53,-0.5087,-0.4117,-0.2385,-0.2203,-0.1674,-0.0176,-0.0,-0.0,-0.0,-0.0,-0.041,-0.1293,-0.072,-0.1035,-0.2785,-0.2761,-0.3608,-0.5572,-0.5805,-0.5876,-0.587,-0.6112,-0.6187,-0.6022,-0.6022,-0.6022,-0.6022,-0.5948,-0.587,-0.587,-0.587,-0.587,-0.587,-0.587,-0.5819,-0.5733,-0.5679,-0.5571,-0.544,-0.544,-0.5431,-0.5412,-0.538,-0.5332,-0.5272,-0.5189,-0.5103,-0.5027,-0.5156,-0.5223,-0.5223,-0.5223,-0.5292,-0.5319,-0.4813,-0.5218,-0.58,-0.5983,-0.6115,-0.6066,-0.5683,-0.5583,-0.5539,-0.4978,-0.4862,-0.4752,-0.4358,-0.4328,-0.3956,-0.3106,0.0,-0.3226,-0.2349,-0.3215,-0.3565,-0.2427,-0.3171,-0.3356,-0.2317,-0.3155,-0.3932,-0.4385,-0.4984,-0.5205,-0.5002,-0.514,-0.5535,-0.6122,-0.6274,-0.6268,-0.6338,-0.6346,-0.642,-0.6471,-0.6532,-0.6529,-0.6471,-0.6441,-0.6366,-0.6261,-0.6099,-0.6022,-0.6022,-0.5789,-0.5712,-0.5712,-0.5479,-0.5401,-0.5401,-0.5171,-0.509,-0.5093,-0.3771,-0.1618,-0.0862,-0.3479,-0.3949,-0.2989,-0.0436,-0.0,-0.0,-0.0,-0.0,-0.0,-0.0,-0.0,-0.0,-0.0,-0.0,-0.0616,-0.2016,-0.2329,-0.327,-0.5021,-0.494,-0.4779,-0.4774,-0.5643,-0.6038,-0.6032,-0.6032,-0.5948,-0.5709,-0.5637,-0.564,-0.564,-0.564,-0.5565,-0.5565,-0.5565,-0.5511,-0.55,-0.5457,-0.5387,-0.5301,-0.5225,-0.5258,-0.5371,-0.5319,-0.5246,-0.5157,-0.4999,-0.4878,-0.4834,-0.4964,-0.5096,-0.5166,-0.5166,-0.5233,-0.51,-0.457,-0.4657,-0.4932,-0.5107,-0.5214,-0.5144,-0.4696,-0.4585,-0.4455,-0.3908,-0.383,-0.3752,-0.3443,-0.3365,-0.3193,-0.2605,-0.2789,-0.2647,-0.169,-0.2716,-0.2979,-0.1256,-0.2082,-0.2351,-0.1217,-0.1901,-0.268,-0.3101,-0.3858,-0.4203,-0.3932,-0.4027,-0.4462,-0.5101,-0.5251,-0.564,-0.6271,-0.6363,-0.6407,-0.6407,-0.6451,-0.6451,-0.641,-0.6441,-0.6393,-0.6271,-0.6109,-0.5951,-0.5792,-0.5646,-0.5569,-0.5569,-0.5329,-0.5171,-0.5174,-0.5021,-0.5021,-0.5021,-0.4964,-0.2283,-0.0,-0.0,-0.0,-0.0,-0.0,-0.0,-0.0,-0.0,-0.0,-0.0,-0.0,-0.0,-0.0,-0.0,-0.0,-0.0,-0.0,-0.159,-0.245,-0.2501,-0.2891,-0.289,-0.2503,-0.4467,-0.5814,-0.6295,-0.6295,-0.597,-0.5398,-0.5491,-0.5649,-0.5796,-0.5649,-0.5575,-0.5575,-0.5575,-0.5575,-0.5562,-0.5594,-0.5544,-0.5544,-0.5309,-0.5152,-0.5204,-0.5492,-0.5434,-0.5126,-0.4842,-0.4754,-0.4779,-0.4779,-0.5052,-0.5396,-0.5396,-0.5119,-0.4846,-0.5259,-0.4322,-0.3213,-0.3354,-0.3559,-0.3691,-0.3693,-0.3764,-0.383,-0.3752,-0.3752,-0.3521,-0.2666,-0.251,-0.2198,-0.1414,-0.1335,-0.1335,-0.1257,-0.1335,-0.11,-0.0629,-0.0562,-0.057,-0.057,-0.0994,-0.1258,-0.1257,-0.2871,-0.377,-0.3767,-0.3363,-0.289,-0.2503,-0.2891,-0.4146,-0.6295,-0.6274,-0.6338,-0.6342,-0.6403,-0.6403,-0.6285,-0.6517,-0.643,-0.6295,-0.6295,-0.5977,-0.5578,-0.5587,-0.559,-0.5509,-0.511,-0.4951,-0.4951,-0.4951,-0.4951,-0.4953,-0.1526,-0.0707,-0.0,-0.0,-0.0,-0.0,-0.0,-0.0,-0.0,-0.0,-0.0,-0.0,-0.0,-0.0,-0.0,-0.0,-0.0,-0.0,-0.0,-0.0454,-0.0765,-0.0783,-0.0862,-0.0862,-0.0783,-0.133,-0.2348,-0.3602,-0.3917,-0.3995,-0.3834,-0.4709,-0.455,-0.3521,-0.3443,-0.3444,-0.3444,-0.3444,-0.3444,-0.3443,-0.342,-0.3409,-0.3403,-0.3343,-0.3343,-0.3291,-0.3411,-0.3403,-0.3311,-0.3237,-0.3072,-0.2885,-0.2885,-0.3153,-0.3487,-0.3493,-0.3424,-0.3299,-0.3099,-0.2993,-0.2881,-0.3218,-0.3314,-0.3411,-0.371,-0.3748,-0.3452,-0.2275,-0.204,-0.1961,-0.1727,-0.1649,-0.1571,-0.1335,-0.1335,-0.1178,-0.0864,-0.11,-0.1265,-0.1126,-0.0575,-0.0167,-0.0167,-0.0595,-0.085,-0.0905,-0.1285,-0.1422,-0.1177,-0.1568,-0.204,-0.2514,-0.2902,-0.4162,-0.624,-0.6298,-0.6285,-0.6285,-0.6329,-0.6329,-0.6213,-0.481,-0.4095,-0.4068,-0.4073,-0.3997,-0.3832,-0.3538,-0.3436,-0.3431,-0.33,-0.3238,-0.3213,-0.3213,-0.3245,-0.321,-0.0,-0.0,-0.0,-0.0,-0.0,-0.0,-0.0,-0.0,-0.0,-0.0,-0.0,-0.0,-0.0,-0.0,-0.0,-0.0,-0.0,-0.0,-0.0,-0.0,-0.0,-0.0,-0.0,-0.0,-0.0,-0.0,-0.047,-0.1488,-0.1723,-0.188,-0.1879,-0.2666,-0.3215,-0.345,-0.2116,-0.1488,-0.1488,-0.1488,-0.1488,-0.1488,-0.1488,-0.148,-0.1542,-0.1518,-0.1524,-0.1539,-0.1501,-0.1547,-0.1526,-0.1512,-0.1395,-0.1276,-0.1276,-0.141,-0.1611,-0.1613,-0.1612,-0.1689,-0.202,-0.2387,-0.2617,-0.2196,-0.2166,-0.2201,-0.2469,-0.2496,-0.2277,-0.1257,-0.1021,-0.11,-0.1257,-0.1178,-0.1021,-0.1021,-0.1178,-0.1178,-0.0943,-0.0786,-0.079,-0.0801,-0.0328,-0.0,-0.0,-0.0254,-0.0423,-0.0408,-0.0402,-0.0238,-0.0,-0.0471,-0.1021,-0.1493,-0.1727,-0.2514,-0.3777,-0.4641,-0.5029,-0.5018,-0.5018,-0.55,-0.623,-0.4948,-0.3446,-0.1877,-0.188,-0.187,-0.1851,-0.1596,-0.1501,-0.1485,-0.1171,-0.1102,-0.1117,-0.1267,-0.1285,-0.1312,-0.0,-0.0,-0.0,-0.0,-0.0,-0.0,-0.0,-0.0,-0.0,-0.0,-0.0,-0.0,-0.0,-0.0,-0.0,-0.0,-0.0,-0.0,-0.0,-0.0,-0.0,-0.0,-0.0,-0.0,-0.0,-0.0,-0.0,-0.0,-0.0,-0.0,-0.0,-0.0,-0.1645,-0.4408,-0.1332,-0.0,-0.0,-0.0,-0.0,-0.0,-0.0,-0.0,-0.0,-0.0,-0.0,-0.0,-0.0,-0.0,-0.0,-0.0,-0.0,-0.0,-0.0,-0.0,-0.0,-0.0,-0.0,-0.0272,-0.1541,-0.2192,-0.215,-0.0826,-0.0456,-0.0456,-0.0456,-0.0541,-0.055,-0.055,-0.055,-0.0707,-0.11,-0.0864,-0.0628,-0.055,-0.0943,-0.1178,-0.1178,-0.0471,-0.0,-0.0,-0.0,-0.0,-0.0,-0.0,-0.0,-0.0,-0.0,-0.0,-0.0,-0.0,-0.0,-0.0,-0.0,-0.0,-0.0,-0.1887,-0.2826,-0.2812,-0.2812,-0.3841,-0.5767,-0.5767,-0.362,-0.0,-0.0,-0.0,0.0076,0.0075,0.0074,0.0145,0.0797,0.1088,0.109,0.0653,0.0591,0.0679,-0.0,-0.0,-0.0,-0.0,-0.0,-0.0,-0.0,-0.0,-0.0,-0.0,-0.0,-0.0,-0.0,-0.0,-0.0,-0.0,-0.0,-0.0,-0.0,-0.0,-0.0,-0.0,-0.0,-0.0,-0.0,-0.0,-0.0,-0.0,-0.0,-0.0,-0.0,-0.0,-0.0386,-0.102,-0.0308,-0.0,-0.0,-0.0,-0.0,-0.0,-0.0,-0.0,-0.0,-0.0,-0.0,-0.0,-0.0,-0.0,-0.0,-0.0,-0.0,-0.0,-0.0,-0.0,-0.0,-0.0,-0.0,-0.007,-0.0359,-0.0514,-0.0526,-0.0155,-0.0078,-0.0078,-0.0078,-0.0156,-0.0157,-0.0157,-0.0157,-0.0157,-0.0236,-0.0786,-0.0943,-0.0236,-0.0236,-0.0314,-0.0314,-0.0157,-0.0,-0.0,-0.0,-0.0,-0.0,-0.0,-0.0,-0.0,-0.0,-0.0,-0.0,-0.0,-0.0,-0.0,-0.0,-0.0,-0.0,-0.0471,-0.0706,-0.0706,-0.0706,-0.0941,-0.1335,-0.1335,-0.0864,-0.0,-0.0,0.0304,0.083,0.087,0.071,0.0423,0.0553,0.0833,0.106,0.099,0.1006,0.0955,-0.0072,0.0146,0.0224,-0.0,-0.0,-0.0,-0.0,-0.0,-0.0,-0.0,-0.0,-0.0,-0.0,-0.0,-0.0,-0.0,-0.0,-0.0,-0.0,-0.0,-0.0,-0.0,-0.0,-0.0,-0.0,-0.0,-0.0,-0.0,-0.0,-0.0,-0.0,-0.0,-0.0,-0.0,-0.0,-0.0,-0.0,-0.0,-0.0,-0.0,-0.0,-0.0,-0.0,-0.0,-0.0,-0.0,-0.0,-0.0,-0.0,-0.0,-0.0,-0.0,-0.0,-0.0,-0.0,-0.0,-0.0,-0.0,-0.0,-0.0,-0.0,-0.0,-0.0,-0.0,-0.0,-0.0,-0.0,-0.0,-0.0,-0.0,-0.0,-0.0393,-0.055,-0.0079,-0.0,-0.0,-0.0,-0.0,-0.0,-0.0,-0.0,-0.0,-0.0,-0.0,0.0157,0.055,0.0236,-0.0,-0.0,-0.0,-0.0,-0.0,-0.0,0.0236,0.0628,0.0628,0.0471,0.0314,0.0079,-0.0,-0.0,-0.0,0.0236,0.0628,0.0536,0.0602,0.0815,0.0997,0.0974,0.0756,0.0813,0.0884,0.1101,0.1099,0.1119,0.1073,0.0071,0.0431,0.0514,0.03,0.0077,-0.0,-0.0,-0.0,-0.0,-0.0,-0.0,-0.0,-0.0,-0.0,-0.0,-0.0,-0.0,-0.0,-0.0,-0.0,-0.0,-0.0,-0.0,-0.0,-0.0,-0.0,-0.0,-0.0,-0.0,-0.0,-0.0,-0.0,-0.0,-0.0,-0.0,-0.0,-0.0,-0.0,-0.0,-0.0,-0.0,-0.0,-0.0,-0.0,-0.0,-0.0,-0.0,-0.0,-0.0,-0.0,-0.0,-0.0,-0.0,-0.0,-0.0,-0.0,-0.0,-0.0,-0.0,-0.0,-0.0,-0.0,-0.0,-0.0,-0.0,-0.0,-0.0,-0.0,-0.0,-0.0,-0.0,-0.0,-0.0,-0.0,-0.0,-0.0,-0.0,-0.0,-0.0,-0.0,0.0157,0.0236,0.0236,0.0157,0.0393,0.11,0.055,0.0157,0.0079,0.0079,0.0079,0.0079,0.0079,0.0471,0.1178,0.1257,0.11,0.0707,0.0393,0.0157,0.0079,0.0079,0.047,0.1169,0.1141,0.089,0.065,0.0985,0.11,0.1078,0.1078,0.1078,0.1078,0.1076,0.1092,0.1113,0.0943,0.0727,0.0657,0.1025,0.0524,-0.0,-0.0,-0.0,-0.0,-0.0,-0.0,-0.0,-0.0,-0.0,-0.0,-0.0,-0.0,-0.0,-0.0,-0.0,-0.0,-0.0,-0.0,-0.0,-0.0,-0.0,-0.0,-0.0,-0.0,-0.0,-0.0,-0.0,-0.0,-0.0,-0.0,-0.0,-0.0,-0.0,-0.0,-0.0,-0.0,-0.0,-0.0,-0.0,-0.0,-0.0,-0.0,-0.0,-0.0,-0.0,-0.0,-0.0,-0.0,-0.0,-0.0,-0.0,-0.0,-0.0,-0.0,-0.0,-0.0,-0.0,-0.0,-0.0,-0.0,-0.0,-0.0,-0.0,-0.0,-0.0,-0.0,-0.0,-0.0,-0.0,-0.0,-0.0,-0.0,-0.0,-0.0,-0.0,0.0629,0.11,0.11,0.0786,0.055,0.0707,0.0943,0.0943,0.055,0.055,0.055,0.055,0.055,0.055,0.0707,0.11,0.1257,0.1178,0.1178,0.0943,0.055,0.055,0.0543,0.0608,0.1037,0.1155,0.1054,0.1097,0.1081,0.1076,0.1076,0.1076,0.1076,0.1076,0.1078,0.1082,0.1117,0.0989,0.0927,0.1141,0.0801,0.0369,0.0073,-0.0,0.0146,0.0565,0.064,0.0489,0.0065,0.0314,0.0497,0.0503,0.0384,0.0258,0.0258,0.0269,0.0206,-0.0,-0.0,-0.0,-0.0,-0.0,-0.0,-0.0,-0.0,-0.0,-0.0,-0.0,-0.0,-0.0,-0.0,-0.0,-0.0,-0.0,-0.0,-0.0,-0.0,-0.0,-0.0,-0.0,-0.0,-0.0,-0.0,-0.0,-0.0,-0.0,-0.0,-0.0,-0.0,-0.0,-0.0,-0.0,-0.0,-0.0,-0.0,-0.0,-0.0,-0.0,-0.0,-0.0,-0.0,-0.0,-0.0,-0.0,-0.0,-0.0,-0.0,-0.0,-0.0,-0.0,0.0393,0.0707,0.0707,0.0471,0.0314,0.0314,0.0707,0.1021,0.1257,0.11,0.1021,0.1021,0.1178,0.1178,0.1021,0.1021,0.1021,0.1021,0.1021,0.1021,0.1021,0.1178,0.1335,0.1335,0.1727,0.1649,0.1021,0.1021,0.093,0.0907,0.1106,0.1149,0.1119,0.1089,0.1077,0.1076,0.1076,0.1076,0.1143,0.1545,0.1545,0.1412]},{"header":{"parameterUnit":"m.s-1","parameterCategory":1,"la1":30.6,"la2":28.766,"lo1":-90.7593,"lo2":-88.6598,"dy":0.0162,"dx":0.0183,"nx":116,"ny":114,"refTime":"2023-06-28T06:00:00:Z","depth":0,"parameterNumber":3,"parameterNumberName":"V-component_of_WINDS"},"data":[0.0,0.0,0.0,0.0,0.0,0.0,0.0,0.0,0.0,0.0,0.0,0.0,0.0,0.0,0.0,0.0,0.0,0.0,0.0,0.0,0.0,0.0,0.0,0.0,0.0,0.0,0.0,0.0,0.0,0.0,0.0,0.0,0.0,0.0,0.0,0.0,0.0,0.0,0.0,0.0,0.0,0.0,0.0,0.0,0.0,0.0,0.0,0.0,0.0,0.0,0.0,0.0,0.0,0.0,0.0,0.0,0.0,0.0,0.0,0.0,0.0,0.0,0.0,0.0,0.0,0.0,0.0,0.0,0.0,0.0,0.0,0.0,0.0,0.0,0.0,0.0,0.0,0.0,0.0,0.0,0.0,0.0,0.0,0.0,0.0,0.0,0.0,0.0,0.0,0.0,0.0,0.0,0.0,0.0,0.0,0.0,0.0,0.0,0.0,0.0,0.0,0.0,0.0,0.0,0.0,0.0,0.0,0.0,0.0,0.0,0.0,0.0,0.0,0.0,0.0,0.0,0.0,0.0,0.0,0.0,0.0,0.0,0.0,0.0,0.0,0.0,0.0,0.0,0.0,0.0,0.0,0.0,0.0,0.0,0.0,0.0,0.0,0.0,0.0,0.0,0.0,0.0,0.0,0.0,0.0,0.0,0.0,0.0,0.0,0.0,0.0,0.0,0.0,0.0,0.0,0.0,0.0,0.0,0.0,0.0,0.0,0.0,0.0,0.0,0.0,0.0,0.0,0.0,0.0,0.0,0.0,0.0,0.0,0.0,0.0,0.0,0.0,0.0,0.0,0.0,0.0,0.0,0.0,0.0,0.0,0.0,0.0,0.0,0.0,0.0,0.0,0.0,0.0,0.0,0.0,0.0,0.0,0.0,0.0,0.0,0.0,0.0,0.0,0.0,0.0,0.0,0.0,0.0,0.0,0.0,0.0,0.0,0.0,0.0,0.0,0.0,0.0,0.0,0.0,0.0,0.0,0.0,0.0,0.0,0.0,0.0,0.0,0.0,0.0,0.0,0.0,0.0,0.0,0.0,0.0,0.0,0.0,0.0,0.0,0.0,0.0,0.0,0.0,0.0,0.0,0.0,0.0,0.0,0.0,0.0,0.0,0.0,0.0,0.0,0.0,0.0,0.0,0.0,0.0,0.0,0.0,0.0,0.0,0.0,0.0,0.0,0.0,0.0,0.0,0.0,0.0,0.0,0.0,0.0,0.0,0.0,0.0,0.0,0.0,0.0,0.0,0.0,0.0,0.0,0.0,0.0,0.0,0.0,0.0,0.0,0.0,0.0,0.0,0.0,0.0,0.0,0.0,0.0,0.0,0.0,0.0,0.0,0.0,0.0,0.0,0.0,0.0,0.0,0.0,0.0,0.0,0.0,0.0,0.0,0.0,0.0,0.0,0.0,0.0,0.0,0.0,0.0,0.0,0.0,0.0,0.0,0.0,0.0,0.0,0.0,0.0,0.0,0.0,0.0,0.0,0.0,0.0,0.0,0.0,0.0,0.0,0.0,0.0,0.0,0.0,0.0,0.0,0.0,0.0,0.0,0.0,0.0,0.0,0.0,0.0,0.0,0.0,0.0,0.0,0.0,0.0,0.0,0.0,0.0,0.0,0.0,0.0,0.0,0.0,0.0,0.0,0.0,0.0,0.0,0.0,0.0,0.0,0.0,0.0,0.0,0.0,0.0,0.0,0.0,0.0,0.0,0.0,0.0,0.0,0.0,0.0,0.0,0.0,0.0,0.0,0.0,0.0,0.0,0.0,0.0,0.0,0.0,0.0,0.0,0.0,0.0,0.0,0.0,0.0,0.0,0.0,0.0,0.0,0.0,0.0,0.0,0.0,0.0,0.0,0.0,0.0,0.0,0.0,0.0,0.0,0.0,0.0,0.0,0.0,0.0,0.0,0.0,0.0,0.0,0.0,0.0,0.0,0.0,0.0,0.0,0.0,0.0,0.0,0.0,0.0,0.0,0.0,0.0,0.0,0.0,0.0,0.0,0.0,0.0,0.0,0.0,0.0,0.0,0.0,0.0,0.0,0.0,0.0,0.0,0.0,0.0,0.0,0.0,0.0,0.0,0.0,0.0,0.0,0.0,0.0,0.0,0.0,0.0,0.0,0.0,0.0,0.0,0.0,0.0,0.0,0.0,0.0,0.0,0.0,0.0,0.0,0.0,0.0,0.0,0.0,0.0,0.0,0.0,0.0,0.0,0.0,0.0,0.0,0.0,0.0,0.0,0.0,0.0,0.0,0.0,0.0,0.0,0.0,0.0,0.0,0.0,0.0,0.0,0.0,0.0,0.0,0.0,0.0,0.0,0.0,0.0,0.0,0.0,0.0,0.0,0.0,0.0,0.0,0.0,0.0,0.0,0.0,0.0,0.0,0.0,0.0,0.0,0.0,0.0,0.0,0.0,0.0,0.0,0.0,0.0,0.0,0.0,0.0,0.0,0.0,0.0,0.0,0.0,0.0,0.0,0.0,0.0,0.0,0.0,0.0,0.0,0.0,0.0,0.0,0.0,0.0,0.0,0.0,0.0,0.0,0.0,0.0,0.0,0.0,0.0,0.0,0.0,0.0,0.0,0.0,0.0,0.0,0.0,0.0,0.0,0.0,0.0,0.0,0.0,0.0,0.0,0.0,0.0,0.0,0.0,0.0,0.0,0.0,0.0,0.0,0.0,0.0,0.0,0.0,0.0,0.0,0.0,0.0,0.0,0.0,0.0,0.0,0.0,0.0,0.0,0.0,0.0,0.0,0.0,0.0,0.0,0.0,0.0,0.0,0.0,0.0,0.0,0.0,0.0,0.0,0.0,0.0,0.0,0.0,0.0,0.0,0.0,0.0,0.0,0.0,0.0,0.0,0.0,0.0,0.0,0.0,0.0,0.0,0.0,0.0,0.0,0.0,0.0,0.0,0.0,0.0,0.0,0.0,0.0,0.0,0.0,0.0,0.0,0.0,0.0,0.0,0.0,0.0,0.0,0.0,0.0,0.0,0.0,0.0,0.0,0.0,0.0,0.0,0.0,0.0,0.0,0.0,0.0,0.0,0.0,0.0,0.0,0.0,0.0,0.0,0.0,0.0,0.0,0.0,0.0,0.0,0.0,0.0,0.0,0.0,0.0,0.0,0.0,0.0,0.0,0.0,0.0,0.0,0.0,0.0,0.0,0.0,0.0,0.0,0.0,0.0,0.0,0.0,0.0,0.0,0.0,0.0,0.0,0.0,0.0,0.0,0.0,0.0,0.0,0.0,0.0,0.0,0.0,0.0,0.0,0.0,0.0,0.0,0.0,0.0,0.0,0.0,0.0,0.0,0.0,0.0,0.0,0.0,0.0,0.0,0.0,0.0,0.0,0.0,0.0,0.0,0.0,0.0,0.0,0.0,0.0,0.0,0.0,0.0,0.0,0.0,0.0,0.0,0.0,0.0,0.0,0.0,0.0,0.0,0.0,0.0,0.0,0.0,0.0,0.0,0.0,0.0,0.0,0.0,0.0,0.0,0.0,0.0,0.0,0.0,0.0,0.0,0.0,0.0,0.0,0.0,0.0,0.0,0.0,0.0,0.0,0.0,0.0,0.0,0.0,0.0,0.0,0.0,0.0,0.0,0.0,0.0,0.0,0.0,0.0,0.0,0.0,0.0,0.0,0.0,0.0,0.0,0.0,0.0,0.0,0.0,0.0,0.0,0.0,0.0,0.0,0.0,0.0,0.0,0.0,0.0,0.0,0.0,0.0,0.0,0.0,0.0,0.0,0.0,0.0,0.0,0.0,0.0,0.0,0.0,0.0,0.0,0.0,0.0,0.0,0.0,0.0,0.0,0.0,0.0,0.0,0.0,0.0,0.0,0.0,0.0,0.0,0.0,0.0,0.0,0.0,0.0,0.0,0.0,0.0,0.0,0.0,0.0,0.0,0.0,0.0,0.0,0.0,0.0,0.0,0.0,0.0,0.0,0.0,0.0,0.0,0.0,0.0,0.0,0.0,0.0,0.0,0.0,0.0,0.0,0.0,0.0,0.0,0.0,0.0,0.0,0.0,0.0,0.0,0.0,0.0,0.0,0.0,0.0,0.0,0.0,0.0,0.0,0.0,0.0,0.0,0.0,0.0,0.0,0.0,0.0,0.0,0.0,0.0,0.0,0.0,0.0,0.0,0.0,0.0,0.0,0.0,0.0,0.0,0.0,0.0,0.0,0.0,0.0,0.0,0.0,0.0,0.0,0.0,0.0,0.0,0.0,0.0,0.0,0.0,0.0,0.0,0.0,0.0,0.0,0.0,0.0,0.0,0.0,0.0,0.0,0.0,0.0,0.0,0.0,0.0,0.0,0.0,0.0,0.0,0.0,0.0,0.0,0.0,0.0,0.0,0.0,0.0,0.0,0.0,0.0,0.0,0.0,0.0,0.0,0.0,0.0,0.0,0.0,0.0,0.0,0.0,0.0,0.0,0.0,0.0,0.0,0.0,0.0,0.0,0.0,0.0,0.0,0.0,0.0,0.0,0.0,0.0,0.0,0.0,0.0,0.0,0.0,0.0,0.0,0.0,0.0,0.0,0.0,0.0,0.0,0.0,0.0,0.0,0.0,0.0,0.0,0.0,0.0,0.0,0.0,0.0,0.0,0.0,0.0,0.0,0.0,0.0,0.0,0.0,0.0,0.0,0.0,0.0,0.0,0.0,0.0,0.0,0.0,0.0,0.0,0.0,0.0,0.0,0.0,0.0,0.0,0.0,0.0,0.0,0.0,0.0,0.0,0.0,0.0,0.0,0.0,0.0,0.0,0.0,0.0,0.0,0.0,0.0,0.0,0.0,0.0,0.0,0.0,0.0,0.0,0.0,0.0,0.0,0.0,0.0,0.0,0.0,0.0,0.0,0.0,0.0,0.0,0.0,0.0,0.0,0.0,0.0,0.0,0.0,0.0,0.0,0.0,0.0,0.0,0.0,0.0,0.0,0.0,0.0,0.0,0.0,0.0,0.0,0.0,0.0,0.0,0.0,0.0,0.0,0.0,0.0,0.0,0.0,0.0,0.0,0.0,0.0,0.0,0.0,0.0,0.0,0.0,0.0,0.0,0.0,0.0,0.0,0.0,0.0,0.0,0.0,0.0,0.0,0.0,0.0,0.0,0.0,0.0,0.0,0.0,0.0,0.0,0.0,0.0,0.0,0.0,0.0,0.0,0.0,0.0,0.0,0.0,0.0,0.0,0.0,0.0,0.0,0.0,0.0,0.0,0.0,0.0,0.0,0.0,0.0,0.0,0.0,0.0,0.0,0.0,0.0,0.0,0.0,0.0,0.0,0.0,0.0,0.0,0.0,0.0,0.0,0.0,0.0,0.0,0.0,0.0,0.0,0.0,0.0,0.0,0.0,0.0,0.0,0.0,0.0,0.0,0.0,0.0,0.0,0.0,0.0,0.0,0.0,0.0,0.0,0.0,0.0,0.0,0.0,0.0,0.0,0.0,0.0,0.0,0.0,0.0,0.0,0.0,0.0,0.0,0.0,0.0,0.0,0.0,0.0,0.0,0.0,0.0,0.0,0.0,0.0,0.0,0.0,0.0,0.0,0.0,0.0,0.0,0.0,0.0,0.0,0.0,0.0,0.0,0.0,0.0,0.0,0.0,0.0,0.0,0.0,0.0,0.0,0.0,0.0,0.0,0.0,0.0,0.0,0.0,0.0,0.0,0.0,0.0,0.0,0.0,0.0,0.0,0.0,0.0,0.0,0.0,0.0,0.0,0.0,0.0,0.0,0.0,0.0,0.0,0.0,0.0,0.0,0.0,0.0,0.0,0.0,0.0,0.0,0.0,0.0,0.0,0.0,0.0,0.0,0.0,0.0,0.0,0.0,0.0,0.0,0.0,0.0,0.0,0.0,0.0,0.0,0.0,0.0,0.0,0.0,0.0,0.0,0.0,0.0,0.0,0.0,0.0,0.0,0.0,0.0,0.0,0.0,0.0,0.0,0.0,0.0,0.0,0.0,0.0,0.0,0.0,0.0,0.0,0.0,0.0,0.0,0.0,0.0,0.0,0.0,0.0,0.0,0.0,0.0,0.0,0.0,0.0,0.0,0.0,0.0,0.0,0.0,0.0,0.0,0.0,0.0,0.0,0.0,-1.2335,0.0,0.0,0.0,0.0,0.0,0.0,0.0,0.0,0.0,0.0,0.0,0.0,0.0,0.0,0.0,0.0,0.0,0.0,0.0,0.0,0.0,0.0,0.0,0.0,0.0,0.0,0.0,0.0,0.0,0.0,0.0,0.0,0.0,0.0,0.0,0.0,0.0,0.0,0.0,0.0,0.0,0.0,0.0,0.0,0.0,0.0,0.0,0.0,0.0,0.0,0.0,0.0,0.0,0.0,0.0,0.0,0.0,0.0,0.0,0.0,0.0,0.0,0.0,0.0,0.0,0.0,0.0,0.0,0.0,0.0,0.0,0.0,0.0,0.0,0.0,0.0,0.0,0.0,0.0,0.0,0.0,0.0,0.0,0.0,0.0,0.0,0.0,0.0,0.0,0.0,0.0,0.0,0.0,0.0,0.0,0.0,0.0,0.0,0.0,0.0,0.0,0.0,0.0,0.0,0.0,0.0,0.0,0.0,0.0,0.0,0.0,0.0,0.0,0.0,0.0,0.0,-1.2747,0.0,0.0,0.0,0.0,0.0,0.0,0.0,0.0,0.0,0.0,0.0,0.0,0.0,0.0,0.0,0.0,0.0,0.0,0.0,0.0,0.0,0.0,0.0,0.0,0.0,0.0,0.0,0.0,0.0,0.0,0.0,0.0,0.0,0.0,0.0,0.0,0.0,0.0,0.0,0.0,0.0,0.0,0.0,0.0,0.0,0.0,0.0,0.0,0.0,0.0,0.0,0.0,0.0,0.0,0.0,0.0,0.0,0.0,0.0,0.0,0.0,0.0,0.0,0.0,0.0,0.0,0.0,0.0,0.0,0.0,0.0,0.0,0.0,0.0,0.0,0.0,0.0,0.0,0.0,0.0,0.0,0.0,0.0,0.0,0.0,0.0,0.0,0.0,0.0,0.0,0.0,0.0,0.0,0.0,0.0,0.0,0.0,0.0,0.0,0.0,0.0,0.0,0.0,0.0,0.0,0.0,0.0,0.0,-1.6588,-1.7125,-1.7866,-1.7887,-1.7946,-1.7977,-1.6656,-1.6083,-1.6038,0.0,0.0,0.0,0.0,0.0,0.0,0.0,0.0,0.0,0.0,0.0,0.0,0.0,0.0,0.0,0.0,0.0,0.0,0.0,0.0,0.0,0.0,0.0,0.0,0.0,0.0,0.0,0.0,0.0,0.0,0.0,0.0,0.0,0.0,0.0,0.0,0.0,0.0,0.0,-1.5402,-1.7072,-1.7401,-1.6494,0.0,0.0,0.0,0.0,0.0,0.0,0.0,0.0,0.0,0.0,0.0,0.0,0.0,0.0,0.0,0.0,0.0,0.0,0.0,0.0,0.0,0.0,0.0,0.0,0.0,0.0,0.0,0.0,0.0,0.0,0.0,0.0,0.0,0.0,0.0,0.0,0.0,0.0,0.0,0.0,0.0,0.0,0.0,0.0,-0.3499,-0.5453,0.0,0.0,0.0,0.0,0.0,0.0,0.0,0.0,0.0,0.0,0.0,0.0,0.0,0.0,-1.7971,-1.9302,-2.0833,-2.2498,-2.3134,-2.3545,-2.3476,-2.3508,-2.3384,-2.2971,-2.1855,0.0,-1.7779,-1.7285,0.0,0.0,0.0,0.0,0.0,0.0,0.0,0.0,0.0,0.0,0.0,0.0,0.0,0.0,0.0,0.0,0.0,0.0,0.0,0.0,0.0,0.0,0.0,0.0,0.0,0.0,0.0,0.0,0.0,0.0,0.0,0.0,0.0,0.0,0.0,0.0,-1.588,-1.6613,-1.6866,-1.8499,-1.8904,-1.8327,-1.7955,-1.707,-1.5735,-1.5039,0.0,0.0,0.0,0.0,0.0,0.0,0.0,0.0,0.0,0.0,0.0,0.0,0.0,0.0,0.0,0.0,0.0,0.0,0.0,0.0,0.0,0.0,0.0,0.0,0.0,0.0,0.0,0.0,0.0,0.0,0.0,0.0,0.0,0.0,0.0,0.0,0.0,0.0,0.0,-0.2216,-0.4804,-0.6269,-0.7693,-0.8285,0.0,0.0,0.0,0.0,0.0,0.0,0.0,0.0,0.0,-1.5028,-1.658,-1.8589,-2.1001,-2.2129,-2.3328,-2.4507,-2.4531,-2.4667,-2.4873,-2.4572,-2.4486,-2.448,-2.4386,-2.4212,-2.372,-2.132,-2.0216,-1.9911,0.0,0.0,0.0,0.0,-2.0067,-2.1243,0.0,0.0,0.0,0.0,0.0,0.0,0.0,0.0,0.0,0.0,0.0,0.0,0.0,0.0,0.0,0.0,0.0,0.0,0.0,0.0,0.0,0.0,0.0,0.0,0.0,0.0,0.0,0.0,-1.6476,-1.7328,-1.8072,-1.956,-2.0071,-1.9749,-2.0238,-1.9371,-1.7339,-1.6406,-1.53,0.0,0.0,0.0,0.0,0.0,0.0,0.0,0.0,0.0,0.0,0.0,0.0,0.0,0.0,0.0,0.0,0.0,0.0,0.0,0.0,0.0,0.0,0.0,0.0,0.0,0.0,0.0,0.0,0.0,0.0,0.0,0.0,0.0,0.0,0.0,0.0,0.0,0.0,-0.313,-0.546,-0.6738,-0.8771,-0.974,0.0,0.0,0.0,0.0,0.0,0.0,-1.2642,-1.3396,-1.5158,-1.8227,-1.9888,-2.1645,-2.3382,-2.4016,-2.4751,-2.5461,-2.4888,-2.4741,-2.4968,-2.4522,-2.4309,-2.4556,-2.5719,-2.7324,-2.8701,-2.5497,-2.4086,-2.3959,-2.3799,-2.2779,-2.165,-2.3736,-2.4926,-2.6013,0.0,0.0,0.0,0.0,0.0,0.0,0.0,0.0,0.0,0.0,0.0,0.0,0.0,0.0,0.0,0.0,0.0,0.0,0.0,0.0,0.0,0.0,0.0,0.0,0.0,0.0,0.0,-1.6581,-1.744,-1.8151,-1.876,-2.0325,-2.0961,-2.0711,-2.1188,-2.0532,-1.8948,-1.8441,-1.6807,-1.4508,0.0,0.0,0.0,0.0,0.0,0.0,0.0,0.0,0.0,0.0,0.0,0.0,0.0,0.0,0.0,0.0,0.0,0.0,0.0,0.0,0.0,0.0,0.0,0.0,0.0,0.0,0.0,0.0,0.0,0.0,0.0,0.0,0.0,0.0,0.0,0.0,0.0,0.0,0.0,-0.5847,-0.9414,0.0,0.0,0.0,0.0,-1.3159,-1.2874,-1.3713,-1.6049,-1.6455,-1.8282,-2.1669,-2.2464,-2.3457,-2.4812,-2.4945,-2.5305,-2.5905,-2.5313,-2.5039,-2.5016,-2.4367,-2.3817,-2.3724,-2.6152,-2.8421,-3.0537,-2.9272,-2.9454,-3.0351,-2.8741,-2.8468,-2.9,-2.9438,-3.0529,-3.1994,0.0,0.0,0.0,0.0,0.0,0.0,0.0,0.0,0.0,0.0,0.0,0.0,0.0,0.0,0.0,0.0,0.0,0.0,0.0,0.0,0.0,0.0,0.0,0.0,0.0,0.0,-1.5718,-1.6691,-1.7767,-1.8786,-1.9838,-2.1483,-2.2159,-2.1894,-2.2812,-2.2539,-2.132,-1.9798,-1.7415,-1.4622,-1.3863,-1.218,0.0,0.0,0.0,0.0,0.0,0.0,0.0,0.0,0.0,0.0,0.0,0.0,0.0,0.0,0.0,0.0,0.0,0.0,0.0,0.0,0.0,0.0,0.0,0.0,0.0,0.0,0.0,0.0,0.0,0.0,0.0,0.0,0.0,0.0,0.0,0.0,0.0,-0.7879,-1.0467,0.0,0.0,-1.4888,-1.6009,-1.6252,-1.7329,-1.8562,-1.9707,-2.0599,-2.1619,-2.2983,-2.3415,-2.3811,-2.3941,-2.3728,-2.3806,-2.404,-2.3602,-2.3243,-2.31,-2.2886,-2.3308,-2.4327,-2.6839,-2.995,-3.3174,-3.4706,-3.4994,-3.4555,-3.4334,-3.382,-3.3404,-3.4595,-3.5577,-3.6471,0.0,0.0,0.0,0.0,0.0,0.0,0.0,0.0,0.0,0.0,0.0,0.0,0.0,0.0,0.0,0.0,0.0,0.0,0.0,0.0,0.0,0.0,0.0,0.0,0.0,-1.6076,-1.6698,-1.7858,-1.8391,-1.9177,-2.0136,-2.1443,-2.2032,-2.2108,-2.2917,-2.2963,-2.2235,-2.039,-1.7913,-1.5019,-1.3785,-1.2047,-1.0099,0.0,0.0,0.0,0.0,0.0,0.0,0.0,0.0,0.0,0.0,0.0,0.0,0.0,0.0,0.0,0.0,0.0,0.0,0.0,0.0,0.0,0.0,0.0,0.0,0.0,0.0,0.0,0.0,0.0,0.0,0.0,0.0,0.0,0.0,0.0,-0.7736,-1.0171,-1.2516,-1.4321,-1.5599,-1.7623,-1.9117,-1.9778,-2.1286,-2.2475,-2.2978,-2.3693,-2.4111,-2.4122,-2.3812,-2.3455,-2.2673,-2.2056,-2.1556,-2.1182,-2.1283,-2.0895,-2.0329,-2.0869,-2.1873,-2.3395,-2.6689,-3.035,-3.4363,-3.7881,-3.9156,-3.8914,-3.9319,-3.8905,-3.821,-3.9485,-4.0162,-4.0542,0.0,0.0,0.0,0.0,0.0,0.0,0.0,0.0,0.0,0.0,0.0,0.0,0.0,0.0,0.0,0.0,0.0,0.0,0.0,0.0,0.0,0.0,0.0,0.0,-1.8043,-1.7811,-1.841,-2.0031,-1.9237,-1.9182,-1.9835,-2.0135,-2.061,-2.1465,-2.1599,-2.1733,-2.1684,-2.0352,-1.832,-1.5774,-1.3646,-1.1867,-1.0227,0.0,0.0,0.0,0.0,0.0,0.0,0.0,0.0,0.0,0.0,0.0,0.0,0.0,0.0,0.0,0.0,0.0,0.0,0.0,0.0,0.0,0.0,0.0,0.0,0.0,0.0,0.0,0.0,0.0,0.0,0.0,0.0,0.0,-0.6678,-0.9244,-1.144,-1.2594,-1.5465,-1.7455,-1.7689,-2.0339,-2.2542,-2.3454,-2.4491,-2.5317,-2.5696,-2.5759,-2.5551,-2.5143,-2.4018,-2.264,-2.1038,-1.9829,-1.875,-1.7825,-1.8502,-1.8226,-1.7076,-1.8384,-1.9683,-2.0879,-2.5592,-2.9873,-3.383,-3.8605,-4.1719,-4.3416,-4.337,-4.3436,-4.358,-4.399,-4.4145,-4.4145,0.0,0.0,0.0,0.0,0.0,0.0,0.0,0.0,0.0,0.0,0.0,0.0,0.0,0.0,0.0,0.0,0.0,0.0,0.0,0.0,0.0,0.0,0.0,0.0,-1.7606,-1.8155,-1.8496,-1.8523,-1.881,-1.9278,-2.0125,-2.0435,-2.1162,-2.2164,-2.2507,-2.31,-2.36,-2.1273,-1.8851,-1.616,-1.2993,-1.0429,-0.8528,0.0,0.0,0.0,0.0,0.0,0.0,0.0,0.0,0.0,0.0,0.0,0.0,0.0,0.0,0.0,0.0,0.0,0.0,0.0,0.0,0.0,0.0,0.0,0.0,0.0,0.0,0.0,0.0,0.0,0.0,0.0,0.0,-1.0788,-0.9921,-1.0746,-1.2606,-1.5809,-1.6963,-1.867,-2.1141,-2.2835,-2.4192,-2.5265,-2.6591,-2.7242,-2.7115,-2.8742,-2.9129,-2.7662,-2.6532,-2.4856,-2.2625,-1.99,-1.7892,-1.6854,-1.6665,-1.6262,-1.5681,-1.6069,-1.8105,-2.1412,-2.6314,-3.0744,-3.4959,-4.0731,-4.3377,-4.3811,-4.4197,-4.4448,-4.4607,-4.4863,-4.4881,-4.4754,0.0,0.0,0.0,0.0,0.0,0.0,0.0,0.0,0.0,0.0,0.0,0.0,0.0,0.0,0.0,0.0,0.0,0.0,0.0,0.0,0.0,0.0,0.0,-1.7787,-1.8806,-1.9292,-1.952,-1.9417,-1.8974,-1.909,-1.9864,-1.9903,-2.0559,-2.1806,-2.2333,-2.3186,-2.4138,-2.157,-1.8957,-1.6205,-1.2299,-0.9672,-0.7847,-0.6613,-0.5752,-0.5205,-0.4651,-0.3797,-0.3059,-0.317,0.0,0.0,0.0,0.0,0.0,0.0,0.0,0.0,0.0,0.0,0.0,0.0,0.0,0.0,0.0,0.0,0.0,0.0,0.0,0.0,0.0,0.0,0.0,0.0,-1.2444,-1.4194,-1.4383,-1.4997,-1.6476,-1.9449,-2.0017,-2.0982,-2.3224,-2.4203,-2.5229,-2.6158,-2.767,-2.8733,-2.8878,-3.1,-3.1491,-3.0155,-2.8148,-2.5773,-2.3137,-1.9191,-1.6363,-1.49,-1.4446,-1.3948,-1.3304,-1.3685,-1.5044,0.0,-2.495,-2.9421,-3.2376,-4.0414,-4.3711,0.0,0.0,0.0,0.0,0.0,-4.5868,-4.5676,0.0,0.0,0.0,0.0,0.0,0.0,0.0,0.0,0.0,0.0,0.0,0.0,0.0,0.0,0.0,0.0,0.0,0.0,0.0,0.0,0.0,-1.5727,-1.8048,-1.9763,-2.0647,-2.0506,-2.0736,-2.1145,-1.9313,-1.8739,-1.9271,-1.8993,-1.9688,-2.1091,-2.162,-2.2639,-2.398,-2.161,-1.901,-1.6174,-1.1889,-0.9277,-0.7672,-0.6127,-0.527,-0.4639,-0.3406,-0.2357,-0.1593,-0.1793,0.0,0.0,0.0,0.0,0.0,0.0,0.0,0.0,0.0,0.0,0.0,0.0,0.0,0.0,0.0,0.0,0.0,0.0,0.0,0.0,0.0,0.0,0.0,0.0,-1.4672,-1.6779,-1.9013,-2.0028,-2.1266,-2.2999,-2.3307,-2.384,-2.4588,-2.51,-2.5871,-2.6863,-2.8411,-2.9926,-3.1038,0.0,0.0,0.0,0.0,-2.6237,-2.321,-1.8295,-1.4787,-1.2581,-1.2269,-1.162,-1.0668,-1.1143,-1.1935,-1.3519,-2.295,-2.7817,-2.9706,-3.9391,-4.3296,-4.3472,-4.5783,-4.6684,-4.6731,-4.6842,-4.6742,-4.6519,0.0,0.0,0.0,0.0,0.0,0.0,0.0,0.0,0.0,0.0,0.0,0.0,0.0,0.0,0.0,0.0,0.0,0.0,0.0,0.0,-1.7444,-1.8957,-1.9669,-2.0311,-2.0855,-2.0435,-1.9843,-1.9131,-1.8618,-1.8705,-1.9381,-1.9094,-2.0138,-2.2481,-2.2314,-2.3365,-2.5085,-2.2662,-1.9863,-1.6718,-1.2669,-0.8984,-0.5784,-0.5073,-0.3592,-0.2115,-0.2395,-0.1243,0.0289,-0.0436,-0.0772,-0.1034,-0.2049,0.0,0.0,0.0,0.0,0.0,0.0,0.0,0.0,0.0,0.0,0.0,0.0,0.0,0.0,0.0,0.0,0.0,0.0,0.0,0.0,-1.4596,-1.6427,-1.8423,-2.008,-2.106,-2.2057,-2.3249,-2.321,-2.3947,-2.6292,-2.6835,-2.7621,-2.9055,-3.0021,-3.1222,-3.2622,-3.4923,0.0,-3.5501,-3.2296,-2.8845,-2.5031,-1.9864,-1.5526,-1.2353,0.0,0.0,-0.967,-0.8645,-1.3348,-2.2561,-2.5072,-3.0877,-3.8832,-4.273,-4.3987,-4.3656,-4.5181,-4.5868,-4.6067,-4.5968,-4.5868,-4.5716,0.0,0.0,0.0,0.0,0.0,0.0,0.0,0.0,0.0,0.0,0.0,0.0,0.0,0.0,0.0,0.0,0.0,0.0,0.0,-1.6825,-1.8108,-1.8993,-2.0466,-2.146,-2.1744,-2.0638,-2.0238,-2.0246,-1.8858,-1.8499,-1.9138,-1.916,-2.017,-2.2065,-2.2585,-2.3755,-2.5004,-2.2838,-2.0076,-1.6663,-1.3057,-0.8973,-0.5092,-0.4438,-0.3104,-0.1631,-0.1784,-0.0726,0.0618,0.0195,0.0096,0.0,-0.0702,-0.1271,-0.1787,0.0,0.0,0.0,0.0,0.0,0.0,0.0,0.0,0.0,0.0,0.0,0.0,0.0,0.0,-0.9271,0.0,0.0,-1.411,-1.5754,-1.7363,-1.8873,-2.0042,-2.0767,-2.1834,-2.3584,-2.4021,-2.4922,-2.6537,-2.7415,-2.8158,-2.9136,-3.0575,-3.1882,-3.3228,-3.5707,-3.7074,-3.6961,-3.3919,-3.0646,-2.7084,-2.1549,-1.697,-1.3626,-1.2273,-1.1101,-0.9837,-0.776,-1.2039,-2.1167,-2.395,-2.9595,-3.723,-4.0862,-4.2427,-4.2593,-4.3125,-4.417,-4.5356,-4.511,-4.4949,-4.4787,0.0,0.0,0.0,0.0,0.0,0.0,0.0,0.0,0.0,0.0,0.0,0.0,0.0,0.0,0.0,0.0,0.0,0.0,0.0,-1.7439,-1.852,-1.9011,-2.1065,-2.2282,-2.2466,-2.0878,-2.0437,-2.1526,-1.9179,-1.8279,-1.878,-1.9216,-2.0208,-2.1545,-2.2779,-2.3972,-2.4806,-2.2495,-1.9658,-1.6389,-1.2448,-0.8418,-0.4545,-0.3598,-0.2562,-0.1692,-0.155,-0.0746,0.0307,0.0517,0.0713,0.0792,0.0776,0.0182,-0.0333,-0.0222,-0.1697,0.0,0.0,0.0,0.0,0.0,0.0,0.0,0.0,0.0,-0.7957,-0.9473,-0.9868,-1.0587,-1.2459,-1.3545,-1.4696,-1.6615,-1.7942,-1.8988,-1.9893,-2.0285,-2.1221,-2.3594,-2.4834,-2.5953,-2.713,-2.7876,-2.8563,-2.9014,-3.0915,-3.2416,-3.369,-3.6059,-3.7574,-3.7996,-3.5091,-3.2076,-2.8897,-2.3596,-1.9155,-1.5715,-1.3998,-1.2722,-1.1618,-0.9401,-1.2579,-2.003,-2.5342,-3.0083,-3.4339,-3.8149,-4.0232,-4.1064,-4.0863,-4.214,-4.4164,-4.4044,-4.3905,-4.3789,0.0,0.0,0.0,0.0,0.0,0.0,0.0,0.0,0.0,0.0,0.0,0.0,0.0,0.0,0.0,0.0,0.0,0.0,-1.782,-1.8635,-1.9953,-2.188,-2.2028,-2.2176,-2.2458,-2.0209,-1.909,-1.9278,-1.8359,-1.8102,-1.8525,-1.9422,-2.0884,-2.2791,-2.3002,-2.4149,-2.5786,-2.138,-1.8332,-1.5866,-0.9784,-0.5834,-0.3448,-0.1844,-0.1205,-0.1167,-0.1584,-0.1052,-0.0097,0.0612,0.0694,0.066,0.1284,0.1046,0.035,-0.0716,0.0,-0.2442,-0.3142,-0.3463,-0.3543,-0.3537,-0.4512,-0.6083,0.0,0.0,-1.0329,-1.2987,-1.3742,-1.4102,-1.5063,-1.5943,-1.6734,-1.7574,-1.8398,-1.9125,-1.9778,-2.0016,-2.0883,-2.3268,-2.4547,-2.6384,-2.9377,-2.9538,-2.9816,-3.0818,-3.1903,-3.3105,-3.4644,-3.6627,-3.8008,-3.8895,-3.6552,-3.362,-3.0121,-2.672,-2.2708,-1.8136,-1.8285,-1.7446,-1.573,-1.5805,-2.087,-2.9763,-3.6429,-3.9224,-3.8923,-3.8298,-3.862,-3.9546,-3.9331,-4.0385,-4.1981,-4.2364,-4.2443,-4.2396,0.0,0.0,0.0,0.0,0.0,0.0,0.0,0.0,0.0,0.0,0.0,0.0,0.0,0.0,0.0,0.0,0.0,0.0,-1.7288,-1.8407,-1.9691,-2.1265,-2.1248,-2.1631,-2.2332,-1.9563,-1.8764,-1.9946,-1.8295,-1.7846,-1.8705,-1.9455,-2.0766,-2.2539,-2.326,-2.4234,-2.5164,-2.1126,-1.8456,-1.638,-1.0369,-0.6509,-0.4426,-0.2806,-0.1761,-0.1219,-0.1921,-0.1615,0.0,0.0,0.0093,0.0916,0.1347,0.1387,0.1109,0.008,-0.1242,0.0,-0.4249,-0.4684,0.0,0.0,-0.6465,-0.782,-0.9469,-1.0501,-1.1508,-1.3172,-1.365,-1.3848,-1.449,-1.5375,-1.6241,0.0,-1.7795,-1.8462,-1.8961,-1.928,-1.992,-2.1436,-2.3152,-2.5327,-2.8236,-2.9328,-3.0146,-3.0804,-3.2201,-3.3659,-3.4887,-3.659,-3.7828,-3.8443,-3.6782,-3.4647,-3.1796,-2.8937,-2.5538,-2.1807,-2.1024,-1.9963,-1.8435,-1.7643,-2.1354,-2.903,-3.6715,-3.9474,-3.8496,-3.7749,-3.7951,-3.884,-3.9262,-4.006,-4.0987,-4.126,-4.1541,-4.1851,0.0,0.0,0.0,0.0,0.0,0.0,0.0,0.0,0.0,0.0,0.0,0.0,0.0,0.0,0.0,0.0,0.0,0.0,0.0,-1.7586,-1.8776,-2.0119,-2.0145,0.0,-2.1755,-1.8986,-1.8229,-1.977,-1.7899,-1.7249,-1.7824,-1.8939,-2.0124,-2.1402,-2.2813,-2.4039,-2.4566,-2.0392,-1.7821,-1.5952,-0.979,-0.6137,-0.4028,-0.2873,-0.1918,-0.1246,-0.2003,-0.208,0.0,0.0,-0.0511,0.0424,0.134,0.1484,0.1152,0.0387,-0.1358,-0.325,-0.4792,0.0,0.0,-0.6564,-0.7804,-0.9047,-1.0154,-1.1202,-1.2119,-1.3072,-1.3348,-1.3755,-1.4475,-1.5089,0.0,-1.6513,-1.7147,-1.7659,-1.7801,-1.8289,-1.9228,-2.0597,-2.212,-2.4182,-2.7159,-2.8928,-3.0087,-3.0434,-3.2343,-3.3959,-3.4971,-3.6428,-3.7604,-3.8092,-3.6955,-3.5452,-3.3678,-3.1192,-2.8345,-2.539,-2.4253,-2.302,-2.1855,-2.1413,-2.3871,-2.8884,-3.5066,-3.7318,-3.673,-3.6695,-3.7281,-3.819,-3.8914,-3.9737,-4.0524,-4.0462,-4.0805,-4.1358,0.0,0.0,0.0,0.0,0.0,0.0,0.0,0.0,0.0,0.0,0.0,0.0,0.0,0.0,0.0,0.0,0.0,0.0,0.0,-1.641,-1.7288,-1.8984,-1.8908,-1.9249,-2.0316,-1.8413,-1.7321,-1.7359,-1.6744,-1.5926,-1.5003,-1.7358,-1.8758,-1.9523,-2.1281,-2.3158,-2.4662,-1.881,-1.5726,-1.3967,-0.6892,-0.2848,-0.1083,-0.0583,-0.0649,-0.0982,-0.1633,0.0,0.0,0.0,-0.0825,-0.1072,0.1081,0.1201,0.0,-0.0578,-0.2266,0.0,0.0,0.0,-0.4943,-0.613,-0.7599,-0.9139,-1.0964,-1.1642,-1.2392,-1.3709,-1.4118,-1.4621,-1.6022,-1.5793,-1.5793,-1.6712,-1.6742,-1.6623,-1.6504,-1.74,-1.9083,-2.1661,-2.2031,-2.3386,0.0,-2.8514,-2.9556,-3.0264,-3.2344,-3.3952,-3.4825,-3.6266,-3.7465,-3.8409,-3.7295,-3.6391,-3.5497,-3.3606,-3.1144,-2.833,-2.852,-2.7788,-2.6529,-2.9557,-3.1449,-3.261,-3.3633,-3.4195,-3.4372,-3.5146,-3.6308,-3.7525,-3.7872,-3.8987,-4.0455,-3.9895,-4.0106,-4.0569,0.0,0.0,0.0,0.0,0.0,0.0,0.0,0.0,0.0,0.0,0.0,0.0,0.0,0.0,0.0,0.0,0.0,0.0,0.0,-1.5813,-1.6481,-1.7847,-1.7556,-1.7943,-1.9047,-1.7505,-1.6879,-1.7153,-1.5453,-1.5306,-1.6708,-1.6948,-1.8205,-2.0281,-2.176,-2.3006,-2.3568,-1.8286,-1.558,-1.4079,-0.6694,-0.369,-0.3516,-0.1366,-0.1432,-0.2481,0.0,0.0,0.0,0.0,-0.201,-0.1098,-0.0586,0.0,0.0,-0.2469,-0.3396,-0.3985,0.0,0.0,-0.6508,-0.757,-0.8999,-1.0517,-1.1398,-1.1889,-1.2218,-1.2145,-1.2461,-1.272,-1.2668,-1.3285,-1.391,-1.4311,-1.5489,-1.6196,-1.5736,-1.7113,-1.8159,-1.8216,-2.0536,0.0,0.0,0.0,0.0,-3.0166,-3.2014,-3.3798,-3.5124,-3.6592,-3.7679,-3.8409,-3.7481,-3.6837,-3.6314,-3.4338,-3.242,-3.0714,-2.958,-2.9085,-2.9196,-3.0569,-3.1933,-3.3055,-3.3303,-3.3863,-3.4515,-3.5073,-3.6188,-3.751,-3.789,-3.903,-4.0455,-3.9895,-4.0036,-4.05,0.0,0.0,0.0,0.0,0.0,0.0,0.0,0.0,0.0,0.0,0.0,0.0,0.0,0.0,0.0,0.0,0.0,0.0,0.0,0.0,-1.581,-1.6582,-1.6437,-1.6698,-1.7481,-1.6392,-1.5739,-1.564,-1.4128,-1.4027,-1.5299,-1.5524,-1.6788,-1.9055,-2.0687,-2.1822,-2.2266,-1.8666,-1.6324,-1.4614,-0.8552,-0.5809,-0.5085,-0.2762,-0.225,0.0,0.0,0.0,0.0,0.0,0.0,0.0,0.0,-0.1414,-0.1985,-0.3555,-0.4412,-0.5022,-0.5779,-0.6753,-0.7946,-0.9069,-1.0166,-1.1111,-1.1667,-1.2024,-1.2155,-1.1556,-1.2047,-1.2486,-1.2033,-1.2475,-1.3073,-1.3613,-1.4494,-1.4998,-1.4789,-1.6009,-1.7082,-1.7501,-1.9991,0.0,0.0,0.0,0.0,-2.9592,-3.1819,-3.3809,-3.5322,-3.6904,-3.8116,-3.8841,-3.8105,-3.7549,-3.7429,-3.5511,-3.3616,-3.1734,-3.0079,-2.9659,-3.0391,-3.1197,-3.2007,-3.2822,-3.3231,-3.3752,-3.4212,-3.498,-3.6042,-3.7218,-3.7829,-3.8811,-3.9879,-3.9879,-4.0091,-4.0385,0.0,0.0,0.0,0.0,0.0,0.0,0.0,0.0,0.0,0.0,0.0,0.0,0.0,0.0,0.0,0.0,0.0,0.0,0.0,0.0,0.0,-1.5278,-1.5525,-1.5693,-1.5826,-1.5145,-1.4214,-1.305,-1.2907,-1.2254,-1.1113,-1.3205,-1.4865,-1.6006,-1.829,-1.9886,-2.0704,-1.939,-1.7428,-1.5045,-1.1823,-0.8703,-0.5621,-0.4378,0.0,0.0,0.0,0.0,0.0,0.0,0.0,0.0,0.0,-0.2102,-0.3777,-0.3909,-0.5346,-0.6867,-0.6829,-0.7722,-0.8998,-1.0346,-1.0815,-1.1009,-1.1696,-1.2086,-1.2223,-1.175,-1.2761,-1.3667,0.0,0.0,-1.3444,-1.4384,-1.3696,-1.326,-1.3932,-1.4539,-1.6146,0.0,0.0,0.0,0.0,0.0,0.0,-2.8738,0.0,-3.409,-3.5288,-3.7084,-3.8514,-3.9685,-3.8941,-3.8596,-3.8792,-3.686,-3.4538,-3.1843,-3.0398,-2.9973,-3.0599,-3.1607,-3.2081,-3.2206,-3.3409,-3.3729,-3.3522,-3.4825,-3.5843,-3.6702,-3.7491,-3.8263,-3.9002,-3.9849,-4.0185,-4.0178,0.0,0.0,0.0,0.0,0.0,0.0,0.0,0.0,0.0,0.0,0.0,0.0,0.0,0.0,0.0,0.0,0.0,0.0,0.0,0.0,0.0,0.0,0.0,0.0,0.0,0.0,0.0,0.0,0.0,-1.1682,-1.2218,-1.27,-1.42,-1.6542,-1.8271,-1.9745,-2.0701,-1.7549,-1.5284,-1.3317,0.0,-0.7465,-0.6953,0.0,0.0,0.0,0.0,0.0,0.0,0.0,0.0,0.0,0.0,-0.3688,-0.4442,-0.5978,-0.6441,-0.6816,-0.821,-0.9466,-1.0627,-1.1614,-1.2254,-1.2813,-1.3081,-1.3039,-1.2793,-1.1988,-1.2457,-1.2787,0.0,0.0,0.0,-1.3297,-1.5424,0.0,-1.4116,-1.6942,0.0,0.0,0.0,-2.3069,-2.4601,-2.6909,0.0,0.0,-3.1871,-3.4186,-3.5836,-3.7607,-3.9025,-3.9981,-3.9437,-3.9094,-3.9117,-3.6412,-3.4445,-3.3038,-3.1765,-3.1505,-3.2207,-3.251,-3.2966,-3.3517,-3.3776,-3.3941,-3.4069,-3.4651,-3.5602,-3.6624,-3.6758,-3.8023,-3.9849,-3.9621,-3.9933,-4.0347,0.0,0.0,0.0,0.0,0.0,0.0,0.0,0.0,0.0,0.0,0.0,0.0,0.0,0.0,0.0,0.0,0.0,0.0,0.0,0.0,0.0,0.0,0.0,0.0,0.0,0.0,0.0,0.0,0.0,0.0,0.0,-1.2202,-1.3666,-1.5948,-1.728,-1.8364,-1.908,-1.7296,0.0,0.0,0.0,0.0,0.0,0.0,0.0,0.0,0.0,0.0,0.0,0.0,0.0,-0.3645,-0.4109,-0.4684,-0.5385,-0.6401,0.0,-0.8257,-0.9627,-1.1092,-1.2439,-1.3396,-1.3837,-1.4099,-1.3586,-1.3607,-1.334,-1.2399,-1.2746,0.0,0.0,0.0,0.0,0.0,0.0,0.0,-1.562,-1.7294,-1.8709,0.0,-2.1514,0.0,-2.5065,-2.7453,-2.94,0.0,-3.2789,-3.4582,-3.6042,-3.8311,-3.993,-4.0782,-4.0472,-3.9943,-3.9,-3.6478,-3.4739,-3.3899,-3.2594,-3.2218,-3.2801,-3.3201,-3.3723,-3.4396,0.0,-3.4743,-3.4878,-3.5299,-3.5871,-3.6508,-3.6693,-3.7658,-3.8942,-3.9133,-3.9482,-3.9903,0.0,0.0,0.0,0.0,0.0,0.0,0.0,0.0,0.0,0.0,0.0,0.0,0.0,0.0,0.0,0.0,0.0,0.0,0.0,0.0,0.0,0.0,0.0,0.0,0.0,0.0,0.0,0.0,0.0,0.0,0.0,0.0,0.0,0.0,0.0,0.0,0.0,0.0,0.0,0.0,0.0,0.0,0.0,0.0,0.0,0.0,0.0,0.0,0.0,0.0,-0.3227,-0.3638,-0.4356,-0.5363,-0.6295,-0.6596,-0.8402,-1.0565,-1.1302,-1.2779,-1.4385,-1.5333,-1.525,-1.4853,-1.3809,-1.3914,-1.402,-1.2981,0.0,-1.3663,-1.2871,0.0,-1.4168,-1.4434,0.0,-1.4589,-1.7587,-1.7039,-1.7628,-2.102,-2.2361,-2.3962,-2.651,-2.8215,-3.0275,-3.2944,-3.4212,-3.5433,-3.665,-3.9362,-4.111,-4.1782,-4.1696,-4.0769,-3.9,-3.6879,-3.5442,-3.4635,-3.3311,-3.2812,-3.3112,-3.3895,-3.4511,-3.4959,0.0,0.0,-3.5659,-3.6224,-3.647,-3.6549,-3.7211,-3.7582,-3.7861,-3.8907,-3.9287,-3.9373,0.0,0.0,0.0,0.0,0.0,0.0,0.0,0.0,0.0,0.0,0.0,0.0,0.0,0.0,0.0,0.0,0.0,0.0,0.0,0.0,0.0,0.0,0.0,0.0,0.0,0.0,0.0,0.0,0.0,0.0,0.0,0.0,0.0,0.0,0.0,0.0,0.0,0.0,0.0,0.0,0.0,0.0,0.0,0.0,0.0,0.0,0.0,0.0,0.0,0.0,-0.4415,-0.4528,-0.5336,-0.5841,-0.6793,-0.9591,-1.0738,-1.1652,-1.4402,-1.5405,-1.5808,-1.6338,-1.6055,-1.5552,-1.5131,-1.493,0.0,0.0,0.0,-1.4267,-1.3391,-1.4862,0.0,-1.5253,0.0,0.0,0.0,0.0,-2.0352,0.0,0.0,0.0,0.0,0.0,0.0,0.0,0.0,0.0,-3.9876,-4.1801,-4.2618,-4.2373,-4.167,-4.087,-3.9853,-3.7747,-3.65,-3.6081,-3.4722,-3.4225,-3.4421,-3.509,-3.5371,-3.5424,-3.575,0.0,-3.5659,-3.6372,-3.6679,-3.6744,-3.7994,-3.9058,-3.9878,-4.0115,-4.0325,-4.0458,0.0,0.0,0.0,0.0,0.0,0.0,0.0,0.0,0.0,0.0,0.0,0.0,0.0,0.0,0.0,0.0,0.0,0.0,0.0,0.0,0.0,0.0,0.0,0.0,0.0,0.0,0.0,0.0,0.0,0.0,0.0,0.0,0.0,0.0,0.0,0.0,0.0,0.0,0.0,0.0,0.0,0.0,0.0,0.0,0.0,0.0,0.0,0.0,0.0,0.0,-0.4689,-0.5094,-0.5825,-0.6304,-0.699,-0.9312,-1.0948,-1.2466,-1.4999,-1.6363,-1.7338,-1.8085,-1.7506,-1.6727,-1.5998,0.0,0.0,0.0,0.0,-1.4222,-1.4103,0.0,0.0,0.0,0.0,0.0,0.0,0.0,0.0,0.0,0.0,0.0,0.0,0.0,0.0,0.0,0.0,0.0,-4.0564,-4.2229,-4.2949,-4.2679,-4.1769,-4.087,-4.007,-3.8253,-3.7005,-3.6601,-3.5537,-3.503,-3.5017,-3.5679,-3.6194,-3.6555,-3.6891,0.0,-3.7123,-3.7404,-3.7636,-3.7979,-3.8723,-3.9617,-4.0436,-4.0229,-4.0238,-4.0275,0.0,0.0,0.0,0.0,0.0,0.0,0.0,0.0,0.0,0.0,0.0,0.0,0.0,0.0,0.0,0.0,0.0,0.0,0.0,0.0,0.0,0.0,0.0,0.0,0.0,0.0,0.0,0.0,0.0,0.0,0.0,0.0,0.0,0.0,0.0,0.0,0.0,0.0,0.0,0.0,0.0,0.0,0.0,0.0,0.0,0.0,0.0,0.0,0.0,0.0,-0.4761,-0.5434,-0.608,-0.6542,-0.7279,-0.9178,-1.1252,-1.3484,-1.5909,-1.7812,-1.908,-1.9795,-1.8932,-1.7759,-1.6687,-1.5727,0.0,0.0,-1.4396,-1.4341,-1.4676,0.0,0.0,0.0,0.0,0.0,0.0,0.0,0.0,0.0,0.0,0.0,0.0,0.0,0.0,0.0,0.0,0.0,-4.1543,-4.2644,-4.3009,-4.2679,-4.1657,-4.0756,-4.007,-3.8354,-3.7306,-3.6993,-3.6124,-3.5704,-3.5512,-3.6358,-3.7083,-3.7573,-3.7966,0.0,0.0,-3.8258,-3.8471,-3.887,-3.9233,-3.9984,-4.0676,-4.0181,-4.0132,-4.0102,0.0,0.0,0.0,0.0,0.0,0.0,0.0,0.0,0.0,0.0,0.0,0.0,0.0,0.0,0.0,0.0,0.0,0.0,0.0,0.0,0.0,0.0,0.0,0.0,0.0,0.0,0.0,0.0,0.0,0.0,0.0,0.0,0.0,0.0,0.0,0.0,0.0,0.0,0.0,0.0,0.0,0.0,0.0,0.0,0.0,0.0,0.0,0.0,0.0,0.0,0.0,-0.5186,-0.6071,-0.6583,-0.7707,-1.2023,0.0,0.0,-1.9484,-2.0995,-2.1462,-2.0677,-1.982,-1.8645,-1.7148,0.0,0.0,-1.4718,-1.4914,-1.52,-1.4994,-1.4751,0.0,0.0,0.0,0.0,0.0,0.0,0.0,0.0,0.0,0.0,0.0,0.0,0.0,0.0,0.0,0.0,0.0,-4.4592,-4.3514,-4.215,-4.1019,-4.0338,-4.007,-3.8165,-3.7318,-3.7481,-3.6693,-3.6263,-3.6358,-3.7466,-3.8109,-3.8134,-3.8341,0.0,0.0,-3.8259,-3.826,-3.8412,-3.9391,-4.0347,-4.1107,-4.0523,-4.0759,-4.108,0.0,0.0,0.0,0.0,0.0,0.0,0.0,0.0,0.0,0.0,0.0,0.0,0.0,0.0,0.0,0.0,0.0,0.0,0.0,0.0,0.0,0.0,0.0,0.0,0.0,0.0,0.0,0.0,0.0,0.0,0.0,0.0,0.0,0.0,0.0,0.0,0.0,0.0,0.0,0.0,0.0,0.0,0.0,0.0,0.0,0.0,0.0,0.0,0.0,0.0,0.0,0.0,-0.5655,-0.6284,0.0,0.0,-1.2994,-1.5697,-1.8432,-2.0808,-2.2493,-2.2523,-2.1098,-1.9543,-1.8528,0.0,-1.5703,-1.5508,-1.5148,-1.5119,-1.5704,-1.4832,-1.4251,0.0,0.0,0.0,0.0,0.0,0.0,0.0,0.0,0.0,0.0,0.0,0.0,0.0,0.0,0.0,0.0,-4.2504,-4.1908,-4.1372,-4.0249,-3.9484,-3.9182,-3.8016,-3.7456,-3.739,-3.6817,-3.6815,-3.7268,-3.7926,-3.8562,-3.9326,-3.9254,0.0,0.0,-3.9208,-3.9518,-4.0247,-4.0795,-4.1804,-4.2745,-4.1281,-4.1181,-4.145,0.0,0.0,0.0,0.0,0.0,0.0,0.0,0.0,0.0,0.0,0.0,0.0,0.0,0.0,0.0,0.0,0.0,0.0,0.0,0.0,0.0,0.0,0.0,0.0,0.0,0.0,0.0,0.0,0.0,0.0,0.0,0.0,0.0,0.0,0.0,0.0,0.0,0.0,0.0,0.0,0.0,0.0,0.0,0.0,0.0,0.0,0.0,0.0,0.0,0.0,0.0,0.0,0.0,0.0,0.0,0.0,-1.2137,-1.5334,-1.7853,-2.0575,-2.2852,-2.3483,-2.184,-2.0088,0.0,0.0,-1.5679,-1.5851,-1.5575,-1.5528,-1.6218,-1.5292,-1.4648,0.0,0.0,0.0,0.0,0.0,0.0,0.0,0.0,0.0,0.0,0.0,0.0,0.0,0.0,0.0,0.0,-3.9823,-3.9994,-4.0134,-3.9365,-3.8704,-3.8113,-3.7568,-3.7196,-3.7174,-3.6729,-3.7021,-3.79,-3.8196,-3.8932,-3.9937,0.0,0.0,0.0,-3.974,-4.0172,-4.1162,-4.1412,-4.2312,-4.3157,-4.1667,-4.1372,-4.1439,0.0,0.0,0.0,0.0,0.0,0.0,0.0,0.0,0.0,0.0,0.0,0.0,0.0,0.0,0.0,0.0,0.0,0.0,0.0,0.0,0.0,0.0,0.0,0.0,0.0,0.0,0.0,0.0,0.0,0.0,0.0,0.0,0.0,0.0,0.0,0.0,0.0,0.0,0.0,0.0,0.0,0.0,0.0,0.0,0.0,0.0,0.0,0.0,0.0,0.0,0.0,0.0,0.0,0.0,0.0,0.0,-1.1939,-1.4056,-1.8568,-2.0979,-2.2358,-2.31,-2.1859,-2.0229,0.0,0.0,-1.6104,-1.5555,-1.6255,-1.6867,-1.6407,-1.6477,-1.6809,-1.7243,0.0,0.0,0.0,0.0,0.0,0.0,0.0,0.0,0.0,0.0,0.0,0.0,0.0,0.0,0.0,-3.7465,-3.7875,-3.8475,-3.8233,-3.7794,-3.7343,-3.6702,-3.6713,-3.7174,-3.6628,-3.6936,-3.8187,-3.8506,-3.9084,0.0,0.0,0.0,0.0,-3.946,-3.9681,-4.027,-4.0961,-4.1358,-4.1596,-4.1517,-4.1389,-4.1102,0.0,0.0,0.0,0.0,0.0,0.0,0.0,0.0,0.0,0.0,0.0,0.0,0.0,0.0,0.0,0.0,0.0,0.0,0.0,0.0,0.0,0.0,0.0,0.0,0.0,0.0,0.0,0.0,0.0,0.0,0.0,0.0,0.0,0.0,0.0,0.0,0.0,0.0,0.0,0.0,0.0,0.0,0.0,0.0,0.0,0.0,0.0,0.0,0.0,0.0,0.0,0.0,0.0,0.0,0.0,0.0,0.0,0.0,-1.5481,-1.7988,-2.0274,-2.0519,-1.9692,-1.8674,-1.8456,0.0,-1.6216,-1.6417,-1.6888,-1.7376,-1.7763,-1.7817,-1.7922,-1.808,-1.8304,0.0,0.0,0.0,0.0,0.0,0.0,0.0,0.0,0.0,0.0,0.0,0.0,0.0,0.0,-3.6041,-3.6426,-3.7618,-3.7372,-3.6952,-3.638,-3.6407,-3.6515,-3.6881,-3.7178,-3.7714,-3.833,-3.8924,0.0,0.0,0.0,0.0,0.0,-4.0025,-4.0507,-4.1633,-4.1466,-4.1799,-4.2219,-4.1301,-4.1182,-4.1308,0.0,0.0,0.0,0.0,0.0,0.0,0.0,0.0,0.0,0.0,0.0,0.0,0.0,0.0,0.0,0.0,0.0,0.0,0.0,0.0,0.0,0.0,0.0,0.0,0.0,0.0,0.0,0.0,0.0,0.0,0.0,0.0,0.0,0.0,0.0,0.0,0.0,0.0,0.0,0.0,0.0,0.0,-0.9321,0.0,0.0,0.0,0.0,0.0,0.0,0.0,0.0,0.0,0.0,0.0,0.0,0.0,-1.1052,0.0,0.0,-1.6074,-1.8271,-1.908,-1.8483,0.0,0.0,0.0,-1.64,-1.6899,-1.739,-1.8001,-1.8612,-1.8828,-1.9075,-1.9538,0.0,0.0,0.0,0.0,0.0,0.0,0.0,0.0,0.0,0.0,0.0,0.0,0.0,0.0,0.0,0.0,-3.5324,-3.6296,-3.6291,-3.6093,-3.5734,-3.5806,-3.6111,-3.6417,-3.6793,-3.7321,-3.8057,-3.8588,0.0,0.0,0.0,0.0,0.0,-4.0255,-4.061,-4.165,-4.1263,-4.1565,-4.2005,-4.1357,-4.1189,-4.1117,0.0,0.0,0.0,0.0,0.0,0.0,0.0,0.0,0.0,0.0,0.0,0.0,0.0,0.0,0.0,0.0,0.0,0.0,0.0,0.0,0.0,0.0,0.0,0.0,0.0,0.0,0.0,0.0,-1.4001,-1.4186,-1.4693,0.0,0.0,0.0,0.0,0.0,0.0,0.0,0.0,0.0,0.0,0.0,0.0,0.0,0.0,0.0,0.0,0.0,0.0,0.0,0.0,0.0,0.0,0.0,0.0,0.0,0.0,0.0,0.0,-1.5078,0.0,0.0,0.0,0.0,0.0,0.0,0.0,-1.7,-1.7799,-1.8573,-1.9209,-1.9575,-2.0241,-2.1272,0.0,0.0,0.0,0.0,0.0,0.0,0.0,0.0,0.0,0.0,0.0,0.0,0.0,0.0,0.0,0.0,-3.4525,-3.4792,-3.5282,-3.5473,-3.5235,-3.5244,-3.5437,-3.6001,-3.5948,-3.6511,-3.7645,-3.7847,0.0,0.0,0.0,0.0,0.0,-4.0049,-4.0134,-4.057,-4.0489,-4.069,-4.1052,-4.1493,-4.1297,-4.0697,0.0,0.0,0.0,0.0,0.0,0.0,0.0,0.0,0.0,0.0,0.0,0.0,0.0,0.0,0.0,0.0,0.0,0.0,0.0,0.0,0.0,0.0,0.0,0.0,0.0,0.0,0.0,-1.4803,-1.4787,-1.4882,-1.5098,-1.483,0.0,0.0,0.0,0.0,0.0,0.0,0.0,0.0,0.0,0.0,0.0,0.0,0.0,0.0,-0.6244,-0.6096,0.0,0.0,0.0,0.0,0.0,0.0,0.0,0.0,-1.0516,-1.1152,-1.2351,0.0,-1.4024,-1.4274,-1.4555,-1.5038,0.0,0.0,0.0,0.0,0.0,-1.8733,-2.0011,-2.033,-2.0758,0.0,0.0,0.0,0.0,0.0,0.0,0.0,0.0,0.0,0.0,0.0,0.0,0.0,0.0,0.0,0.0,0.0,-3.3445,-3.4141,-3.4957,-3.5375,-3.5524,-3.5941,-3.6535,-3.7338,-3.8131,-3.8517,-3.8667,-3.8954,0.0,0.0,0.0,0.0,-4.0341,-3.9354,-3.9425,-4.0064,-3.9522,-3.9466,-3.9811,-4.0408,-4.059,-4.0534,0.0,0.0,0.0,0.0,0.0,0.0,0.0,0.0,0.0,0.0,0.0,0.0,0.0,0.0,0.0,0.0,0.0,0.0,0.0,0.0,0.0,0.0,0.0,0.0,0.0,0.0,0.0,0.0,0.0,-1.5205,0.0,0.0,0.0,0.0,0.0,0.0,0.0,0.0,0.0,0.0,-1.2833,0.0,0.0,0.0,0.0,0.0,-0.6522,-0.6194,0.0,-0.6662,-0.7172,-0.7616,0.0,0.0,0.0,0.0,-1.0809,-1.122,-1.1828,-1.2388,-1.2853,-1.3197,-1.3812,-1.4597,-1.5758,0.0,0.0,0.0,0.0,-1.8768,-2.0576,0.0,0.0,0.0,0.0,0.0,0.0,0.0,0.0,0.0,0.0,0.0,0.0,0.0,0.0,0.0,0.0,0.0,0.0,0.0,-3.3692,-3.4714,-3.4892,-3.4872,-3.4871,-3.5635,-3.6284,-3.7035,-3.7701,-3.804,-3.8113,-3.879,-3.8916,0.0,0.0,0.0,-3.9601,-3.9054,-3.8963,-3.903,-3.887,-3.9065,-3.9542,-3.9969,-4.0188,-4.0337,0.0,0.0,0.0,0.0,0.0,0.0,0.0,0.0,0.0,0.0,0.0,0.0,0.0,0.0,0.0,0.0,0.0,0.0,0.0,0.0,0.0,0.0,0.0,0.0,0.0,0.0,0.0,0.0,0.0,0.0,0.0,0.0,0.0,0.0,0.0,0.0,0.0,0.0,0.0,0.0,-1.2811,0.0,0.0,0.0,0.0,0.0,0.0,0.0,0.0,-0.6632,-0.7156,-0.7566,-0.8232,0.0,0.0,0.0,0.0,0.0,-1.1794,-1.1996,-1.2428,-1.3407,-1.4121,-1.4824,-1.5758,0.0,0.0,0.0,0.0,0.0,0.0,0.0,0.0,0.0,0.0,0.0,0.0,0.0,0.0,0.0,0.0,0.0,0.0,0.0,0.0,0.0,0.0,0.0,0.0,0.0,0.0,-3.5567,-3.5099,-3.4527,-3.4145,-3.512,-3.5915,-3.6265,-3.6735,-3.7129,-3.7359,-3.8117,-3.8504,0.0,0.0,0.0,-3.869,-3.8884,-3.8615,-3.8019,-3.8383,-3.8898,-3.9504,-3.9677,-3.9833,-3.9969,0.0,0.0,0.0,0.0,0.0,0.0,0.0,0.0,0.0,0.0,0.0,0.0,0.0,0.0,0.0,0.0,0.0,0.0,0.0,0.0,0.0,0.0,0.0,0.0,0.0,0.0,0.0,0.0,0.0,0.0,-1.6289,-1.5493,-1.468,0.0,0.0,0.0,-1.2503,-1.2025,-1.185,-1.1797,-1.1317,0.0,0.0,0.0,0.0,0.0,0.0,0.0,0.0,-0.696,-0.7701,-0.8265,-0.8473,0.0,0.0,0.0,0.0,0.0,-1.1796,-1.2243,-1.2552,-1.2867,-1.3398,-1.4163,-1.5225,0.0,0.0,0.0,0.0,0.0,0.0,0.0,0.0,0.0,0.0,0.0,0.0,0.0,0.0,0.0,0.0,0.0,0.0,0.0,0.0,0.0,0.0,0.0,0.0,0.0,0.0,-3.5059,-3.5747,-3.5628,-3.4553,-3.5845,-3.6619,-3.69,-3.8076,-3.8476,-3.8284,-3.8401,-3.845,0.0,0.0,-3.8707,-3.8594,-3.8235,-3.804,-3.7927,-3.7985,-3.8173,-3.8383,-3.8952,-3.9222,-3.9312,0.0,0.0,0.0,0.0,0.0,0.0,0.0,0.0,0.0,0.0,0.0,0.0,0.0,0.0,0.0,0.0,0.0,0.0,0.0,0.0,0.0,0.0,0.0,0.0,0.0,0.0,0.0,0.0,0.0,-1.554,-1.6049,-1.5464,-1.4751,-1.3898,0.0,0.0,-1.2663,-1.1985,-1.1722,-1.1744,0.0,0.0,0.0,0.0,0.0,0.0,0.0,0.0,0.0,0.0,-0.7633,-0.8012,-0.854,0.0,0.0,0.0,0.0,0.0,-1.1691,-1.2017,-1.2385,-1.3831,-1.411,-1.4405,-1.5456,0.0,0.0,0.0,0.0,0.0,0.0,0.0,0.0,0.0,0.0,0.0,0.0,0.0,0.0,0.0,0.0,0.0,0.0,0.0,0.0,0.0,0.0,0.0,0.0,0.0,0.0,0.0,-3.5705,-3.5391,-3.4948,-3.5919,-3.65,-3.6661,-3.7719,-3.8172,-3.8259,-3.8541,-3.848,-3.8173,0.0,-3.8278,-3.796,-3.8091,-3.796,-3.7653,-3.8132,-3.8189,-3.81,-3.8343,-3.8383,-3.8294,0.0,0.0,0.0,0.0,0.0,0.0,0.0,0.0,0.0,0.0,0.0,0.0,0.0,0.0,0.0,0.0,0.0,0.0,0.0,0.0,0.0,0.0,0.0,0.0,0.0,0.0,0.0,-1.5338,-1.5326,-1.5363,-1.548,-1.5177,-1.4704,0.0,0.0,0.0,-1.2832,-1.2116,-1.1727,-1.1616,0.0,0.0,0.0,0.0,0.0,0.0,0.0,0.0,0.0,0.0,0.0,0.0,0.0,0.0,0.0,-1.0087,-1.0472,-1.0827,-1.1515,-1.178,-1.2314,-1.4257,-1.454,-1.4791,-1.6393,0.0,0.0,0.0,0.0,0.0,0.0,0.0,0.0,0.0,0.0,0.0,0.0,0.0,0.0,0.0,0.0,0.0,0.0,0.0,0.0,0.0,0.0,0.0,0.0,0.0,0.0,0.0,-3.561,-3.525,-3.5468,-3.5851,-3.6172,-3.6358,-3.7143,-3.7652,-3.7856,-3.8388,-3.8398,-3.7943,-3.8262,-3.8091,-3.7653,-3.8221,-3.8091,-3.7727,-3.8319,-3.8375,-3.8059,-3.7828,-3.7562,-3.731,0.0,0.0,0.0,0.0,0.0,0.0,0.0,0.0,0.0,0.0,0.0,0.0,0.0,0.0,0.0,0.0,0.0,0.0,0.0,0.0,0.0,0.0,0.0,0.0,0.0,-1.4635,-1.4742,-1.5784,-1.4722,-1.4328,-1.4523,-1.4869,-1.45,-1.361,0.0,0.0,-1.2676,-1.2126,-1.1687,-1.1319,-1.0937,0.0,0.0,0.0,0.0,0.0,0.0,0.0,0.0,0.0,0.0,0.0,0.0,0.0,-0.9736,-1.0151,-1.0375,-1.0544,-1.1151,-1.1773,-1.2338,-1.284,-1.3534,0.0,-1.8114,-1.8558,0.0,0.0,0.0,0.0,0.0,0.0,0.0,0.0,0.0,0.0,0.0,0.0,0.0,0.0,0.0,0.0,0.0,0.0,0.0,0.0,0.0,0.0,0.0,0.0,0.0,0.0,0.0,-3.5692,-3.6073,-3.6009,-3.606,-3.6253,-3.7235,-3.7623,-3.7436,-3.7833,-3.7934,-3.7943,-3.8262,-3.8391,-3.8335,-3.8391,-3.8391,-3.8335,-3.8391,-3.8205,-3.7886,-3.7417,-3.6937,-3.6492,0.0,0.0,0.0,0.0,0.0,0.0,0.0,0.0,0.0,0.0,0.0,0.0,0.0,0.0,0.0,0.0,0.0,0.0,0.0,0.0,0.0,0.0,0.0,-1.4848,-1.4752,-1.4588,-1.5045,-1.6123,-1.5096,-1.4575,-1.4582,-1.4443,0.0,0.0,0.0,0.0,-1.2783,-1.2431,-1.2026,-1.1678,-1.1528,-1.1057,0.0,0.0,0.0,0.0,0.0,0.0,0.0,0.0,-0.8432,-0.8837,0.0,0.0,-0.9567,-0.9904,-1.0234,-1.0574,-1.109,-1.2257,-1.3527,-1.4312,-1.4796,0.0,0.0,0.0,0.0,0.0,0.0,0.0,0.0,0.0,0.0,0.0,0.0,0.0,0.0,0.0,0.0,0.0,0.0,0.0,0.0,0.0,0.0,0.0,0.0,0.0,0.0,0.0,0.0,0.0,-3.5439,-3.5452,-3.5717,-3.611,-3.6459,-3.6847,-3.7311,-3.761,-3.7711,-3.8075,-3.8205,-3.8205,-3.8335,-3.8391,-3.8391,-3.8391,-3.8391,-3.8335,-3.796,-3.7669,-3.7358,-3.6693,-3.6211,-3.5797,0.0,0.0,0.0,0.0,0.0,0.0,0.0,0.0,0.0,0.0,0.0,0.0,0.0,0.0,0.0,0.0,0.0,0.0,0.0,0.0,0.0,0.0,0.0,-1.467,-1.4783,-1.4683,-1.5002,-1.5717,-1.5051,-1.4674,-1.4525,0.0,0.0,0.0,0.0,0.0,0.0,0.0,-1.2211,-1.2017,-1.184,-1.1296,0.0,0.0,0.0,0.0,0.0,0.0,0.0,0.0,0.0,0.0,0.0,0.0,0.0,0.0,-1.042,-1.0886,-1.1137,-1.256,-1.4209,0.0,0.0,0.0,0.0,0.0,0.0,0.0,0.0,0.0,0.0,0.0,0.0,0.0,0.0,0.0,0.0,0.0,0.0,0.0,0.0,0.0,0.0,0.0,0.0,0.0,0.0,0.0,0.0,0.0,0.0,0.0,-3.5304,-3.5524,-3.5797,-3.6304,-3.6831,-3.7417,-3.7535,-3.777,-3.8075,-3.8278,-3.8391,-3.8391,-3.8391,-3.8391,-3.8391,-3.8391,-3.8391,-3.8335,-3.7653,-3.7298,-3.7058,-3.6211,-3.5653,-3.5228,0.0,0.0,0.0,0.0,0.0,0.0,0.0,0.0,0.0,0.0,0.0,0.0,0.0,0.0,0.0,0.0,0.0,0.0,0.0,0.0,0.0,0.0,0.0,-1.4555,-1.5744,-1.4931,-1.4502,-1.4514,-1.4417,-1.4326,-1.4176,0.0,0.0,0.0,0.0,0.0,0.0,0.0,-1.213,-1.2236,-1.1636,-1.142,-1.1425,0.0,0.0,0.0,0.0,0.0,0.0,0.0,-0.9249,0.0,0.0,0.0,0.0,0.0,-1.0979,-1.1452,-1.1263,-1.2538,-1.4047,0.0,0.0,0.0,0.0,0.0,0.0,0.0,0.0,0.0,0.0,0.0,0.0,0.0,0.0,0.0,0.0,0.0,0.0,0.0,0.0,0.0,0.0,0.0,0.0,0.0,0.0,0.0,0.0,0.0,0.0,0.0,-3.5509,-3.5928,-3.643,-3.6585,-3.7134,-3.787,-3.8042,-3.8173,-3.8391,-3.8391,-3.8391,-3.8391,-3.8391,-3.8391,-3.8391,-3.8391,-3.8391,-3.8335,-3.7653,-3.7298,-3.7074,-3.607,-3.5379,-3.4868,0.0,0.0,0.0,0.0,0.0,0.0,0.0,0.0,0.0,0.0,0.0,0.0,0.0,0.0,0.0,0.0,0.0,0.0,0.0,0.0,0.0,0.0,0.0,0.0,0.0,0.0,-1.4849,-1.4934,-1.4584,-1.4419,0.0,0.0,0.0,-1.295,0.0,0.0,0.0,0.0,0.0,-1.175,-1.1809,-1.1592,-1.1213,0.0,0.0,0.0,0.0,0.0,0.0,0.0,0.0,0.0,0.0,0.0,0.0,-1.0452,-1.1358,-1.2332,-1.2132,-1.408,0.0,0.0,0.0,0.0,0.0,0.0,0.0,0.0,0.0,0.0,0.0,0.0,0.0,0.0,0.0,0.0,0.0,0.0,0.0,0.0,0.0,0.0,0.0,0.0,0.0,0.0,0.0,0.0,0.0,0.0,0.0,0.0,-3.6163,-3.6461,-3.6937,-3.7358,-3.7695,-3.8042,-3.788,-3.8095,-3.856,-3.856,-3.8616,-3.8711,-3.856,-3.856,-3.8504,-3.8448,-3.8391,-3.8335,-3.7653,-3.7222,-3.6845,-3.5737,-3.5118,-3.4683,0.0,0.0,0.0,0.0,0.0,0.0,0.0,0.0,0.0,0.0,0.0,0.0,0.0,0.0,0.0,0.0,0.0,0.0,0.0,0.0,0.0,0.0,0.0,0.0,0.0,-1.4964,-1.5163,0.0,0.0,0.0,0.0,0.0,0.0,-1.3263,0.0,-1.2847,0.0,0.0,-1.1861,-1.1705,-1.1675,-1.1528,-1.1314,0.0,0.0,0.0,0.0,0.0,0.0,0.0,0.0,0.0,0.0,0.0,0.0,-1.0732,-1.1866,-1.3352,-1.3556,0.0,0.0,0.0,0.0,0.0,0.0,0.0,0.0,0.0,0.0,0.0,0.0,0.0,0.0,0.0,0.0,0.0,0.0,0.0,0.0,0.0,0.0,0.0,0.0,0.0,0.0,0.0,0.0,0.0,0.0,0.0,0.0,0.0,-3.6785,-3.7134,-3.7535,-3.7614,-3.7899,-3.8383,-3.7719,-3.7744,-3.8357,-3.7992,-3.8155,-3.8805,-3.8711,-3.8655,-3.8655,-3.8504,-3.8448,-3.8359,-3.7409,-3.6814,-3.6364,-3.5202,-3.4537,-3.4132,0.0,0.0,0.0,0.0,0.0,0.0,0.0,0.0,0.0,0.0,0.0,0.0,0.0,0.0,0.0,0.0,0.0,0.0,0.0,0.0,0.0,0.0,0.0,0.0,0.0,0.0,0.0,0.0,0.0,0.0,0.0,0.0,-1.386,-1.4039,0.0,-1.3605,0.0,0.0,-1.1983,-1.1909,-1.1436,-1.1407,-1.1683,-1.1481,0.0,0.0,0.0,0.0,0.0,0.0,0.0,0.0,0.0,0.0,-1.1369,-1.1234,-1.2507,-1.4256,0.0,0.0,0.0,0.0,0.0,0.0,0.0,0.0,0.0,0.0,0.0,0.0,0.0,0.0,0.0,0.0,0.0,0.0,0.0,0.0,0.0,0.0,0.0,0.0,0.0,0.0,0.0,0.0,0.0,0.0,0.0,0.0,0.0,0.0,-3.72,-3.7668,-3.7963,-3.7517,-3.7753,0.0,-3.7442,-3.723,-3.7923,-3.7042,-3.7347,-3.8608,-3.8674,-3.8707,-3.8707,-3.8639,-3.8583,-3.8342,-3.6972,-3.6153,-3.568,-3.46,-3.3868,-3.3448,0.0,0.0,0.0,0.0,0.0,0.0,0.0,0.0,0.0,0.0,0.0,0.0,0.0,0.0,0.0,0.0,0.0,0.0,0.0,0.0,0.0,0.0,0.0,0.0,0.0,0.0,0.0,0.0,0.0,0.0,0.0,0.0,0.0,-1.4127,0.0,-1.288,0.0,0.0,-1.1296,-1.1497,-1.1445,-1.1686,-1.2017,-1.1935,-1.1702,0.0,0.0,0.0,0.0,0.0,0.0,0.0,-1.2319,-1.2328,-1.2232,-1.1867,-1.2936,-1.461,0.0,-1.7958,0.0,0.0,0.0,0.0,0.0,0.0,0.0,0.0,0.0,0.0,0.0,0.0,0.0,0.0,0.0,0.0,0.0,0.0,0.0,0.0,0.0,0.0,0.0,0.0,0.0,0.0,0.0,0.0,0.0,0.0,0.0,-3.6143,-3.6309,-3.6512,-3.6926,-3.7042,-3.7145,0.0,-3.6804,-3.6886,-3.7603,-3.7067,-3.6995,-3.734,-3.7916,-3.8163,-3.8212,-3.8498,-3.8274,-3.7666,-3.6781,-3.587,-3.5043,-3.4233,-3.3724,-3.3382,0.0,0.0,0.0,0.0,0.0,0.0,0.0,0.0,0.0,0.0,0.0,0.0,0.0,0.0,0.0,0.0,0.0,0.0,0.0,0.0,0.0,0.0,0.0,0.0,0.0,0.0,0.0,0.0,0.0,0.0,0.0,0.0,0.0,-1.4495,0.0,-1.3259,0.0,0.0,-1.1613,-1.1504,-1.1797,-1.1986,-1.2126,-1.2224,-1.2126,-1.1927,-1.2116,0.0,0.0,0.0,0.0,0.0,0.0,0.0,-1.2936,-1.2715,-1.3611,-1.5145,0.0,0.0,0.0,0.0,0.0,0.0,0.0,0.0,0.0,0.0,0.0,0.0,0.0,0.0,0.0,0.0,0.0,0.0,0.0,0.0,0.0,0.0,0.0,0.0,0.0,0.0,0.0,0.0,0.0,0.0,0.0,-3.5211,-3.5419,-3.5969,-3.6201,-3.645,-3.6746,-3.6671,-3.6771,-3.7103,-3.6284,-3.6031,-3.6384,-3.6887,-3.692,-3.6622,-3.7265,-3.7579,-3.756,-3.7658,-3.7469,-3.7024,-3.584,-3.5005,-3.4328,-3.3426,-3.3084,-3.3021,0.0,0.0,0.0,0.0,0.0,0.0,0.0,0.0,0.0,0.0,0.0,0.0,0.0,0.0,0.0,0.0,0.0,0.0,0.0,0.0,0.0,0.0,0.0,0.0,0.0,0.0,0.0,0.0,0.0,0.0,0.0,0.0,0.0,-1.5143,0.0,0.0,0.0,0.0,0.0,-1.1733,-1.2248,-1.2367,-1.2274,-1.252,-1.2433,-1.2318,-1.2648,-1.2376,-1.1962,-1.2554,0.0,0.0,0.0,0.0,-1.3449,-1.3579,-1.4283,-1.5533,0.0,0.0,0.0,0.0,0.0,0.0,0.0,0.0,0.0,0.0,0.0,0.0,0.0,0.0,0.0,0.0,0.0,0.0,0.0,0.0,0.0,0.0,0.0,0.0,0.0,0.0,0.0,0.0,0.0,0.0,-3.4535,-3.4848,-3.5125,-3.5368,-3.5847,-3.6104,-3.6141,-3.5792,-3.5889,-3.6537,-3.5445,-3.486,-3.4801,-3.6121,-3.647,-3.6006,-3.6655,-3.692,-3.6886,-3.6746,-3.661,-3.6274,-3.4851,-3.4007,-3.3541,-3.26,-3.2402,-3.2528,0.0,0.0,0.0,0.0,0.0,0.0,0.0,0.0,0.0,0.0,0.0,0.0,0.0,0.0,0.0,0.0,0.0,0.0,-1.6844,0.0,0.0,-1.7393,0.0,0.0,0.0,0.0,0.0,0.0,0.0,0.0,0.0,0.0,0.0,-1.6312,0.0,0.0,0.0,0.0,0.0,-1.2144,-1.2583,-1.2799,-1.2861,-1.291,-1.2579,-1.2202,-1.2583,-1.2428,-1.2131,-1.2519,-1.268,0.0,0.0,0.0,-1.3749,-1.4231,-1.4536,-1.5153,0.0,0.0,0.0,0.0,0.0,0.0,0.0,0.0,0.0,0.0,0.0,0.0,0.0,0.0,0.0,0.0,0.0,0.0,0.0,0.0,0.0,0.0,0.0,0.0,0.0,0.0,0.0,0.0,0.0,0.0,-3.3208,-3.3455,-3.3335,-3.2707,-3.3339,-3.3483,-3.3093,-3.3131,-3.3267,-3.3517,-3.3406,-3.3393,-3.3383,-3.4084,-3.4675,-3.5129,-3.5827,-3.6092,-3.5992,-3.6481,-3.6108,-3.5158,-3.4552,-3.3584,-3.2598,-3.2419,-3.2242,-3.2115,0.0,0.0,0.0,0.0,0.0,0.0,0.0,0.0,0.0,0.0,0.0,0.0,0.0,0.0,0.0,-1.6859,-1.7369,-1.7698,-1.7683,-1.8026,-1.8055,-1.7625,-1.7447,0.0,0.0,0.0,0.0,0.0,0.0,0.0,0.0,-1.5902,-1.6071,0.0,0.0,0.0,0.0,0.0,0.0,0.0,-1.3338,-1.3455,-1.3409,-1.3097,-1.2874,-1.267,-1.2692,-1.2425,-1.2109,-1.2446,-1.2718,-1.2986,-1.3493,0.0,0.0,0.0,0.0,0.0,0.0,0.0,0.0,0.0,0.0,0.0,0.0,0.0,0.0,0.0,0.0,0.0,0.0,0.0,0.0,0.0,0.0,0.0,0.0,0.0,0.0,0.0,0.0,0.0,0.0,0.0,0.0,0.0,0.0,-3.1695,-3.2189,-3.2003,-3.194,-3.1948,-3.2271,-3.2413,-3.2442,-3.2578,-3.2713,-3.2768,-3.2474,-3.2507,-3.2835,-3.3044,-3.362,-3.4413,-3.5017,-3.5003,-3.4592,-3.4578,-3.4036,-3.3173,-3.2977,-3.2469,-3.1851,-3.1962,-3.205,-3.2077,0.0,0.0,0.0,0.0,0.0,0.0,0.0,0.0,0.0,0.0,0.0,0.0,0.0,0.0,0.0,0.0,-1.7961,-1.828,-1.8472,-1.8436,-1.8254,-1.7922,-1.7774,-1.7343,0.0,0.0,0.0,0.0,0.0,0.0,-1.6837,-1.6485,-1.6904,0.0,-1.6281,0.0,0.0,0.0,0.0,0.0,0.0,0.0,0.0,0.0,-1.3393,-1.3343,-1.3151,-1.2831,-1.2574,-1.2901,-1.3213,-1.3528,-1.3981,-1.4624,0.0,0.0,0.0,0.0,0.0,0.0,0.0,0.0,0.0,0.0,0.0,0.0,0.0,0.0,0.0,0.0,0.0,0.0,0.0,0.0,0.0,0.0,0.0,0.0,0.0,0.0,0.0,0.0,0.0,0.0,0.0,0.0,0.0,-3.0624,-3.1016,-3.0861,-3.0885,-3.1101,-3.1325,-3.1433,-3.1504,-3.1457,-3.1528,-3.1748,-3.1133,-3.1194,-3.1827,-3.2019,-3.2471,-3.3168,-3.3834,-3.3787,-3.3184,-3.2805,-3.2208,-3.163,-3.1558,-3.1347,-3.1037,-3.1213,-3.1372,-3.1456,0.0,0.0,0.0,0.0,0.0,0.0,0.0,0.0,0.0,0.0,0.0,0.0,0.0,-1.9031,-1.8535,-1.8193,-1.8187,-1.8426,-1.902,-1.8812,-1.8595,-1.8478,-1.8282,0.0,-1.6168,0.0,0.0,0.0,0.0,0.0,-1.7447,-1.7635,-1.8087,-1.8675,-1.6942,-1.5697,-1.491,0.0,0.0,0.0,0.0,0.0,0.0,0.0,0.0,0.0,0.0,0.0,-1.4018,-1.4304,-1.4528,-1.481,-1.5399,-1.5709,-1.5916,0.0,0.0,0.0,0.0,0.0,0.0,0.0,0.0,0.0,0.0,0.0,0.0,0.0,0.0,0.0,0.0,0.0,0.0,0.0,0.0,0.0,0.0,0.0,0.0,0.0,0.0,0.0,0.0,0.0,0.0,0.0,0.0,-2.92,-2.9408,-3.0297,-3.0297,-2.9279,-2.9927,-2.992,-2.9079,-2.8543,-2.8567,-2.9206,-2.8779,-2.895,-2.9688,-3.059,-3.0852,-3.0762,-3.1955,-3.242,-3.2248,-3.1981,-3.163,-3.1223,-3.0939,-3.0546,-3.0054,-3.0084,-2.9915,-2.9729,0.0,0.0,0.0,0.0,0.0,0.0,0.0,0.0,0.0,0.0,0.0,0.0,0.0,-1.9917,-1.9626,-1.9451,-1.9167,-1.9038,-1.9087,-1.8874,-1.8736,-1.8634,-1.8372,-1.7748,-1.6628,-1.648,0.0,0.0,0.0,-1.5421,-1.6218,-1.659,-1.7089,-1.7638,-1.7148,-1.6702,-1.6272,-1.5872,0.0,0.0,0.0,0.0,0.0,0.0,0.0,0.0,0.0,0.0,0.0,-1.7119,-1.6975,-1.6334,-1.7022,-1.6558,-1.5866,0.0,0.0,0.0,0.0,0.0,0.0,0.0,0.0,0.0,0.0,0.0,0.0,0.0,0.0,0.0,0.0,0.0,0.0,0.0,0.0,0.0,0.0,0.0,0.0,0.0,0.0,0.0,0.0,0.0,0.0,0.0,0.0,0.0,-2.923,-2.9848,-2.9874,-2.9319,-2.9112,-2.8614,-2.7758,-2.7324,-2.7445,-2.8168,-2.7872,-2.8362,-2.9426,-2.9105,-2.9367,-3.0032,-2.9781,-3.0186,-3.102,-3.0672,-3.0163,-2.9624,-2.9831,-2.9715,-2.9556,-2.9983,-2.9955,-2.9756,0.0,0.0,0.0,0.0,0.0,0.0,0.0,0.0,0.0,0.0,0.0,0.0,0.0,0.0,-2.0289,-2.0115,-1.9833,-1.953,-1.9236,-1.9064,-1.8912,-1.8803,-1.862,-1.8163,-1.729,-1.6923,0.0,0.0,0.0,0.0,0.0,-1.6304,-1.6812,-1.7188,-1.7512,-1.7475,0.0,0.0,0.0,-1.5948,0.0,0.0,-1.6281,0.0,0.0,0.0,0.0,0.0,0.0,0.0,0.0,0.0,0.0,0.0,0.0,0.0,0.0,0.0,0.0,0.0,0.0,0.0,0.0,0.0,0.0,0.0,0.0,0.0,0.0,0.0,0.0,0.0,0.0,0.0,0.0,0.0,0.0,0.0,0.0,0.0,0.0,0.0,0.0,0.0,0.0,0.0,0.0,0.0,-2.9339,-2.9649,-2.9592,-2.9159,-2.864,-2.7904,-2.6924,-2.6564,-2.672,-2.7316,-2.7142,-2.7707,-2.8796,-2.8183,-2.8331,-2.9022,-2.8184,-2.8513,-2.9609,-2.9218,-2.867,-2.8046,-2.8307,-2.8437,-2.8568,-2.9011,-2.9179,-2.9199,0.0,0.0,0.0,0.0,0.0,0.0,0.0,0.0,0.0,0.0,0.0,0.0,0.0,0.0,0.0,-2.0104,-2.003,-1.9854,-1.9536,-1.9369,-1.9213,-1.9031,-1.9017,-1.87,-1.8,-1.747,-1.6818,0.0,0.0,0.0,0.0,0.0,-1.7497,0.0,-1.8079,-1.7974,-1.7352,0.0,-1.6987,-1.6013,0.0,-1.6718,-1.7037,0.0,0.0,0.0,-1.9775,-2.0411,0.0,0.0,0.0,0.0,0.0,0.0,0.0,0.0,0.0,0.0,0.0,0.0,0.0,0.0,0.0,0.0,0.0,0.0,0.0,0.0,0.0,0.0,0.0,0.0,0.0,0.0,0.0,0.0,0.0,0.0,0.0,0.0,0.0,0.0,0.0,0.0,0.0,0.0,0.0,-2.9496,-2.9585,-2.9733,-2.9453,-2.8709,-2.8427,-2.7728,-2.65,-2.6217,-2.6217,-2.6484,-2.6484,-2.6872,-2.7615,-2.7769,-2.7745,-2.7607,-2.7368,-2.7583,-2.8031,-2.7778,-2.7297,-2.6645,-2.647,-2.675,-2.7224,-2.7224,-2.7573,-2.802,0.0,0.0,0.0,0.0,0.0,0.0,0.0,0.0,0.0,0.0,0.0,0.0,0.0,-2.1055,-2.0815,-2.0147,-1.9876,-1.9599,-1.9351,-1.911,-1.909,-1.9493,-1.9028,-1.8466,-1.78,-1.7116,-1.6436,0.0,0.0,0.0,0.0,0.0,0.0,0.0,-1.8498,-1.8592,-1.8503,-1.8085,0.0,0.0,-1.8713,-1.893,0.0,0.0,0.0,0.0,0.0,-2.1516,0.0,0.0,-2.2623,-2.0783,0.0,0.0,0.0,0.0,0.0,0.0,-1.8679,0.0,0.0,0.0,0.0,0.0,0.0,0.0,0.0,0.0,0.0,0.0,0.0,0.0,0.0,0.0,0.0,0.0,0.0,0.0,0.0,0.0,0.0,0.0,0.0,0.0,0.0,0.0,-2.9717,-2.9951,-2.975,-3.0081,-2.9733,-2.8537,-2.8401,-2.7558,-2.5794,-2.597,-2.6132,-2.6204,-2.6509,-2.7016,-2.7734,-2.6949,-2.7147,-2.8033,-2.7106,-2.6832,-2.6935,-2.6736,-2.6608,-2.647,-2.6425,-2.6795,-2.7349,-2.7349,-2.7668,-2.8152,0.0,0.0,0.0,0.0,0.0,0.0,0.0,0.0,0.0,0.0,0.0,0.0,0.0,0.0,-2.1271,-2.0773,-2.0447,-2.0178,-1.9936,-1.9654,-1.9565,-1.9818,-1.9386,-1.8996,-1.8669,-1.7942,-1.7402,-1.7075,0.0,0.0,0.0,0.0,0.0,0.0,0.0,0.0,0.0,0.0,0.0,0.0,-1.933,0.0,0.0,-2.067,-2.0728,0.0,0.0,0.0,-2.3955,-2.4475,-2.4055,0.0,0.0,0.0,0.0,0.0,0.0,0.0,0.0,0.0,0.0,0.0,0.0,0.0,0.0,-2.0531,0.0,0.0,0.0,0.0,0.0,0.0,0.0,0.0,0.0,0.0,0.0,0.0,0.0,0.0,0.0,0.0,0.0,0.0,0.0,-2.9777,-3.0293,-3.0535,-3.041,-3.0658,-3.0112,-2.8695,-2.8645,-2.774,-2.5779,-2.6139,-2.628,-2.6087,-2.6505,-2.6928,-2.7334,-2.6672,-2.6799,-2.7581,-2.6693,-2.6346,-2.6303,-2.6052,-2.601,-2.6026,-2.6026,-2.645,-2.7067,-2.741,-2.7899,-2.8466,0.0,0.0,0.0,0.0,0.0,0.0,0.0,0.0,0.0,0.0,0.0,0.0,0.0,0.0,0.0,0.0,-2.1209,-2.0894,-2.0655,-2.0377,-2.0156,-2.0024,-1.9797,-1.9797,-1.9989,-1.9189,-1.8857,-1.9083,0.0,0.0,0.0,0.0,0.0,0.0,0.0,0.0,0.0,0.0,0.0,-2.037,-1.9397,-2.0001,0.0,0.0,-2.1823,0.0,-2.2785,-2.4298,-2.5872,-2.4397,-2.4685,0.0,0.0,0.0,0.0,0.0,-1.9379,0.0,0.0,0.0,0.0,0.0,0.0,0.0,-1.9677,-2.0322,0.0,0.0,0.0,0.0,0.0,0.0,0.0,0.0,0.0,0.0,0.0,0.0,0.0,0.0,0.0,0.0,0.0,-3.1238,-3.0985,-3.0443,-3.0781,-3.1095,-3.119,-3.1123,-3.0429,-2.9062,-2.8943,-2.8003,-2.6191,-2.6539,-2.6505,-2.6175,-2.6539,-2.6691,-2.6691,-2.6691,-2.6691,-2.6691,-2.6315,-2.6175,-2.6139,-2.5799,-2.5577,-2.5503,-2.5503,-2.5902,-2.6613,-2.7389,-2.8142,-2.8822,-2.4644,0.0,0.0,0.0,0.0,0.0,0.0,0.0,0.0,0.0,0.0,0.0,0.0,0.0,0.0,0.0,-2.0289,-1.9747,-1.9531,-1.9297,-1.9433,-1.9973,-1.9342,-1.931,-2.0004,-1.8649,-1.8257,-1.8928,0.0,0.0,0.0,0.0,0.0,0.0,0.0,0.0,0.0,0.0,0.0,-2.1961,-2.2146,0.0,-2.4569,-2.3847,-2.3638,-2.3654,-2.3298,-2.4176,-2.5313,0.0,-2.4834,-2.6122,0.0,0.0,0.0,0.0,0.0,0.0,0.0,0.0,0.0,0.0,0.0,0.0,-2.1252,-2.0942,-2.1035,0.0,0.0,0.0,0.0,0.0,0.0,0.0,0.0,0.0,0.0,0.0,0.0,0.0,0.0,0.0,0.0,-3.1448,-3.1167,-3.1015,-3.1157,-3.1235,-3.119,-3.0632,-2.9942,-2.9117,-2.8401,-2.7621,-2.6742,-2.6708,-2.6657,-2.6573,-2.6657,-2.6691,-2.6691,-2.6691,-2.6691,-2.6691,-2.6624,-2.6573,-2.6573,-2.6505,-2.6087,-2.5503,-2.5503,-2.5902,-2.6613,-2.7389,-2.8142,-2.8822,-2.5582,0.0,0.0,0.0,0.0,0.0,0.0,0.0,0.0,0.0,0.0,0.0,0.0,0.0,0.0,0.0,0.0,-2.1205,0.0,-2.0819,-2.0682,-2.0653,-2.0222,-2.019,-2.0604,-1.9853,-1.9677,-2.0045,0.0,0.0,0.0,0.0,0.0,0.0,0.0,0.0,0.0,0.0,-2.2947,-2.4481,-2.3088,0.0,-2.4506,-2.4444,-2.4182,-2.3935,-2.4595,-2.5564,-2.6417,-2.5868,-2.6418,0.0,0.0,-2.3171,-2.2525,0.0,-2.1488,-2.0066,0.0,0.0,0.0,-2.0812,0.0,0.0,0.0,-2.0931,-2.091,0.0,0.0,0.0,0.0,0.0,0.0,0.0,0.0,0.0,0.0,0.0,0.0,0.0,0.0,0.0,0.0,-3.2049,-3.1601,-3.087,-3.1164,-3.1215,-3.0836,-3.0802,-3.0275,-2.9191,-2.8711,-2.7981,-2.6959,-2.6825,-2.6792,-2.6792,-2.6742,-2.6691,-2.6691,-2.6691,-2.6691,-2.6691,-2.6691,-2.6691,-2.6691,-2.6691,-2.647,-2.6104,-2.6104,-2.6319,-2.673,-2.7926,-2.8555,-2.9019,-2.6524,0.0,0.0,0.0,0.0,0.0,0.0,0.0,0.0,0.0,0.0,0.0,0.0,0.0,0.0,0.0,0.0,0.0,0.0,0.0,-2.2099,-2.1497,-2.1241,-2.1227,-2.1419,-2.135,-2.1334,-2.1419,0.0,0.0,0.0,0.0,0.0,0.0,0.0,0.0,0.0,0.0,0.0,-2.6292,0.0,-2.3686,-2.4692,-2.512,-2.4923,-2.4627,-2.635,-2.7463,-2.8062,-2.8106,0.0,-2.8028,-2.6465,-2.5157,0.0,0.0,0.0,0.0,0.0,0.0,0.0,0.0,0.0,-2.1385,0.0,0.0,0.0,-2.1923,0.0,0.0,0.0,0.0,0.0,0.0,0.0,0.0,0.0,0.0,0.0,0.0,0.0,0.0,0.0,-3.2127,-3.1688,-3.0509,-3.0834,-3.0885,-3.0404,-3.066,-3.0355,-2.928,-2.8938,-2.8203,-2.7024,-2.6942,-2.6926,-2.6926,-2.6792,-2.6742,-2.6742,-2.6691,-2.6691,-2.6742,-2.6742,-2.6742,-2.6775,-2.6775,-2.6775,-2.6742,-2.6742,-2.6691,-2.6877,-2.8416,-2.9011,-2.9231,-2.7455,-2.6809,0.0,0.0,0.0,0.0,0.0,0.0,0.0,0.0,0.0,0.0,0.0,0.0,0.0,0.0,0.0,0.0,-2.327,0.0,0.0,-2.2106,-2.1339,-2.1306,-2.2152,-2.1524,-2.1524,-2.2197,0.0,0.0,0.0,0.0,0.0,0.0,-2.1986,0.0,0.0,0.0,-2.4292,0.0,-2.6539,-2.7673,0.0,-2.7774,-2.7363,-2.7379,-2.8345,-2.9175,-2.9576,0.0,-2.8934,-3.0251,0.0,-2.5678,0.0,0.0,0.0,0.0,0.0,0.0,0.0,0.0,-2.1986,0.0,0.0,0.0,-2.1542,-2.1454,0.0,0.0,0.0,0.0,0.0,0.0,0.0,0.0,0.0,0.0,0.0,0.0,0.0,0.0,0.0,0.0,-3.0671,-3.0499,-2.9968,-2.9863,-3.039,-2.9194,-2.8767,-2.935,-2.7998,-2.7211,-2.7103,-2.704,-2.6975,-2.6975,-2.6909,-2.6893,-2.6876,-2.6742,-2.6742,-2.6893,-2.6893,-2.6909,-2.6975,-2.6975,-2.6975,-2.6942,-2.6775,-2.6691,-2.6877,-2.8416,-2.9011,-2.9231,-2.8256,-2.8095,0.0,0.0,0.0,0.0,0.0,0.0,0.0,0.0,0.0,0.0,0.0,0.0,0.0,0.0,0.0,-2.6288,0.0,0.0,0.0,-2.531,-2.3845,0.0,-2.4528,-2.3283,-2.2739,-2.3045,-2.2603,0.0,0.0,0.0,0.0,0.0,-2.2392,0.0,-2.3076,0.0,0.0,0.0,0.0,0.0,0.0,-2.9558,-2.9547,-2.9732,-2.9668,-3.0108,-3.0632,0.0,-2.9652,0.0,0.0,0.0,0.0,0.0,0.0,0.0,0.0,0.0,0.0,0.0,0.0,0.0,0.0,0.0,-2.1811,0.0,0.0,0.0,0.0,0.0,0.0,0.0,0.0,0.0,0.0,0.0,0.0,0.0,0.0,0.0,0.0,0.0,0.0,0.0,0.0,-2.8389,-2.8271,-2.9093,-2.9627,-2.9609,-2.9317,-2.8716,-2.7855,-2.7789,-2.75,-2.7055,-2.6975,-2.6959,-2.6959,-2.6892,-2.6892,-2.6959,-2.6959,-2.6975,-2.7007,-2.7007,-2.7007,-2.7009,-2.7368,-2.7521,-2.7709,-2.924,-2.9802,-2.9955,-2.8901,0.0,0.0,0.0,0.0,0.0,0.0,0.0,0.0,0.0,0.0,0.0,-3.1591,-2.9835,0.0,0.0,0.0,-2.977,0.0,0.0,-2.7652,0.0,0.0,0.0,0.0,-2.5045,-2.4389,-2.4109,-2.3619,0.0,0.0,0.0,0.0,0.0,0.0,-2.3206,-2.3632,0.0,0.0,-2.7006,-2.8386,-2.9621,-3.0667,-3.0747,-3.1058,-3.1435,-3.0905,-3.0984,-3.1329,-3.1329,-3.0484,0.0,-3.0362,0.0,0.0,0.0,0.0,0.0,-2.4184,0.0,0.0,0.0,0.0,0.0,0.0,0.0,0.0,0.0,0.0,0.0,0.0,0.0,0.0,0.0,0.0,0.0,0.0,0.0,0.0,0.0,0.0,0.0,0.0,0.0,0.0,0.0,-2.6437,-2.6792,-2.7062,-2.8699,-2.9816,-3.0173,-3.042,-2.9867,-2.8518,-2.8435,-2.7973,-2.7152,-2.7055,-2.704,-2.704,-2.7212,-2.7315,-2.7365,-2.7636,-2.7635,-2.7446,-2.7734,-2.7594,-2.7287,-2.8266,-2.8628,-2.8767,-2.9966,-3.0409,-3.0492,-2.9304,-2.9388,0.0,0.0,0.0,0.0,0.0,0.0,0.0,0.0,0.0,0.0,0.0,0.0,0.0,0.0,0.0,-3.3443,-3.257,0.0,-2.8486,0.0,0.0,-2.6239,0.0,-2.6402,-2.6357,-2.5428,-2.5349,0.0,0.0,0.0,0.0,0.0,0.0,-2.4681,-2.5693,-2.5765,-2.6415,-2.7465,-2.8354,-2.99,-3.1612,0.0,-3.1616,-3.2283,-3.2248,0.0,0.0,-3.1677,-3.1414,0.0,0.0,0.0,0.0,0.0,0.0,0.0,0.0,0.0,0.0,-2.7118,0.0,0.0,0.0,0.0,-2.2712,0.0,0.0,0.0,0.0,0.0,0.0,-2.2113,0.0,0.0,0.0,0.0,0.0,0.0,0.0,0.0,0.0,0.0,0.0,-2.5027,-2.4231,-2.4996,-2.7913,-2.7333,-2.8215,-3.1056,-3.0475,-2.9656,-2.8694,-2.8676,-2.8216,-2.7282,-2.7152,-2.7103,-2.712,-2.7775,-2.8151,-2.8303,-2.9211,-2.919,-2.8627,-2.9604,-2.9088,-2.7812,-2.9369,-2.9948,-2.9989,-3.0281,-3.0409,-3.0492,0.0,0.0,0.0,0.0,0.0,0.0,0.0,-2.9289,0.0,0.0,0.0,0.0,0.0,0.0,-3.6526,0.0,0.0,-3.6107,-3.6296,-3.4339,0.0,0.0,0.0,-3.0343,0.0,0.0,-2.7731,-2.6356,-2.5897,0.0,0.0,0.0,0.0,0.0,0.0,-2.532,0.0,0.0,0.0,0.0,0.0,-3.0306,-3.0566,0.0,0.0,-3.2317,-3.2317,-3.2196,0.0,-3.2109,-3.2039,-3.1845,-3.1341,-3.0855,-3.0213,-2.8887,-2.8218,0.0,0.0,0.0,-2.8377,-2.8594,0.0,0.0,0.0,0.0,0.0,0.0,0.0,0.0,0.0,0.0,-2.2282,-2.2248,-2.213,0.0,0.0,0.0,0.0,0.0,0.0,0.0,0.0,0.0,0.0,-2.2859,-2.2246,-2.2867,0.0,-2.6381,-2.7829,-2.9739,-2.9976,-2.9653,-2.8851,-2.8833,-2.8417,-2.7569,-2.8045,-2.8289,-2.8307,-2.9077,-2.9443,-2.9493,-2.9819,-2.9817,-2.9621,-2.9948,-2.9787,-2.94,-3.0387,-3.0457,-3.0088,-3.0714,-3.1255,-3.169,-2.9712,0.0,0.0,0.0,0.0,0.0,0.0,0.0,0.0,0.0,-3.4308,0.0,-3.9853,0.0,-3.9497,0.0,-4.0552,-3.9155,-3.871,-3.7018,0.0,-3.5478,-3.415,0.0,0.0,0.0,-2.9375,-2.7477,-2.7028,-2.6821,0.0,0.0,0.0,0.0,0.0,0.0,0.0,0.0,-2.6129,0.0,0.0,-3.0581,0.0,0.0,-3.2558,-3.2343,0.0,-3.2619,-3.2486,-3.2519,-3.2453,-3.2317,-3.2368,-3.2066,-3.1557,-3.0798,-3.0468,-3.0339,-3.017,-3.0419,0.0,-3.0624,-2.9472,0.0,-2.7384,0.0,0.0,0.0,0.0,0.0,0.0,0.0,0.0,-2.1797,-2.1846,-2.1919,0.0,-2.1568,0.0,0.0,0.0,0.0,0.0,0.0,-2.0299,-2.1413,-2.1066,-2.194,0.0,0.0,-2.7397,-2.9532,-2.9973,-2.9775,-2.8986,-2.8986,-2.8551,-2.7701,-2.824,-2.8469,-2.8521,-2.9593,-3.0068,-3.0103,-3.073,-3.0818,-3.0603,-3.0949,-3.0787,-3.0393,-3.1137,-3.1296,-3.1221,-3.1806,-3.2511,-3.3108,0.0,0.0,0.0,0.0,-2.9757,0.0,0.0,0.0,-3.3204,0.0,-3.5378,-3.7694,-3.8114,-4.0337,-4.2284,-4.3408,-4.3429,0.0,-3.9926,-3.8237,0.0,0.0,-3.4918,-3.3712,-3.1337,0.0,0.0,0.0,0.0,0.0,0.0,0.0,0.0,0.0,-2.7068,0.0,-2.6703,-2.5713,-2.5837,-2.6869,-2.9255,-3.0656,-3.1477,-3.2302,-3.2456,-3.2365,-3.3201,-3.322,-3.2876,-3.3006,-3.2734,-3.2385,-3.257,-3.259,-3.2592,-3.2588,-3.3153,-3.3679,-3.3234,-3.2921,-3.2809,-3.3142,0.0,0.0,0.0,0.0,-2.8484,0.0,0.0,0.0,0.0,0.0,0.0,-2.0947,-2.1305,-2.1668,-2.1326,0.0,0.0,0.0,0.0,0.0,0.0,-2.1023,-2.091,-2.0811,-2.0665,0.0,0.0,0.0,-2.6937,-3.0255,-3.0422,-3.0042,-2.9119,-2.9119,-2.867,-2.7783,-2.7853,-2.7906,-2.7941,-2.9453,-3.0138,-3.0258,-3.1918,-3.2181,-3.1544,-3.2499,-3.2072,-3.0861,-3.1607,-3.2475,-3.3368,-3.351,-3.4111,-3.4675,-3.0142,-3.0658,-3.1278,0.0,-3.0791,-3.0349,0.0,0.0,0.0,0.0,-3.8039,-4.0309,-4.2674,-4.4146,-4.4944,-4.496,-4.4175,0.0,0.0,0.0,0.0,-3.8778,-3.7532,-3.5871,-3.3829,-3.2912,0.0,-2.9591,0.0,0.0,-2.8915,0.0,0.0,0.0,0.0,0.0,-2.7616,-2.68,-2.6908,-2.7788,-2.9522,-2.9971,0.0,0.0,-3.2169,-3.1717,-3.3095,-3.3502,-3.3397,-3.3444,-3.3386,-3.337,-3.4009,-3.4606,-3.4907,-3.4092,-3.4422,-3.4778,-3.3502,-3.3105,-3.3166,-3.355,-3.2165,-3.0758,0.0,0.0,0.0,0.0,0.0,0.0,0.0,0.0,0.0,0.0,0.0,0.0,0.0,0.0,0.0,-2.1581,0.0,0.0,-2.1337,-2.0776,-2.0618,-2.115,-2.0636,0.0,0.0,0.0,0.0,-2.8435,-2.9305,-2.9622,-2.9397,-2.9358,-2.9194,-2.8987,-3.0125,-3.0658,-3.0693,-3.172,-3.2165,-3.2183,-3.2642,-3.2695,-3.2517,-3.2827,-3.2746,-3.2437,-3.2678,-3.381,-3.5272,-3.5044,-3.5381,-3.5919,-3.1379,0.0,0.0,-3.3215,0.0,0.0,-3.3838,0.0,0.0,-3.7699,-4.0251,0.0,-4.3423,-4.5067,-4.5961,-4.5565,-4.4976,0.0,0.0,0.0,0.0,-3.99,-3.8479,-3.6888,-3.5046,-3.3385,0.0,-3.0155,0.0,0.0,-2.9228,0.0,0.0,0.0,0.0,-2.7196,0.0,-2.7474,-2.7656,-2.8133,-2.93,0.0,0.0,-3.1642,-3.2254,-3.2525,-3.3387,-3.3643,-3.3605,-3.3615,-3.3615,-3.3678,-3.4201,-3.4895,-3.533,-3.4364,-3.4933,-3.5496,-3.3902,-3.372,-3.396,-3.3826,-3.3048,-3.2283,-3.2283,-3.1473,-3.0821,0.0,0.0,0.0,0.0,0.0,0.0,0.0,0.0,0.0,0.0,0.0,0.0,0.0,-2.1746,0.0,-2.1903,-2.1147,-2.0768,-2.1062,0.0,0.0,0.0,0.0,0.0,-2.7956,-2.8594,-2.8522,-2.7662,-2.8852,-2.903,-2.8241,-2.9496,-3.0113,-3.0208,-3.1332,-3.1849,-3.1885,-3.2581,-3.2916,-3.288,-3.2665,-3.2823,-3.3286,-3.3876,-3.5055,-3.6426,-3.6501,-3.689,-3.7387,0.0,0.0,0.0,0.0,0.0,0.0,0.0,-3.7521,0.0,-3.9164,0.0,-4.37,-4.2465,-4.4619,-4.5975,-4.5603,0.0,-4.4438,-4.2309,-4.1945,-4.1167,-3.9758,-3.8621,-3.7254,-3.5628,-3.3691,0.0,0.0,0.0,0.0,0.0,0.0,0.0,0.0,0.0,0.0,0.0,-2.8015,-2.8272,0.0,-2.9055,-3.0171,-3.1444,-3.1666,-3.2532,-3.366,-3.3752,-3.3726,-3.3633,-3.3698,-3.3671,-3.3661,-3.3908,-3.4394,-3.4788,-3.4147,-3.5,-3.5789,-3.4211,-3.4321,-3.4688,-3.3972,-3.3807,-3.3807,-3.3807,-3.3807,-3.3825,-3.3935,-3.2602,-3.1228,0.0,0.0,0.0,0.0,0.0,0.0,0.0,0.0,0.0,0.0,0.0,0.0,0.0,-2.1592,-2.1051,0.0,0.0,0.0,0.0,0.0,0.0,-2.7638,-2.8103,0.0,-2.5877,0.0,-2.8798,-2.7207,-2.7933,-2.8344,-2.8482,-2.9846,-3.0535,-3.0755,-3.2179,-3.2872,-3.2939,-3.2439,-3.2734,-3.3661,-3.4918,-3.6005,-3.6906,-3.7641,-3.8218,-3.8535,0.0,0.0,0.0,0.0,0.0,-3.8292,-4.1297,-3.9484,-3.88,-4.1645,-4.3764,0.0,-4.3754,-4.5322,-4.6145,-4.5414,-4.4488,0.0,0.0,0.0,0.0,-4.0833,-3.9372,-3.7973,-3.6752,-3.4375,-3.2751,0.0,-3.032,-2.9251,-2.8663,0.0,0.0,0.0,0.0,0.0,-2.8147,-2.8855,0.0,-2.9074,-2.9752,-3.0178,-3.0582,-3.1923,-3.2577,-3.2908,-3.3568,-3.378,-3.378,-3.378,-3.378,-3.389,-3.4568,-3.488,-3.4972,-3.4825,-3.499,-3.5009,-3.4064,-3.3899,-3.3972,-3.3844,-3.3807,-3.3807,-3.3807,-3.3807,-3.399,-3.4642,-3.4018,-3.3223,-3.293,0.0,0.0,0.0,0.0,0.0,0.0,0.0,0.0,0.0,0.0,0.0,0.0,0.0,0.0,0.0,0.0,0.0,0.0,0.0,0.0,0.0,-2.7497,0.0,0.0,0.0,-3.0066,-2.9919,-2.9809,-2.9761,-2.9792,-3.0163,-3.079,-3.1607,-3.2049,-3.2701,-3.3473,-3.3441,-3.3543,-3.3862,-3.5095,-3.5698,-3.6068,-3.7879,-3.8153,-3.7788,0.0,0.0,0.0,0.0,0.0,0.0,0.0,-4.2345,0.0,-4.4416,-4.5027,-4.5104,-4.4722,-4.539,-4.5545,-4.4704,-4.4122,-4.349,-4.2756,-4.1834,-4.1125,-4.0687,-3.8971,0.0,-3.7206,-3.4233,-3.2539,-3.2241,-3.0527,-2.9545,-2.9247,0.0,0.0,0.0,0.0,-2.788,0.0,0.0,0.0,-2.9252,-2.9926,-3.0448,-3.0944,-3.2155,-3.2871,-3.3275,-3.366,-3.3807,-3.3807,-3.3807,-3.4082,-3.4431,-3.4394,-3.4981,-3.5514,-3.4633,-3.4688,-3.4807,-3.4027,-3.3807,-3.3807,-3.3807,-3.3807,-3.3807,-3.3807,-3.4234,-3.4581,-3.4403,-3.451,-3.433,-3.3379,-3.1569,0.0,0.0,0.0,0.0,0.0,0.0,0.0,0.0,0.0,0.0,0.0,0.0,0.0,0.0,0.0,0.0,0.0,0.0,0.0,0.0,0.0,0.0,0.0,0.0,0.0,-2.7712,-2.8541,-2.8916,-2.889,-2.9928,-3.0659,-3.1201,-3.2288,-3.2806,-3.2893,-3.3164,-3.3389,-3.3647,-3.5114,-3.5979,-3.6433,-3.699,-3.7246,-3.7516,0.0,-3.788,0.0,0.0,-3.9491,0.0,0.0,-4.4639,-4.5879,-4.6696,-4.6254,-4.5776,-4.5583,-4.5239,-4.4743,-4.4074,-4.3673,-4.2832,-4.1342,-4.1074,-4.0558,-3.9564,-3.8214,-3.7338,-3.6958,-3.4168,-3.2694,0.0,-3.0934,-3.0061,0.0,0.0,0.0,0.0,0.0,0.0,0.0,0.0,-2.945,-2.9795,-3.0332,-3.1046,-3.1887,-3.2643,-3.3316,-3.3868,-3.3815,-3.3807,-3.3807,-3.3807,-3.4339,-3.4844,-3.4064,-3.4816,-3.5734,-3.4247,-3.4266,-3.4605,-3.3972,-3.3807,-3.3852,-3.4071,-3.4023,-3.3931,-3.4175,-3.4742,-3.4971,-3.4134,-3.476,-3.508,-3.3821,-3.3478,0.0,0.0,0.0,0.0,0.0,0.0,0.0,0.0,0.0,0.0,0.0,0.0,0.0,0.0,0.0,0.0,0.0,0.0,0.0,0.0,0.0,-2.6193,-2.4778,0.0,-2.8345,0.0,-2.7289,-2.7811,-2.7836,-2.9467,-3.0373,-3.0722,-3.2459,-3.2964,-3.2621,-3.3191,-3.3528,-3.3799,-3.5207,-3.6171,-3.67,-3.6028,-3.6193,-3.6864,0.0,0.0,0.0,0.0,0.0,0.0,0.0,-4.4987,-4.6109,-4.758,-4.7714,-4.7329,-4.6481,-4.5029,-4.4093,-4.4017,-4.2603,-4.1361,-4.0461,-3.9715,-3.8604,-3.7009,-3.7474,-3.7056,-3.5519,-3.494,-3.4407,0.0,0.0,-3.0741,-3.0245,-2.9243,0.0,0.0,0.0,0.0,0.0,-2.9793,-3.0273,-3.1563,-3.1615,-3.2251,-3.3205,-3.3799,-3.4117,-3.4124,-3.3895,-3.3807,-3.3807,-3.3807,-3.4339,-3.4844,-3.4064,-3.4412,-3.4935,-3.4064,-3.3844,-3.3899,-3.3825,-3.3807,-3.4034,-3.5013,-3.4693,-3.4407,-3.5394,-3.5083,-3.4558,-3.4461,-3.5079,-3.5694,-3.5775,-3.503,-3.3872,0.0,0.0,0.0,0.0,0.0,0.0,0.0,0.0,0.0,0.0,0.0,0.0,0.0,0.0,0.0,0.0,0.0,0.0,-2.3606,0.0,-2.5967,-2.6983,-2.7781,-2.8604,-2.9435,-2.8266,-2.784,-2.8093,-2.887,-2.9883,-3.1093,-3.2137,-3.3073,-3.3891,-3.4814,-3.518,-3.5206,-3.5515,-3.568,-3.5736,-3.5799,-3.5393,-3.4961,0.0,0.0,0.0,0.0,0.0,0.0,0.0,-4.5505,-4.6396,-4.6436,-4.6876,-4.7047,-4.6663,-4.5131,-4.3925,-4.3388,-4.1818,-4.0478,-3.9634,-3.8829,-3.7852,-3.6642,-3.6396,-3.5975,-3.53,-3.4209,-3.3788,0.0,0.0,-3.2048,-3.1788,-3.0957,0.0,0.0,0.0,-3.159,-3.175,-3.1261,-3.1408,-3.2023,-3.2508,-3.2943,-3.3325,-3.3574,-3.396,-3.4297,-3.3697,-3.3822,-3.4213,-3.4213,-3.4567,-3.4844,-3.4064,-3.4357,-3.4825,-3.4045,-3.3807,-3.386,-3.3998,-3.4382,-3.4902,-3.5488,-3.5385,-3.5413,-3.6314,-3.5972,-3.5562,-3.5945,-3.6368,-3.6587,-3.6177,-3.5894,-3.5306,0.0,0.0,0.0,0.0,0.0,0.0,0.0,0.0,0.0,0.0,0.0,0.0,0.0,0.0,0.0,0.0,0.0,0.0,-2.4472,0.0,-2.7065,-2.8008,-2.7899,-2.8149,-2.882,-2.8434,-2.8174,-2.8138,-2.9591,-3.1166,-3.271,-3.2669,-3.2856,-3.3264,-3.3672,-3.4148,-3.4698,-3.5256,-3.551,-3.5485,-3.5011,-3.4689,-3.4454,-4.1724,0.0,-4.3631,0.0,-4.4051,-4.4392,-4.4392,-4.5618,-4.6279,-4.5627,-4.6032,-4.6359,-4.632,-4.4825,-4.356,-4.2946,-4.1125,-3.9668,-3.8802,-3.7996,-3.6942,-3.5561,-3.5158,0.0,-3.4251,-3.3547,-3.3489,-3.4131,-3.3538,0.0,-3.319,0.0,0.0,0.0,-3.2367,-3.2638,-3.2832,-3.2391,-3.2487,-3.2959,-3.3034,-3.3261,-3.3507,-3.3185,-3.3409,-3.3824,-3.3178,-3.3477,-3.4193,-3.4193,-3.4493,-3.4789,-3.4131,-3.4526,-3.5032,-3.4186,-3.3954,-3.4111,-3.4572,-3.5109,-3.5722,-3.65,-3.6505,-3.6467,-3.7119,-3.6919,-3.673,-3.7181,-3.7204,-3.7072,-3.6691,-3.6571,-3.6222,-3.5261,0.0,0.0,0.0,0.0,0.0,0.0,-2.9626,-3.0339,-2.9718,0.0,0.0,0.0,0.0,0.0,0.0,0.0,0.0,0.0,0.0,0.0,0.0,-2.7474,-2.7749,-2.872,-2.8869,-2.8977,-2.9107,-3.073,-3.2328,-3.377,-3.3254,-3.304,-3.3059,-3.34,-3.3894,-3.4518,-3.5162,-3.5472,-3.5386,-3.4513,-3.4269,-3.4265,-4.4102,-4.4325,-4.4392,-4.4392,-4.4392,-4.4392,-4.4392,-4.5079,-4.5605,-4.5586,-4.5605,-4.555,-4.5438,-4.3905,-4.2908,-4.2889,-4.0569,-3.8764,-3.797,-3.716,-3.558,0.0,0.0,-3.3371,-3.1775,-3.3286,-3.4112,-3.4199,0.0,0.0,-3.416,0.0,-3.2897,-3.2878,-3.2831,-3.3119,-3.3627,-3.2844,-3.3437,-3.4826,-3.3168,-3.3131,-3.3978,-3.2915,-3.2509,-3.2492,-3.2204,-3.2675,-3.3409,-3.3409,-3.3995,-3.4651,-3.4298,-3.4885,-3.5492,-3.4492,-3.4325,-3.4677,-3.5631,-3.5897,-3.6356,-3.827,-3.8118,-3.7547,-3.7819,-3.7816,-3.7816,-3.7885,-3.7214,-3.6868,-3.7715,-3.7175,-3.6265,-3.5259,0.0,0.0,0.0,0.0,0.0,0.0,-2.9226,-2.9806,-2.9806,0.0,0.0,0.0,0.0,0.0,0.0,0.0,0.0,-2.5228,-2.4223,0.0,-2.6508,-2.6318,-2.7565,-3.0167,-2.9901,-3.0345,-3.1384,-3.2228,-3.3036,-3.3807,-3.3788,-3.3788,-3.387,-3.485,-3.528,-3.5299,-3.5428,-3.5497,-3.5386,-3.4513,-3.4197,-3.4197,-4.3505,-4.4013,-4.4592,-4.517,-4.525,-4.5233,-4.5233,-4.543,-4.5586,-4.5586,-4.5586,-4.5586,-4.5531,-4.4051,-4.3052,0.0,-4.0707,-3.8881,0.0,-3.7171,-3.557,-3.3006,-3.3147,-3.3032,-3.2526,-3.3019,-3.3865,-3.5084,0.0,0.0,0.0,-3.4828,-3.4672,-3.4672,-3.4606,-3.4678,-3.4829,-3.4546,-3.4722,-3.5162,-3.4626,-3.46,-3.4745,-3.3283,-3.3077,-3.3425,-3.2199,-3.2283,-3.2985,-3.2985,-3.3557,-3.4247,-3.3942,-3.4392,-3.4971,-3.4623,-3.4591,-3.473,-3.5173,-3.6122,-3.7167,-3.798,-3.8395,-3.8759,-3.9459,-3.9593,-3.9248,-3.8115,-3.7674,-3.7386,-3.7079,-3.6293,-3.5419,-3.4503,-3.5356,0.0,0.0,0.0,0.0,0.0,-3.0604,-3.1051,0.0,-3.0004,0.0,0.0,0.0,0.0,0.0,0.0,0.0,0.0,-2.8311,0.0,-2.9819,-2.8644,-2.9028,-3.1017,-3.0924,-3.1364,-3.2228,-3.2485,-3.3054,-3.3807,-3.3807,-3.3834,-3.3887,-3.4215,-3.4404,-3.4537,-3.518,-3.5472,-3.546,-3.5182,-3.5089,-3.5089,-4.2724,-4.3374,-4.4129,-4.4669,-4.4983,-4.5141,-4.5141,-4.5442,-4.5671,-4.564,-4.5671,-4.5671,-4.564,-4.4122,0.0,-4.3104,-4.0758,-3.9065,-3.8527,-3.7084,-3.5391,-3.3468,-3.2795,-3.2449,-3.2449,0.0,0.0,-3.5007,-3.5374,-3.5554,-3.5554,-3.552,-3.5493,-3.5493,-3.546,-3.5446,-3.5427,-3.5379,-3.5379,-3.536,-3.5033,-3.4899,-3.4707,-3.3037,-3.273,-3.3018,-3.1642,-3.168,-3.2403,-3.2403,-3.296,-3.3618,-3.3444,-3.3922,-3.4562,-3.4756,-3.487,-3.5038,-3.5503,-3.6413,-3.7326,-3.7805,-3.83,-3.8879,-3.9742,-3.997,-3.9698,-3.8639,-3.8162,-3.7682,-3.6799,-3.5955,-3.5177,-3.4615,-3.5718,-3.5802,-3.3388,0.0,0.0,0.0,0.0,0.0,0.0,-3.16,0.0,0.0,0.0,0.0,0.0,0.0,0.0,-3.0206,-2.9654,0.0,-3.1094,-2.9664,-2.9923,-3.1843,-3.2155,-3.2559,-3.3054,-3.3054,-3.333,-3.3807,-3.3834,-3.3842,-3.3895,-3.3947,-3.4023,-3.4191,-3.5094,-3.5454,-3.5497,-3.5497,-3.5683,-3.5876,-4.1919,-4.2555,0.0,0.0,-4.3821,0.0,-4.4325,-4.5036,-4.5583,-4.5536,-4.563,-4.566,-4.5536,-4.408,-4.3082,-4.3008,0.0,0.0,0.0,-3.7026,-3.5257,-3.4334,-3.2737,-3.1872,-3.1872,-3.2602,-3.341,-3.4295,-3.5103,-3.5493,-3.5493,-3.5493,-3.5493,-3.5493,-3.5493,-3.5493,-3.5493,-3.5493,-3.5493,-3.543,-3.4622,-3.4237,-3.4007,-3.2391,-3.1756,-3.1583,-3.0717,-3.0929,-3.1621,-3.1621,-3.216,-3.2814,-3.2814,-3.341,-3.4216,-3.4776,-3.5114,-3.5503,-3.6392,-3.6661,-3.6887,-3.7704,-3.7959,-3.8235,-3.91,-3.9342,-3.9373,-3.9373,-3.8642,-3.7757,-3.6949,-3.6084,-3.5493,-3.5412,-3.6085,-3.5978,-3.4182,0.0,0.0,0.0,0.0,0.0,0.0,-3.2953,-3.291,0.0,0.0,0.0,0.0,0.0,-3.0124,-3.0179,-2.9064,-2.9225,-3.077,-2.9783,-3.0411,-3.2706,-3.344,-3.3807,-3.3834,-3.3815,-3.3842,-3.3868,-3.3921,-3.3947,-3.3947,-3.4049,-3.4099,-3.4198,-3.5144,-3.5566,-3.5622,-3.5603,-3.6112,-3.654,0.0,0.0,-4.2483,-4.3101,-4.3366,-4.347,-4.347,-4.364,-4.3759,-4.3863,-4.4414,-4.4559,-4.3936,-4.3458,-4.2913,-4.2245,-4.0981,-3.995,-3.9335,-3.8104,-3.6757,-3.5257,-3.416,-3.3603,-3.3603,-3.3795,-3.4314,-3.5199,-3.5411,-3.5493,-3.5493,-3.5493,-3.5493,-3.5493,-3.5493,-3.5493,-3.5493,-3.5493,-3.5493,-3.5488,-3.5276,-3.4795,-3.4083,-3.3026,-3.2237,-3.1583,-3.0717,-3.0533,-3.0717,-3.0717,-3.1275,-3.1987,-3.1987,-3.2545,-3.3359,-3.4164,-3.4894,-3.5498,-3.571,-3.6243,-3.6743,-3.6969,-3.7993,-3.9185,-4.0011,-4.02,-4.0219,-4.0219,-3.9027,-3.793,-3.7738,-3.6488,-3.5493,-3.5493,-3.5647,-3.5185,-3.3481,-3.3557,0.0,0.0,-3.2756,-3.3382,-3.4702,-3.485,-3.4312,0.0,0.0,0.0,0.0,-3.3255,-3.3987,-3.3836,-3.2751,-3.2333,-3.2745,-3.2266,-3.2551,-3.3532,-3.3715,-3.3895,-3.4099,-3.4111,-3.4237,-3.4398,-3.4284,-3.4255,-3.434,-3.4173,-3.4124,-3.4271,-3.5324,-3.611,-3.6658,-3.682,-3.7039,-3.7173,-4.1448,-4.1455,-4.1596,-4.2041,-4.2405,-4.2647,-4.2647,-4.296,-4.3211,-4.325,-4.3659,-4.3769,-4.3312,-4.2897,-4.2454,-4.1947,-4.0703,-3.9758,-3.9315,-3.7777,-3.6449,-3.5545,-3.4276,-3.3795,-3.418,-3.4199,-3.4622,-3.5493,-3.5493,-3.5493,-3.5493,-3.5493,-3.5493,-3.5493,-3.5493,-3.5493,-3.5493,-3.5493,-3.5493,-3.5493,-3.5493,-3.4988,-3.4103,-3.3237,-3.241,-3.1583,-3.0717,-3.0398,-3.0398,-3.0398,-3.0717,-3.1121,-3.1121,-3.1679,-3.2449,-3.291,-3.393,-3.4988,-3.5391,-3.5834,-3.6161,-3.6161,-3.745,-3.8815,-3.9258,-3.995,-4.0392,-4.0027,-3.8911,-3.7873,-3.7488,-3.6372,-3.5493,-3.5493,-3.4866,-3.4045,-3.3126,-3.2967,0.0,-3.2991,-3.3635,-3.4474,-3.5397,-3.5493,-3.5109,-3.4153,0.0,0.0,-3.3961,-3.487,-3.5158,-3.4645,-3.3951,-3.3752,-3.4131,-3.3874,-3.4045,-3.4711,-3.4346,-3.4442,-3.4936,-3.4589,-3.4508,-3.4653,-3.4551,-3.4569,-3.4628,-3.4502,-3.448,-3.4599,-3.5574,-3.6201,-3.6599,-3.6726,-3.7032,-3.7356,-4.079,-4.079,-4.079,-4.079,-4.1364,-4.1821,-4.1821,-4.2441,-4.2911,-4.2897,-4.3041,-4.3073,-4.2908,-4.2389,-4.1974,-4.1768,-4.0159,-3.921,-3.9311,-3.7076,-3.5734,-3.5707,-3.4167,-3.3647,-3.4372,-3.4391,-3.4757,-3.5493,-3.5493,-3.5493,-3.5493,-3.5493,-3.5493,-3.5493,-3.5493,-3.5493,-3.5493,-3.5493,-3.5493,-3.5493,-3.5493,-3.4911,-3.391,-3.3179,-3.2314,-3.141,-3.0679,-3.0398,-3.0398,-3.0398,-3.0398,-3.0398,-3.0398,-3.091,-3.1525,-3.166,-3.2718,-3.4045,-3.5026,-3.5411,-3.5532,-3.5661,-3.6853,-3.8027,-3.8161,-3.9392,-4.0296,-3.9623,-3.8681,-3.7777,-3.7026,-3.6142,-3.5468,-3.5334,-3.4122,-3.3099,-3.286,0.0,-3.3157,-3.3022,-3.4475,-3.5493,-3.5493,-3.5493,-3.5565,-3.568,-3.4941,-3.5152,0.0,-3.5998,-3.5196,-3.4351,-3.4263,-3.4494,-3.4997,-3.4793,-3.5047,-3.581,-3.512,-3.5181,-3.5864,-3.5225,-3.4887,-3.4793,-3.4832,-3.4851,-3.4851,-3.4889,-3.4908,-3.4965,-3.5685,-3.6026,-3.616,-3.6197,-3.6672,-3.7224,-4.079,-4.079,-4.079,-4.079,-4.0906,-4.1023,-4.1061,-4.1132,-4.1248,-4.1409,-4.2021,-4.2195,-4.1493,-4.1912,-4.1937,-4.1138,-3.9457,-3.8732,-3.9422,-3.7764,-3.6735,-3.6687,-3.572,-3.5218,-3.5295,-3.5295,-3.5372,-3.5493,-3.5493,-3.5493,-3.5493,-3.5493,-3.5493,-3.5493,-3.5493,-3.5493,-3.5493,-3.5493,-3.5493,-3.5493,-3.5493,-3.4545,-3.3083,-3.2949,-3.1948,-3.0571,-3.0436,-3.0398,-3.0398,-3.0398,-3.0398,-3.0398,-3.0398,-3.0494,-3.0756,-3.1487,-3.1891,-3.2429,-3.3968,-3.4949,-3.5661,-3.6353,-3.7257,-3.818,-3.8931,-3.9815,-4.045,-4.0335,-3.9084,-3.7969,-3.7815,-3.6546,-3.529,-3.459,-3.4256,-3.3604,-3.2182,0.0,-3.3843,-3.3099,-3.4475,-3.5493,-3.5493,-3.5493,-3.5795,-3.6469,-3.6378,-3.6397,-3.6699,-3.657,-3.6108,-3.5301,-3.5907,-3.5875,-3.5088,-3.4999,-3.5249,-3.5883,-3.575,-3.5872,-3.6216,-3.6101,-3.5768,-3.5304,-3.5174,-3.5141,-3.5124,-3.4982,-3.4908,-3.4927,-3.5223,-3.5751,-3.6377,-3.6612,-3.6796,-3.6867,-4.081,-4.0829,-4.0848,-4.0848,-4.0848,-4.0868,-4.0938,-4.0934,-4.0937,-4.1033,-4.1374,-4.1267,-4.0383,-4.0699,-4.0587,-3.9638,-3.8453,-3.7898,-3.824,-3.7005,-3.6209,-3.6151,-3.5753,-3.5534,-3.5507,-3.5493,-3.5493,-3.5493,-3.5493,-3.5493,-3.5493,-3.5493,-3.5493,-3.5493,-3.5493,-3.5493,-3.5493,-3.5493,-3.5238,-3.4795,-3.4795,-3.3776,-3.2256,-3.2256,-3.1775,-3.1044,-3.0571,-3.0698,-3.1025,-3.0552,-3.0398,-3.0398,-3.0398,-3.0398,-3.0475,-3.0891,-3.1641,-3.2622,-3.3853,-3.4487,-3.5007,-3.5853,-3.668,-3.7411,-3.7815,-3.8546,-3.9142,-3.9142,-3.8161,-3.7296,-3.7296,-3.6315,-3.5232,-3.4429,-3.3921,0.0,0.0,-3.2849,-3.3484,-3.3199,-3.4542,-3.5515,-3.5553,-3.5528,-3.5834,-3.6642,-3.6315,-3.6449,-3.7353,-3.6969,-3.6526,-3.6161,-3.6103,-3.5797,-3.5273,-3.5698,-3.6279,-3.6975,-3.6536,-3.6625,-3.7132,-3.6246,-3.5714,-3.5446,-3.5383,-3.5354,-3.5354,-3.5258,-3.5226,-3.5242,-3.5315,-3.559,-3.5931,-3.6093,-3.6144,-3.6214,-4.052,-4.0745,-4.0919,-4.0919,-4.0928,-4.0939,-4.0996,-4.1024,-4.1025,-4.1047,-4.0877,-4.0467,-3.9741,-3.9585,-3.9232,-3.851,-3.7749,-3.7265,-3.72,-3.6246,-3.5626,-3.5534,-3.5501,-3.5507,-3.5501,-3.5507,-3.5493,-3.5493,-3.5493,-3.5493,-3.5493,-3.5493,-3.5493,-3.5493,-3.5493,-3.5493,-3.5493,-3.5493,-3.5122,-3.4468,-3.4276,-3.3314,-3.1987,-3.1987,-3.1737,-3.1352,-3.0871,-3.1006,-3.1295,-3.0641,-3.0398,-3.0398,-3.0398,-3.0398,-3.0398,-3.0398,-3.1314,-3.2545,-3.3603,-3.4045,-3.4353,-3.5026,-3.5949,-3.6699,-3.6699,-3.7373,-3.8007,-3.8007,-3.7315,-3.6699,-3.6741,-3.6067,-3.5258,-3.4483,0.0,0.0,0.0,-3.2996,-3.3481,-3.3828,-3.4865,-3.5558,-3.562,-3.5558,-3.5855,-3.6683,-3.6155,-3.643,-3.7911,-3.718,-3.6636,-3.6425,-3.5815,-3.5493,-3.5412,-3.6099,-3.6834,-3.7613,-3.7198,-3.7233,-3.7583,-3.6551,-3.5872,-3.5493,-3.5493,-3.5493,-3.5507,-3.5488,-3.5501,-3.5501,-3.5522,-3.5515,-3.5528,-3.5589,-3.5601,-3.5709,-3.97,-4.0397,-4.0996,-4.0996,-4.0994,-4.1027,-4.1091,-4.1086,-4.1111,-4.1185,-4.0488,-3.9941,-3.9882,-3.9179,-3.8656,-3.8583,-3.7808,-3.7265,-3.72,-3.6359,-3.5788,-3.56,-3.5528,-3.5501,-3.5502,-3.5501,-3.5493,-3.5493,-3.5493,-3.5493,-3.5493,-3.5493,-3.5493,-3.5493,-3.5493,-3.5493,-3.5493,-3.5493,-3.5468,-3.5334,-3.4526,-3.3641,-3.2814,-3.2814,-3.1852,-3.059,-3.1352,-3.1141,-3.0475,-3.0417,-3.0398,-3.0398,-3.0398,-3.0398,-3.0398,-3.0398,-3.0494,-3.0948,-3.2564,-3.3583,-3.4218,-3.4276,-3.5507,-3.6699,-3.6699,-3.7373,-3.8007,-3.8007,-3.7315,-3.6741,-3.6868,-3.6176,-3.5359,-3.4618,0.0,0.0,-3.4315,-3.4354,-3.4664,-3.543,-3.5627,-3.5696,-3.5685,-3.564,-3.5944,-3.6833,-3.671,-3.7026,-3.795,-3.7228,-3.6414,-3.5618,-3.552,-3.5493,-3.5493,-3.5551,-3.5993,-3.6801,-3.7565,-3.7507,-3.6801,-3.7507,-3.6969,-3.5493,-3.5493,-3.5493,-3.5507,-3.5509,-3.5502,-3.5502,-3.556,-3.5591,-3.5604,-3.5589,-3.5601,-3.5631,-3.9451,-3.9987,-4.0266,-4.0258,-4.0699,-4.0887,-4.0437,-4.035,-4.0356,-4.039,-3.9629,-3.8887,-3.8359,-3.7988,-3.7576,-3.7028,-3.6673,-3.647,-3.6397,-3.6086,-3.5834,-3.5681,-3.5644,-3.5592,-3.5554,-3.5572,-3.554,-3.5509,-3.5509,-3.5509,-3.5509,-3.5541,-3.5554,-3.5554,-3.5554,-3.5554,-3.5554,-3.5554,-3.5245,-3.4725,-3.4398,-3.3742,-3.2952,-3.2952,-3.2894,-3.2779,-3.2586,-3.2297,-3.1931,-3.143,-3.091,-3.0447,-3.0406,-3.0394,-3.0394,-3.0394,-3.0402,-3.0556,-3.1272,-3.2039,-3.2891,-3.393,-3.468,-3.5303,-3.5881,-3.6272,-3.6516,-3.6577,-3.6317,-3.6095,-3.6144,-3.5892,-3.5405,-3.4627,0.0,-3.5106,-3.4686,-3.4989,-3.5407,-3.5836,-3.6248,-3.6526,-3.6567,-3.6995,-3.7411,-3.7754,-3.7226,-3.7038,-3.7362,-3.6574,-3.5963,-3.563,-3.5584,-3.5545,-3.5493,-3.5988,-3.6411,-3.6699,-3.7046,-3.7026,-3.6699,-3.6526,-3.6103,-3.5507,-3.5495,-3.5509,-3.5509,-3.5547,-3.556,-3.556,-3.5596,-3.5608,-3.5608,-3.5662,-3.5654,-3.5673,-3.8291,-3.9009,-3.9502,-3.977,-4.0099,-4.0221,-3.9939,-3.9668,-3.9492,-3.9492,-3.873,-3.7969,-3.7363,-3.6816,-3.6348,-3.6035,-3.5508,-3.5288,-3.5509,-3.5529,-3.5592,-3.5723,-3.5715,-3.5697,-3.5658,-3.563,-3.5605,-3.5566,-3.5566,-3.5541,-3.554,-3.5591,-3.5611,-3.5611,-3.5611,-3.5642,-3.5642,-3.5642,-3.5295,-3.4723,-3.4453,-3.401,-3.3469,-3.3462,-3.3674,-3.3913,-3.3585,-3.3122,-3.2563,-3.2014,-3.1242,-3.0518,-3.0477,-3.0455,-3.0463,-3.0463,-3.0452,-3.0475,-3.0578,-3.1158,-3.2044,-3.3183,-3.3878,-3.4422,-3.5078,-3.5427,-3.5641,-3.5685,-3.5693,-3.5702,-3.5753,-3.576,-3.5599,-3.5059,-3.5437,-3.5624,-3.5174,-3.5502,-3.5853,-3.5974,-3.666,-3.7113,-3.7168,-3.7862,-3.8324,-3.8332,-3.7497,-3.689,-3.6645,-3.6045,-3.5699,-3.5731,-3.567,-3.5611,-3.5565,-3.6084,-3.6334,-3.6334,-3.6584,-3.6584,-3.6353,-3.607,-3.5801,-3.5565,-3.5553,-3.556,-3.5566,-3.5649,-3.5662,-3.5662,-3.5659,-3.5662,-3.5681,-3.5723,-3.5723,-3.5723,-3.5889,-3.7332,-3.8848,-3.9726,-3.916,-3.8887,-3.9746,-3.9141,-3.8594,-3.8574,-3.7832,-3.7285,-3.7285,-3.5742,-3.5059,-3.5918,-3.4414,-3.3789,-3.4648,-3.469,-3.5032,-3.5772,-3.5743,-3.5723,-3.5791,-3.5737,-3.5701,-3.5699,-3.5699,-3.5676,-3.5589,-3.5674,-3.5669,-3.5586,-3.5669,-3.57,-3.57,-3.57,-3.57,-3.5623,-3.4827,-3.4518,-3.4518,-3.4496,-3.3967,-3.3327,-3.4191,-3.3369,-3.1915,-3.192,-3.1341,-3.0606,-3.0606,-3.0601,-3.0602,-3.0602,-3.059,-3.0595,-3.0606,-3.1245,-3.1909,-3.1914,-3.3169,-3.4392,-3.4412,-3.5072,-3.5693,-3.5702,-3.5702,-3.5745,-3.5878,-3.5889,-3.5929,-3.5988,-3.5991,-3.5991,-3.5994,-3.5991,-3.5999,-3.601,-3.6773,-3.732,-3.732,-3.7975,-3.8417,-3.8397,-3.7527,-3.6642,-3.5838,-3.5741,-3.5723,-3.5791,-3.5743,-3.5697,-3.5699,-3.5584,-3.5493,-3.5512,-3.6315,-3.6315,-3.5641,-3.6493,-3.6469,-3.5699,-3.5699,-3.5714,-3.5719,-3.5777,-3.5797,-3.5789,-3.5789,-3.5792,-3.5792,-3.5792,-3.5792,-3.5811,-3.4947,-3.5989,-3.6855,-3.7129,-3.7441,-3.7773,-3.8047,-3.7851,-3.7461,-3.6855,-3.6543,-3.6152,-3.5547,-3.5566,-3.5469,-3.5117,-3.4609,-3.4414,-3.4687,-3.4704,-3.507,-3.589,-3.5927,-3.5908,-3.587,-3.5854,-3.5821,-3.5776,-3.5763,-3.5754,-3.5732,-3.5766,-3.5766,-3.5745,-3.5753,-3.5772,-3.5772,-3.5772,-3.5772,-3.5753,-3.5519,-3.5403,-3.5344,-3.4722,-3.4722,-3.4982,-3.4637,-3.3794,-3.2881,-3.2868,-3.1903,-3.0665,-3.0665,-3.0639,-3.0603,-3.0661,-3.0649,-3.0741,-3.1469,-3.1813,-3.2117,-3.2674,-3.3646,-3.4637,-3.5294,-3.5663,-3.585,-3.5904,-3.5919,-3.5923,-3.5955,-3.5978,-3.5981,-3.5991,-3.5991,-3.5996,-3.6005,-3.5999,-3.6228,-3.6838,-3.7671,-3.8203,-3.8203,-3.896,-3.8955,-3.7723,-3.6794,-3.6183,-3.5957,-3.5923,-3.5919,-3.5947,-3.5879,-3.5833,-3.5848,-3.5718,-3.5641,-3.5641,-3.5892,-3.5892,-3.5694,-3.5929,-3.5939,-3.5706,-3.5745,-3.5773,-3.5713,-3.5135,-3.489,-3.4831,-3.4275,-3.4418,-3.497,-3.497,-3.532,-3.5794,-3.4082,-3.4883,-3.5703,-3.6387,-3.666,-3.6894,-3.7246,-3.7012,-3.6465,-3.5605,-3.5488,-3.5156,-3.4277,-3.4375,-3.4414,-3.4199,-3.3887,-3.3848,-3.416,-3.4199,-3.4726,-3.5957,-3.5996,-3.5976,-3.5937,-3.5937,-3.5915,-3.5887,-3.5877,-3.5869,-3.5849,-3.5878,-3.5852,-3.583,-3.5875,-3.5887,-3.5887,-3.5887,-3.5887,-3.5887,-3.5887,-3.5672,-3.5318,-3.4771,-3.4908,-3.524,-3.4381,-3.3754,-3.3285,-3.2973,-3.1942,-3.0774,-3.0774,-3.0749,-3.0739,-3.0778,-3.0758,-3.093,-3.1889,-3.2118,-3.2355,-3.3502,-3.4189,-3.4735,-3.5304,-3.5694,-3.5943,-3.5994,-3.6001,-3.5999,-3.5994,-3.5996,-3.6001,-3.6001,-3.5996,-3.5996,-3.6003,-3.6007,-3.6202,-3.671,-3.7557,-3.8086,-3.8086,-3.8866,-3.8806,-3.742,-3.6814,-3.6366,-3.6016,-3.5993,-3.6001,-3.6004,-3.5955,-3.5947,-3.5935,-3.5853,-3.5781,-3.5704,-3.5704,-3.5732,-3.579,-3.5773,-3.5791,-3.581,-3.5869,-3.5674,-3.5323,-3.4807,-3.4381,-3.401,-3.3534,-3.3654,-3.4122,-3.4137,-3.4644,-3.5366,-3.3418,-3.4101,-3.5195,-3.6797,-3.6406,-3.6172,-3.7051,-3.6504,-3.5664,-3.4707,-3.4648,-3.4336,-3.3398,-3.2695,-3.2578,-3.3242,-3.2559,-3.2422,-3.3242,-3.3359,-3.4141,-3.5801,-3.5957,-3.5996,-3.5996,-3.5996,-3.5996,-3.5996,-3.5996,-3.5976,-3.5918,-3.5898,-3.588,-3.5902,-3.5893,-3.5937,-3.5996,-3.5996,-3.5996,-3.5996,-3.5996,-3.5488,-3.4687,-3.4609,-3.4629,-3.457,-3.3633,-3.3398,-3.3379,-3.25,-3.168,-3.0996,-3.0918,-3.0898,-3.0898,-3.0898,-3.0957,-3.121,-3.2072,-3.2367,-3.2801,-3.4424,-3.4821,-3.4821,-3.4821,-3.5425,-3.5992,-3.5992,-3.5992,-3.6009,-3.5999,-3.6005,-3.5991,-3.5992,-3.6003,-3.5996,-3.5996,-3.5993,-3.6035,-3.6113,-3.6816,-3.7305,-3.7305,-3.7949,-3.8047,-3.7246,-3.7187,-3.6836,-3.6035,-3.5996,-3.5996,-3.5996,-3.5996,-3.5996,-3.5996,-3.6005,-3.5905,-3.5729,-3.5729,-3.5791,-3.5907,-3.5907,-3.5951,-3.5996,-3.5918,-3.543,-3.4687,-3.4531,-3.4004,-3.3281,-3.3193,-3.3224,-3.3283,-3.3275,-3.3842,-3.4583,-3.3535,-3.4101,-3.4824,-3.5195,-3.5117,-3.5273,-3.6152,-3.6113,-3.5449,-3.3887,-3.4277,-3.4121,-3.2617,-3.2871,-3.2969,-3.25,-3.168,-3.1543,-3.2402,-3.3047,-3.3867,-3.4941,-3.5644,-3.5996,-3.5996,-3.5996,-3.5996,-3.5996,-3.5996,-3.5996,-3.5957,-3.5293,-3.5349,-3.5942,-3.5272,-3.5351,-3.5996,-3.5996,-3.5996,-3.5996,-3.5996,-3.5488,-3.4629,-3.3945,-3.4101,-3.4492,-3.3008,-3.3301,-3.4199,-3.2695,-3.207,-3.1797,-3.1113,-3.0898,-3.0898,-3.0898,-3.1387,-3.2109,-3.2928,-3.3648,-3.441,-3.5468,-3.5722,-3.5722,-3.5722,-3.5859,-3.5996,-3.5996,-3.5996,-3.5996,-3.5995,-3.6007,-3.6003,-3.5995,-3.5995,-3.5995,-3.5995,-3.5996,-3.625,-3.6934,-3.7187,-3.7305,-3.7305,-3.6855,-3.6484,-3.6309,-3.6289,-3.6191,-3.6016,-3.5996,-3.5996,-3.5996,-3.5996,-3.5996,-3.5996,-3.5993,-3.597,-3.593,-3.593,-3.5945,-3.5991,-3.5991,-3.5986,-3.5957,-3.5273,-3.4862,-3.4599,-3.3231,-3.2551,-3.2321,-3.1694,-3.1825,-3.2385,-3.2387,-3.2934,-3.3678,-3.2871,-3.3476,-3.4218,-3.4629,-3.5039,-3.5469,-3.5937,-3.5996,-3.5527,-3.4199,-3.4414,-3.3906,-3.1816,-3.2324,-3.248,-3.1641,-3.1152,-3.1269,-3.2148,-3.2598,-3.3203,-3.4043,-3.4512,-3.4766,-3.4766,-3.4766,-3.5176,-3.5996,-3.5996,-3.5996,-3.5996,-3.5527,-3.5566,-3.5976,-3.5527,-3.5566,-3.5996,-3.5996,-3.5996,-3.5996,-3.5996,-3.5488,-3.4648,-3.4199,-3.4043,-3.3906,-3.2656,-3.25,-3.2754,-3.1875,-3.1582,-3.1504,-3.1035,-3.0898,-3.0898,-3.0898,-3.1211,-3.1855,-3.3066,-3.3457,-3.3906,-3.5586,-3.5684,-3.5488,-3.5918,-3.5996,-3.5996,-3.5996,-3.5996,-3.5996,-3.5996,-3.5994,-3.5992,-3.5996,-3.5996,-3.5996,-3.5996,-3.5996,-3.6172,-3.6621,-3.668,-3.668,-3.668,-3.6269,-3.5996,-3.5992,-3.5995,-3.5996,-3.5996,-3.5996,-3.5996,-3.5996,-3.5996,-3.5995,-3.5991,-3.5991,-3.5993,-3.5995,-3.5996,-3.5996,-3.5996,-3.5996,-3.5995,-3.5951,-3.5074,-3.4467,-3.3975,-3.2641,-3.188,-3.1495,-3.1063,-3.1159,-3.1524,-3.1485,-3.2031,-3.2775,-3.2324,-3.2907,-3.3629,-3.4354,-3.5195,-3.5723,-3.5586,-3.5684,-3.543,-3.4394,-3.4277,-3.3359,-3.0937,-3.1191,-3.1309,-3.0723,-3.0684,-3.0976,-3.1719,-3.2031,-3.25,-3.3164,-3.332,-3.3398,-3.3398,-3.3398,-3.4101,-3.5566,-3.5566,-3.5625,-3.5762,-3.5625,-3.5703,-3.5996,-3.584,-3.5859,-3.5996,-3.5996,-3.5996,-3.5996,-3.584,-3.5254,-3.4453,-3.4336,-3.3828,-3.3086,-3.2266,-3.1601,-3.1113,-3.1113,-3.1113,-3.1094,-3.0957,-3.0898,-3.0898,-3.0898,-3.1016,-3.1465,-3.2988,-3.3027,-3.3164,-3.5449,-3.5469,-3.5117,-3.584,-3.5996,-3.5996,-3.5996,-3.5996,-3.5996,-3.5996,-3.5996,-3.5996,-3.5996,-3.5996,-3.5996,-3.5996,-3.5996,-3.5996,-3.5996,-3.5996,-3.5995,-3.5995,-3.5996,-3.5994,-3.5999,-3.5992,-3.5996,-3.5996,-3.5996,-3.5996,-3.5996,-3.5996,-3.5993,-3.5996,-3.5994,-3.5999,-3.6009,-3.5994,-3.5996,-3.5996,-3.5996,-3.5915,-3.5723,-3.4864,-3.3973,-3.3119,-3.2251,-3.1504,-3.088,-3.088,-3.088,-3.088,-3.0821,-3.127,-3.1875,-3.3229,-3.3312,-3.3431,-3.3558,-3.4293,-3.4629,-3.3867,-3.4394,-3.4316,-3.2734,-3.2539,-3.1836,-2.998,-2.9219,-2.9082,-2.9726,-2.9785,-2.9824,-2.9941,-3.1367,-3.2246,-3.2363,-3.3027,-3.3398,-3.3398,-3.3398,-3.3516,-3.375,-3.375,-3.4141,-3.4863,-3.4101,-3.4551,-3.5976,-3.5215,-3.5293,-3.5996,-3.5996,-3.5996,-3.5937,-3.5176,-3.4355,-3.3496,-3.2793,-3.2461,-3.2246,-3.1387,-3.1484,-3.2012,-3.2012,-3.2012,-3.1894,-3.1133,-3.0898,-3.0898,-3.0898,-3.1426,-3.2226,-3.3144,-3.3867,-3.4629,-3.5723,-3.5918,-3.5859,-3.5976,-3.5996,-3.5996,-3.5996,-3.5996,-3.5996,-3.5996,-3.5996,-3.5996,-3.5996,-3.5996,-3.5996,-3.5996,-3.5996,-3.5996,-3.5996,-3.601,-3.5999,-3.5999,-3.6007,-3.5992,-3.6009,-3.6003,-3.6003,-3.5992,-3.5992,-3.5992,-3.5992,-3.5992,-3.5992,-3.6009,-3.5999,-3.5994,-3.5996,-3.5996,-3.6003,-3.5992,-3.5992,-3.5582,-3.4838,-3.3949,-3.3085,-3.2209,-3.1407,-3.0958,-3.0801,-3.0801,-3.0801,-3.0801,-3.0801,-3.088,-3.0977,-3.1992,-3.2368,-3.2663,-3.2675,-3.3389,-3.3846,-3.3457,-3.373,-3.3554,-3.2358,-3.2591,-3.2047,-2.9844,-2.8826,-2.8453,-2.8843,-2.9314,-2.9608,-2.9608,-3.078,-3.1464,-3.1465,-3.1816,-3.1992,-3.1992,-3.1992,-3.1992,-3.1992,-3.2949,-3.3594,-3.3965,-3.3574,-3.3809,-3.4531,-3.4141,-3.4453,-3.5234,-3.4746,-3.4824,-3.5195,-3.4316,-3.373,-3.3359,-3.3008,-3.2598,-3.209,-3.1211,-3.1152,-3.1465,-3.1465,-3.1465,-3.1406,-3.1016,-3.0898,-3.0898,-3.0898,-3.1523,-3.2383,-3.3184,-3.4043,-3.4902,-3.5781,-3.5996,-3.5996,-3.5996,-3.5996,-3.5996,-3.5996,-3.5996,-3.5996,-3.5996,-3.5996,-3.5996,-3.5996,-3.5994,-3.6009,-3.6009,-3.5993,-3.5995,-3.5995,-3.6009,-3.6001,-3.5994,-3.5999,-3.6001,-3.6001,-3.5996,-3.5996,-3.6001,-3.6001,-3.6001,-3.6001,-3.6001,-3.6001,-3.6001,-3.5996,-3.5991,-3.5991,-3.5955,-3.5958,-3.6001,-3.6001,-3.5515,-3.4656,-3.3771,-3.291,-3.2031,-3.1192,-3.0841,-3.0801,-3.0801,-3.0801,-3.0799,-3.0762,-3.0762,-3.0788]}]]